<?xml version="1.0" encoding="UTF-8" standalone="no" ?>
<gpx xmlns="http://www.topografix.com/GPX/1/1" xmlns:xsi="http://www.w3.org/2001/XMLSchema-instance" xsi:schemaLocation="http://www.topografix.com/GPX/1/1 http://www.topografix.com/GPX/1/1/gpx.xsd" version="1.1" creator="VisuGPX - https://www.visugpx.com">
  <metadata>
    <name>2 boucles</name>
    <desc><![CDATA[2 boucles avec découverte de petits chemins très sympa]]></desc>
  </metadata>
  <trk>
    <name><![CDATA[Untitled]]></name>
    <trkseg>
      <trkpt lat="48.70794" lon="1.7526">
        <ele>173.39999389648</ele>
        <time>2011-11-17T12:27:03.000Z</time>
      </trkpt>
      <trkpt lat="48.70799" lon="1.75252">
        <ele>173.39999389648</ele>
        <time>2011-11-17T12:27:08.000Z</time>
      </trkpt>
      <trkpt lat="48.70799" lon="1.75251">
        <ele>173.39999389648</ele>
        <time>2011-11-17T12:27:10.000Z</time>
      </trkpt>
      <trkpt lat="48.70805" lon="1.75246">
        <ele>173.60000610352</ele>
        <time>2011-11-17T12:27:16.000Z</time>
      </trkpt>
      <trkpt lat="48.70808" lon="1.75235">
        <ele>173.60000610352</ele>
        <time>2011-11-17T12:27:23.000Z</time>
      </trkpt>
      <trkpt lat="48.70809" lon="1.75234">
        <ele>173.60000610352</ele>
        <time>2011-11-17T12:27:24.000Z</time>
      </trkpt>
      <trkpt lat="48.70813" lon="1.7522">
        <ele>173.60000610352</ele>
        <time>2011-11-17T12:27:31.000Z</time>
      </trkpt>
      <trkpt lat="48.70815" lon="1.75212">
        <ele>173.60000610352</ele>
        <time>2011-11-17T12:27:36.000Z</time>
      </trkpt>
      <trkpt lat="48.70821" lon="1.75199">
        <ele>173.80000305176</ele>
        <time>2011-11-17T12:27:45.000Z</time>
      </trkpt>
      <trkpt lat="48.70827" lon="1.75187">
        <ele>173.80000305176</ele>
        <time>2011-11-17T12:27:53.000Z</time>
      </trkpt>
      <trkpt lat="48.70832" lon="1.75175">
        <ele>173.80000305176</ele>
        <time>2011-11-17T12:28:01.000Z</time>
      </trkpt>
      <trkpt lat="48.70837" lon="1.75163">
        <ele>174</ele>
        <time>2011-11-17T12:28:09.000Z</time>
      </trkpt>
      <trkpt lat="48.70837" lon="1.75162">
        <ele>174</ele>
        <time>2011-11-17T12:28:10.000Z</time>
      </trkpt>
      <trkpt lat="48.70846" lon="1.75146">
        <ele>174</ele>
        <time>2011-11-17T12:28:21.000Z</time>
      </trkpt>
      <trkpt lat="48.70853" lon="1.75132">
        <ele>174</ele>
        <time>2011-11-17T12:28:30.000Z</time>
      </trkpt>
      <trkpt lat="48.70861" lon="1.75118">
        <ele>174</ele>
        <time>2011-11-17T12:28:40.000Z</time>
      </trkpt>
      <trkpt lat="48.70867" lon="1.75104">
        <ele>174</ele>
        <time>2011-11-17T12:28:49.000Z</time>
      </trkpt>
      <trkpt lat="48.70875" lon="1.75086">
        <ele>174</ele>
        <time>2011-11-17T12:28:59.000Z</time>
      </trkpt>
      <trkpt lat="48.70877" lon="1.75079">
        <ele>174</ele>
        <time>2011-11-17T12:29:03.000Z</time>
      </trkpt>
      <trkpt lat="48.70881" lon="1.75071">
        <ele>174</ele>
        <time>2011-11-17T12:29:08.000Z</time>
      </trkpt>
      <trkpt lat="48.70881" lon="1.75064">
        <ele>174.19999694824</ele>
        <time>2011-11-17T12:29:13.000Z</time>
      </trkpt>
      <trkpt lat="48.70881" lon="1.75063">
        <ele>174.19999694824</ele>
        <time>2011-11-17T12:29:14.000Z</time>
      </trkpt>
      <trkpt lat="48.70888" lon="1.75052">
        <ele>174.19999694824</ele>
        <time>2011-11-17T12:29:21.000Z</time>
      </trkpt>
      <trkpt lat="48.70893" lon="1.75042">
        <ele>174.39999389648</ele>
        <time>2011-11-17T12:29:28.000Z</time>
      </trkpt>
      <trkpt lat="48.709" lon="1.75027">
        <ele>174.60000610352</ele>
        <time>2011-11-17T12:29:38.000Z</time>
      </trkpt>
      <trkpt lat="48.70909" lon="1.75012">
        <ele>174.80000305176</ele>
        <time>2011-11-17T12:29:49.000Z</time>
      </trkpt>
      <trkpt lat="48.70916" lon="1.74999">
        <ele>174.80000305176</ele>
        <time>2011-11-17T12:29:58.000Z</time>
      </trkpt>
      <trkpt lat="48.70922" lon="1.74986">
        <ele>175</ele>
        <time>2011-11-17T12:30:06.000Z</time>
      </trkpt>
      <trkpt lat="48.70929" lon="1.74974">
        <ele>175.39999389648</ele>
        <time>2011-11-17T12:30:15.000Z</time>
      </trkpt>
      <trkpt lat="48.70935" lon="1.7496">
        <ele>175.60000610352</ele>
        <time>2011-11-17T12:30:24.000Z</time>
      </trkpt>
      <trkpt lat="48.70941" lon="1.7495">
        <ele>176</ele>
        <time>2011-11-17T12:30:31.000Z</time>
      </trkpt>
      <trkpt lat="48.70948" lon="1.74939">
        <ele>176.39999389648</ele>
        <time>2011-11-17T12:30:39.000Z</time>
      </trkpt>
      <trkpt lat="48.70948" lon="1.74932">
        <ele>176.39999389648</ele>
        <time>2011-11-17T12:30:42.000Z</time>
      </trkpt>
      <trkpt lat="48.70955" lon="1.74926">
        <ele>176.80000305176</ele>
        <time>2011-11-17T12:30:48.000Z</time>
      </trkpt>
      <trkpt lat="48.70961" lon="1.74919">
        <ele>177</ele>
        <time>2011-11-17T12:30:54.000Z</time>
      </trkpt>
      <trkpt lat="48.70964" lon="1.74915">
        <ele>177.19999694824</ele>
        <time>2011-11-17T12:30:57.000Z</time>
      </trkpt>
      <trkpt lat="48.70971" lon="1.74905">
        <ele>177.60000610352</ele>
        <time>2011-11-17T12:31:05.000Z</time>
      </trkpt>
      <trkpt lat="48.70973" lon="1.74902">
        <ele>177.80000305176</ele>
        <time>2011-11-17T12:31:07.000Z</time>
      </trkpt>
      <trkpt lat="48.70978" lon="1.74895">
        <ele>178</ele>
        <time>2011-11-17T12:31:12.000Z</time>
      </trkpt>
      <trkpt lat="48.70983" lon="1.74887">
        <ele>178.39999389648</ele>
        <time>2011-11-17T12:31:18.000Z</time>
      </trkpt>
      <trkpt lat="48.70988" lon="1.74879">
        <ele>178.60000610352</ele>
        <time>2011-11-17T12:31:24.000Z</time>
      </trkpt>
      <trkpt lat="48.70994" lon="1.74873">
        <ele>178.80000305176</ele>
        <time>2011-11-17T12:31:30.000Z</time>
      </trkpt>
      <trkpt lat="48.71001" lon="1.74864">
        <ele>178.80000305176</ele>
        <time>2011-11-17T12:31:37.000Z</time>
      </trkpt>
      <trkpt lat="48.71007" lon="1.74856">
        <ele>178.60000610352</ele>
        <time>2011-11-17T12:31:43.000Z</time>
      </trkpt>
      <trkpt lat="48.7101" lon="1.74846">
        <ele>178.39999389648</ele>
        <time>2011-11-17T12:31:49.000Z</time>
      </trkpt>
      <trkpt lat="48.71008" lon="1.7483">
        <ele>178.39999389648</ele>
        <time>2011-11-17T12:31:58.000Z</time>
      </trkpt>
      <trkpt lat="48.71003" lon="1.74825">
        <ele>178.60000610352</ele>
        <time>2011-11-17T12:32:03.000Z</time>
      </trkpt>
      <trkpt lat="48.70999" lon="1.74818">
        <ele>178.80000305176</ele>
        <time>2011-11-17T12:32:09.000Z</time>
      </trkpt>
      <trkpt lat="48.70994" lon="1.74811">
        <ele>178.60000610352</ele>
        <time>2011-11-17T12:32:15.000Z</time>
      </trkpt>
      <trkpt lat="48.70985" lon="1.74797">
        <ele>178.39999389648</ele>
        <time>2011-11-17T12:32:24.000Z</time>
      </trkpt>
      <trkpt lat="48.70976" lon="1.74786">
        <ele>178.19999694824</ele>
        <time>2011-11-17T12:32:33.000Z</time>
      </trkpt>
      <trkpt lat="48.70967" lon="1.74778">
        <ele>178.19999694824</ele>
        <time>2011-11-17T12:32:41.000Z</time>
      </trkpt>
      <trkpt lat="48.7096" lon="1.74768">
        <ele>178</ele>
        <time>2011-11-17T12:32:48.000Z</time>
      </trkpt>
      <trkpt lat="48.70952" lon="1.74758">
        <ele>178</ele>
        <time>2011-11-17T12:32:55.000Z</time>
      </trkpt>
      <trkpt lat="48.7094" lon="1.74743">
        <ele>177.80000305176</ele>
        <time>2011-11-17T12:33:06.000Z</time>
      </trkpt>
      <trkpt lat="48.70939" lon="1.74743">
        <ele>177.80000305176</ele>
        <time>2011-11-17T12:33:09.000Z</time>
      </trkpt>
      <trkpt lat="48.70933" lon="1.74737">
        <ele>177.60000610352</ele>
        <time>2011-11-17T12:33:22.000Z</time>
      </trkpt>
      <trkpt lat="48.70923" lon="1.74721">
        <ele>177.19999694824</ele>
        <time>2011-11-17T12:33:32.000Z</time>
      </trkpt>
      <trkpt lat="48.70914" lon="1.74709">
        <ele>177</ele>
        <time>2011-11-17T12:33:43.000Z</time>
      </trkpt>
      <trkpt lat="48.70906" lon="1.74697">
        <ele>176.80000305176</ele>
        <time>2011-11-17T12:33:53.000Z</time>
      </trkpt>
      <trkpt lat="48.70899" lon="1.74688">
        <ele>176.60000610352</ele>
        <time>2011-11-17T12:34:01.000Z</time>
      </trkpt>
      <trkpt lat="48.70896" lon="1.74686">
        <ele>176.39999389648</ele>
        <time>2011-11-17T12:34:07.000Z</time>
      </trkpt>
      <trkpt lat="48.70896" lon="1.74685">
        <ele>176.39999389648</ele>
        <time>2011-11-17T12:34:09.000Z</time>
      </trkpt>
      <trkpt lat="48.70885" lon="1.74671">
        <ele>176</ele>
        <time>2011-11-17T12:34:53.000Z</time>
      </trkpt>
      <trkpt lat="48.70882" lon="1.74664">
        <ele>175.80000305176</ele>
        <time>2011-11-17T12:34:56.000Z</time>
      </trkpt>
      <trkpt lat="48.70872" lon="1.74651">
        <ele>175.80000305176</ele>
        <time>2011-11-17T12:35:04.000Z</time>
      </trkpt>
      <trkpt lat="48.70864" lon="1.74642">
        <ele>175.80000305176</ele>
        <time>2011-11-17T12:35:11.000Z</time>
      </trkpt>
      <trkpt lat="48.7086" lon="1.74633">
        <ele>175.80000305176</ele>
        <time>2011-11-17T12:35:17.000Z</time>
      </trkpt>
      <trkpt lat="48.70853" lon="1.74624">
        <ele>175.80000305176</ele>
        <time>2011-11-17T12:35:24.000Z</time>
      </trkpt>
      <trkpt lat="48.70844" lon="1.74611">
        <ele>175.80000305176</ele>
        <time>2011-11-17T12:35:34.000Z</time>
      </trkpt>
      <trkpt lat="48.70834" lon="1.74597">
        <ele>175.80000305176</ele>
        <time>2011-11-17T12:35:44.000Z</time>
      </trkpt>
      <trkpt lat="48.70825" lon="1.74585">
        <ele>176</ele>
        <time>2011-11-17T12:35:53.000Z</time>
      </trkpt>
      <trkpt lat="48.70819" lon="1.74576">
        <ele>176</ele>
        <time>2011-11-17T12:36:00.000Z</time>
      </trkpt>
      <trkpt lat="48.70818" lon="1.74574">
        <ele>176</ele>
        <time>2011-11-17T12:36:02.000Z</time>
      </trkpt>
      <trkpt lat="48.70815" lon="1.74571">
        <ele>176.19999694824</ele>
        <time>2011-11-17T12:36:06.000Z</time>
      </trkpt>
      <trkpt lat="48.70812" lon="1.74567">
        <ele>176.19999694824</ele>
        <time>2011-11-17T12:36:09.000Z</time>
      </trkpt>
      <trkpt lat="48.70805" lon="1.74559">
        <ele>176.19999694824</ele>
        <time>2011-11-17T12:36:16.000Z</time>
      </trkpt>
      <trkpt lat="48.70799" lon="1.74552">
        <ele>176.39999389648</ele>
        <time>2011-11-17T12:36:22.000Z</time>
      </trkpt>
      <trkpt lat="48.70792" lon="1.74546">
        <ele>176.39999389648</ele>
        <time>2011-11-17T12:36:29.000Z</time>
      </trkpt>
      <trkpt lat="48.70791" lon="1.74545">
        <ele>176.39999389648</ele>
        <time>2011-11-17T12:36:30.000Z</time>
      </trkpt>
      <trkpt lat="48.70786" lon="1.74539">
        <ele>176.39999389648</ele>
        <time>2011-11-17T12:36:37.000Z</time>
      </trkpt>
      <trkpt lat="48.70786" lon="1.74539">
        <ele>176.39999389648</ele>
        <time>2011-11-17T12:36:38.000Z</time>
      </trkpt>
      <trkpt lat="48.70784" lon="1.74537">
        <ele>176.39999389648</ele>
        <time>2011-11-17T12:36:48.000Z</time>
      </trkpt>
      <trkpt lat="48.70783" lon="1.74536">
        <ele>176.60000610352</ele>
        <time>2011-11-17T12:36:49.000Z</time>
      </trkpt>
      <trkpt lat="48.70782" lon="1.74535">
        <ele>176.60000610352</ele>
        <time>2011-11-17T12:36:50.000Z</time>
      </trkpt>
      <trkpt lat="48.70777" lon="1.74529">
        <ele>176.60000610352</ele>
        <time>2011-11-17T12:36:55.000Z</time>
      </trkpt>
      <trkpt lat="48.70768" lon="1.74517">
        <ele>176.60000610352</ele>
        <time>2011-11-17T12:37:04.000Z</time>
      </trkpt>
      <trkpt lat="48.70763" lon="1.74511">
        <ele>176.80000305176</ele>
        <time>2011-11-17T12:37:10.000Z</time>
      </trkpt>
      <trkpt lat="48.70762" lon="1.7451">
        <ele>176.80000305176</ele>
        <time>2011-11-17T12:37:11.000Z</time>
      </trkpt>
      <trkpt lat="48.70759" lon="1.74507">
        <ele>176.80000305176</ele>
        <time>2011-11-17T12:37:15.000Z</time>
      </trkpt>
      <trkpt lat="48.70755" lon="1.74504">
        <ele>176.80000305176</ele>
        <time>2011-11-17T12:37:19.000Z</time>
      </trkpt>
      <trkpt lat="48.70752" lon="1.74497">
        <ele>177</ele>
        <time>2011-11-17T12:37:23.000Z</time>
      </trkpt>
      <trkpt lat="48.70745" lon="1.74491">
        <ele>177.19999694824</ele>
        <time>2011-11-17T12:37:29.000Z</time>
      </trkpt>
      <trkpt lat="48.70737" lon="1.74482">
        <ele>177.60000610352</ele>
        <time>2011-11-17T12:37:38.000Z</time>
      </trkpt>
      <trkpt lat="48.7073" lon="1.74474">
        <ele>178</ele>
        <time>2011-11-17T12:37:45.000Z</time>
      </trkpt>
      <trkpt lat="48.70732" lon="1.74472">
        <ele>178</ele>
        <time>2011-11-17T12:37:51.000Z</time>
      </trkpt>
      <trkpt lat="48.70732" lon="1.74471">
        <ele>177.80000305176</ele>
        <time>2011-11-17T12:37:54.000Z</time>
      </trkpt>
      <trkpt lat="48.70734" lon="1.74455">
        <ele>178</ele>
        <time>2011-11-17T12:38:33.000Z</time>
      </trkpt>
      <trkpt lat="48.70743" lon="1.74448">
        <ele>177.80000305176</ele>
        <time>2011-11-17T12:38:41.000Z</time>
      </trkpt>
      <trkpt lat="48.70748" lon="1.74444">
        <ele>177.60000610352</ele>
        <time>2011-11-17T12:38:46.000Z</time>
      </trkpt>
      <trkpt lat="48.70761" lon="1.74438">
        <ele>177.39999389648</ele>
        <time>2011-11-17T12:38:56.000Z</time>
      </trkpt>
      <trkpt lat="48.70768" lon="1.74433">
        <ele>177.39999389648</ele>
        <time>2011-11-17T12:39:02.000Z</time>
      </trkpt>
      <trkpt lat="48.70774" lon="1.7443">
        <ele>177.19999694824</ele>
        <time>2011-11-17T12:39:06.000Z</time>
      </trkpt>
      <trkpt lat="48.70783" lon="1.74425">
        <ele>177</ele>
        <time>2011-11-17T12:39:15.000Z</time>
      </trkpt>
      <trkpt lat="48.70789" lon="1.74421">
        <ele>177</ele>
        <time>2011-11-17T12:39:21.000Z</time>
      </trkpt>
      <trkpt lat="48.70796" lon="1.74416">
        <ele>176.80000305176</ele>
        <time>2011-11-17T12:39:28.000Z</time>
      </trkpt>
      <trkpt lat="48.70798" lon="1.74415">
        <ele>176.80000305176</ele>
        <time>2011-11-17T12:39:30.000Z</time>
      </trkpt>
      <trkpt lat="48.70807" lon="1.74409">
        <ele>176.60000610352</ele>
        <time>2011-11-17T12:39:38.000Z</time>
      </trkpt>
      <trkpt lat="48.70815" lon="1.74403">
        <ele>176.60000610352</ele>
        <time>2011-11-17T12:39:45.000Z</time>
      </trkpt>
      <trkpt lat="48.70817" lon="1.74403">
        <ele>176.39999389648</ele>
        <time>2011-11-17T12:39:47.000Z</time>
      </trkpt>
      <trkpt lat="48.70819" lon="1.74399">
        <ele>176.39999389648</ele>
        <time>2011-11-17T12:39:50.000Z</time>
      </trkpt>
      <trkpt lat="48.70825" lon="1.74395">
        <ele>176.39999389648</ele>
        <time>2011-11-17T12:39:55.000Z</time>
      </trkpt>
      <trkpt lat="48.70833" lon="1.74387">
        <ele>176.19999694824</ele>
        <time>2011-11-17T12:40:03.000Z</time>
      </trkpt>
      <trkpt lat="48.70839" lon="1.74378">
        <ele>176.19999694824</ele>
        <time>2011-11-17T12:40:10.000Z</time>
      </trkpt>
      <trkpt lat="48.70844" lon="1.74371">
        <ele>176.39999389648</ele>
        <time>2011-11-17T12:40:16.000Z</time>
      </trkpt>
      <trkpt lat="48.7085" lon="1.7436">
        <ele>176.39999389648</ele>
        <time>2011-11-17T12:40:24.000Z</time>
      </trkpt>
      <trkpt lat="48.70854" lon="1.74352">
        <ele>176.39999389648</ele>
        <time>2011-11-17T12:40:30.000Z</time>
      </trkpt>
      <trkpt lat="48.70855" lon="1.74349">
        <ele>176.39999389648</ele>
        <time>2011-11-17T12:40:32.000Z</time>
      </trkpt>
      <trkpt lat="48.70863" lon="1.74336">
        <ele>176.60000610352</ele>
        <time>2011-11-17T12:40:42.000Z</time>
      </trkpt>
      <trkpt lat="48.70868" lon="1.74328">
        <ele>176.80000305176</ele>
        <time>2011-11-17T12:40:48.000Z</time>
      </trkpt>
      <trkpt lat="48.70875" lon="1.74318">
        <ele>177.19999694824</ele>
        <time>2011-11-17T12:40:56.000Z</time>
      </trkpt>
      <trkpt lat="48.70875" lon="1.74316">
        <ele>177.19999694824</ele>
        <time>2011-11-17T12:40:57.000Z</time>
      </trkpt>
      <trkpt lat="48.70881" lon="1.74309">
        <ele>177.60000610352</ele>
        <time>2011-11-17T12:41:03.000Z</time>
      </trkpt>
      <trkpt lat="48.70883" lon="1.74306">
        <ele>177.60000610352</ele>
        <time>2011-11-17T12:41:06.000Z</time>
      </trkpt>
      <trkpt lat="48.70886" lon="1.74301">
        <ele>178</ele>
        <time>2011-11-17T12:41:10.000Z</time>
      </trkpt>
      <trkpt lat="48.70888" lon="1.74294">
        <ele>178.19999694824</ele>
        <time>2011-11-17T12:41:14.000Z</time>
      </trkpt>
      <trkpt lat="48.70893" lon="1.74285">
        <ele>178.80000305176</ele>
        <time>2011-11-17T12:41:21.000Z</time>
      </trkpt>
      <trkpt lat="48.70894" lon="1.7428">
        <ele>179</ele>
        <time>2011-11-17T12:41:24.000Z</time>
      </trkpt>
      <trkpt lat="48.70896" lon="1.7427">
        <ele>179.60000610352</ele>
        <time>2011-11-17T12:41:29.000Z</time>
      </trkpt>
      <trkpt lat="48.70903" lon="1.74258">
        <ele>180.19999694824</ele>
        <time>2011-11-17T12:41:37.000Z</time>
      </trkpt>
      <trkpt lat="48.70906" lon="1.74252">
        <ele>180.60000610352</ele>
        <time>2011-11-17T12:41:43.000Z</time>
      </trkpt>
      <trkpt lat="48.70906" lon="1.74251">
        <ele>180.80000305176</ele>
        <time>2011-11-17T12:41:46.000Z</time>
      </trkpt>
      <trkpt lat="48.70907" lon="1.74237">
        <ele>181.19999694824</ele>
        <time>2011-11-17T12:43:27.000Z</time>
      </trkpt>
      <trkpt lat="48.70907" lon="1.74237">
        <ele>181.19999694824</ele>
        <time>2011-11-17T12:43:28.000Z</time>
      </trkpt>
      <trkpt lat="48.70905" lon="1.74236">
        <ele>181.19999694824</ele>
        <time>2011-11-17T12:43:32.000Z</time>
      </trkpt>
      <trkpt lat="48.70904" lon="1.74234">
        <ele>181.19999694824</ele>
        <time>2011-11-17T12:43:35.000Z</time>
      </trkpt>
      <trkpt lat="48.70904" lon="1.74234">
        <ele>181.19999694824</ele>
        <time>2011-11-17T12:43:46.000Z</time>
      </trkpt>
      <trkpt lat="48.70903" lon="1.74234">
        <ele>181.19999694824</ele>
        <time>2011-11-17T12:43:48.000Z</time>
      </trkpt>
      <trkpt lat="48.70931" lon="1.74154">
        <ele>182.39999389648</ele>
        <time>2011-11-17T12:46:20.000Z</time>
      </trkpt>
      <trkpt lat="48.7093" lon="1.74146">
        <ele>182.39999389648</ele>
        <time>2011-11-17T12:46:24.000Z</time>
      </trkpt>
      <trkpt lat="48.70933" lon="1.74135">
        <ele>182.39999389648</ele>
        <time>2011-11-17T12:46:31.000Z</time>
      </trkpt>
      <trkpt lat="48.70934" lon="1.74127">
        <ele>182.39999389648</ele>
        <time>2011-11-17T12:46:35.000Z</time>
      </trkpt>
      <trkpt lat="48.70936" lon="1.74112">
        <ele>182.60000610352</ele>
        <time>2011-11-17T12:46:43.000Z</time>
      </trkpt>
      <trkpt lat="48.70939" lon="1.74099">
        <ele>182.60000610352</ele>
        <time>2011-11-17T12:46:50.000Z</time>
      </trkpt>
      <trkpt lat="48.70941" lon="1.7409">
        <ele>182.60000610352</ele>
        <time>2011-11-17T12:46:57.000Z</time>
      </trkpt>
      <trkpt lat="48.70942" lon="1.74087">
        <ele>182.60000610352</ele>
        <time>2011-11-17T12:46:59.000Z</time>
      </trkpt>
      <trkpt lat="48.70944" lon="1.74075">
        <ele>182.60000610352</ele>
        <time>2011-11-17T12:47:06.000Z</time>
      </trkpt>
      <trkpt lat="48.70946" lon="1.74066">
        <ele>182.60000610352</ele>
        <time>2011-11-17T12:47:11.000Z</time>
      </trkpt>
      <trkpt lat="48.70949" lon="1.74051">
        <ele>182.60000610352</ele>
        <time>2011-11-17T12:47:20.000Z</time>
      </trkpt>
      <trkpt lat="48.70953" lon="1.74038">
        <ele>182.39999389648</ele>
        <time>2011-11-17T12:47:28.000Z</time>
      </trkpt>
      <trkpt lat="48.70957" lon="1.74026">
        <ele>182.39999389648</ele>
        <time>2011-11-17T12:47:36.000Z</time>
      </trkpt>
      <trkpt lat="48.70962" lon="1.74016">
        <ele>182.39999389648</ele>
        <time>2011-11-17T12:47:43.000Z</time>
      </trkpt>
      <trkpt lat="48.70963" lon="1.74012">
        <ele>182.39999389648</ele>
        <time>2011-11-17T12:47:46.000Z</time>
      </trkpt>
      <trkpt lat="48.70963" lon="1.7401">
        <ele>182.39999389648</ele>
        <time>2011-11-17T12:47:49.000Z</time>
      </trkpt>
      <trkpt lat="48.70964" lon="1.73995">
        <ele>182.39999389648</ele>
        <time>2011-11-17T12:48:15.000Z</time>
      </trkpt>
      <trkpt lat="48.70968" lon="1.73982">
        <ele>182.60000610352</ele>
        <time>2011-11-17T12:48:22.000Z</time>
      </trkpt>
      <trkpt lat="48.70973" lon="1.73963">
        <ele>183.19999694824</ele>
        <time>2011-11-17T12:48:33.000Z</time>
      </trkpt>
      <trkpt lat="48.70974" lon="1.73946">
        <ele>183.60000610352</ele>
        <time>2011-11-17T12:48:42.000Z</time>
      </trkpt>
      <trkpt lat="48.70976" lon="1.73939">
        <ele>183.80000305176</ele>
        <time>2011-11-17T12:48:47.000Z</time>
      </trkpt>
      <trkpt lat="48.70978" lon="1.73932">
        <ele>184</ele>
        <time>2011-11-17T12:48:51.000Z</time>
      </trkpt>
      <trkpt lat="48.7098" lon="1.73918">
        <ele>184.39999389648</ele>
        <time>2011-11-17T12:48:59.000Z</time>
      </trkpt>
      <trkpt lat="48.70983" lon="1.73903">
        <ele>184.19999694824</ele>
        <time>2011-11-17T12:49:07.000Z</time>
      </trkpt>
      <trkpt lat="48.70987" lon="1.73892">
        <ele>184</ele>
        <time>2011-11-17T12:49:14.000Z</time>
      </trkpt>
      <trkpt lat="48.70988" lon="1.73877">
        <ele>183.60000610352</ele>
        <time>2011-11-17T12:49:22.000Z</time>
      </trkpt>
      <trkpt lat="48.70993" lon="1.73862">
        <ele>183.39999389648</ele>
        <time>2011-11-17T12:49:31.000Z</time>
      </trkpt>
      <trkpt lat="48.70995" lon="1.73851">
        <ele>183.19999694824</ele>
        <time>2011-11-17T12:49:37.000Z</time>
      </trkpt>
      <trkpt lat="48.70998" lon="1.73835">
        <ele>182.80000305176</ele>
        <time>2011-11-17T12:49:46.000Z</time>
      </trkpt>
      <trkpt lat="48.71002" lon="1.73818">
        <ele>182.60000610352</ele>
        <time>2011-11-17T12:49:56.000Z</time>
      </trkpt>
      <trkpt lat="48.71007" lon="1.73808">
        <ele>182.19999694824</ele>
        <time>2011-11-17T12:50:03.000Z</time>
      </trkpt>
      <trkpt lat="48.71013" lon="1.73801">
        <ele>182.19999694824</ele>
        <time>2011-11-17T12:50:11.000Z</time>
      </trkpt>
      <trkpt lat="48.7102" lon="1.73795">
        <ele>182</ele>
        <time>2011-11-17T12:50:18.000Z</time>
      </trkpt>
      <trkpt lat="48.71026" lon="1.73788">
        <ele>182</ele>
        <time>2011-11-17T12:50:24.000Z</time>
      </trkpt>
      <trkpt lat="48.71035" lon="1.73777">
        <ele>182</ele>
        <time>2011-11-17T12:50:33.000Z</time>
      </trkpt>
      <trkpt lat="48.71045" lon="1.73766">
        <ele>182</ele>
        <time>2011-11-17T12:50:43.000Z</time>
      </trkpt>
      <trkpt lat="48.71051" lon="1.73758">
        <ele>182.19999694824</ele>
        <time>2011-11-17T12:50:50.000Z</time>
      </trkpt>
      <trkpt lat="48.71058" lon="1.73748">
        <ele>182.19999694824</ele>
        <time>2011-11-17T12:50:58.000Z</time>
      </trkpt>
      <trkpt lat="48.71062" lon="1.73745">
        <ele>182.19999694824</ele>
        <time>2011-11-17T12:51:03.000Z</time>
      </trkpt>
      <trkpt lat="48.71069" lon="1.73741">
        <ele>182.19999694824</ele>
        <time>2011-11-17T12:51:09.000Z</time>
      </trkpt>
      <trkpt lat="48.71076" lon="1.73737">
        <ele>182.19999694824</ele>
        <time>2011-11-17T12:51:15.000Z</time>
      </trkpt>
      <trkpt lat="48.71083" lon="1.73729">
        <ele>182</ele>
        <time>2011-11-17T12:51:22.000Z</time>
      </trkpt>
      <trkpt lat="48.71089" lon="1.73721">
        <ele>181.60000610352</ele>
        <time>2011-11-17T12:51:29.000Z</time>
      </trkpt>
      <trkpt lat="48.71097" lon="1.73712">
        <ele>181.39999389648</ele>
        <time>2011-11-17T12:51:36.000Z</time>
      </trkpt>
      <trkpt lat="48.71106" lon="1.73704">
        <ele>181.39999389648</ele>
        <time>2011-11-17T12:51:43.000Z</time>
      </trkpt>
      <trkpt lat="48.71114" lon="1.737">
        <ele>181.60000610352</ele>
        <time>2011-11-17T12:51:49.000Z</time>
      </trkpt>
      <trkpt lat="48.71119" lon="1.73694">
        <ele>181.60000610352</ele>
        <time>2011-11-17T12:51:56.000Z</time>
      </trkpt>
      <trkpt lat="48.71128" lon="1.73686">
        <ele>181.60000610352</ele>
        <time>2011-11-17T12:52:03.000Z</time>
      </trkpt>
      <trkpt lat="48.71134" lon="1.73678">
        <ele>181.60000610352</ele>
        <time>2011-11-17T12:52:10.000Z</time>
      </trkpt>
      <trkpt lat="48.71143" lon="1.73667">
        <ele>181.80000305176</ele>
        <time>2011-11-17T12:52:19.000Z</time>
      </trkpt>
      <trkpt lat="48.71151" lon="1.73659">
        <ele>182</ele>
        <time>2011-11-17T12:52:27.000Z</time>
      </trkpt>
      <trkpt lat="48.71158" lon="1.73654">
        <ele>182</ele>
        <time>2011-11-17T12:52:34.000Z</time>
      </trkpt>
      <trkpt lat="48.71158" lon="1.73653">
        <ele>182</ele>
        <time>2011-11-17T12:52:35.000Z</time>
      </trkpt>
      <trkpt lat="48.71167" lon="1.73643">
        <ele>182</ele>
        <time>2011-11-17T12:52:45.000Z</time>
      </trkpt>
      <trkpt lat="48.71175" lon="1.73633">
        <ele>182</ele>
        <time>2011-11-17T12:52:53.000Z</time>
      </trkpt>
      <trkpt lat="48.71181" lon="1.73626">
        <ele>181.80000305176</ele>
        <time>2011-11-17T12:53:00.000Z</time>
      </trkpt>
      <trkpt lat="48.7119" lon="1.73616">
        <ele>182</ele>
        <time>2011-11-17T12:53:08.000Z</time>
      </trkpt>
      <trkpt lat="48.71197" lon="1.73606">
        <ele>182</ele>
        <time>2011-11-17T12:53:15.000Z</time>
      </trkpt>
      <trkpt lat="48.71205" lon="1.73607">
        <ele>182.39999389648</ele>
        <time>2011-11-17T12:53:22.000Z</time>
      </trkpt>
      <trkpt lat="48.71207" lon="1.73609">
        <ele>182.39999389648</ele>
        <time>2011-11-17T12:53:24.000Z</time>
      </trkpt>
      <trkpt lat="48.71213" lon="1.73616">
        <ele>182.80000305176</ele>
        <time>2011-11-17T12:53:30.000Z</time>
      </trkpt>
      <trkpt lat="48.71221" lon="1.73618">
        <ele>183</ele>
        <time>2011-11-17T12:53:37.000Z</time>
      </trkpt>
      <trkpt lat="48.71228" lon="1.73619">
        <ele>183.19999694824</ele>
        <time>2011-11-17T12:53:43.000Z</time>
      </trkpt>
      <trkpt lat="48.71233" lon="1.7362">
        <ele>183.39999389648</ele>
        <time>2011-11-17T12:53:48.000Z</time>
      </trkpt>
      <trkpt lat="48.7124" lon="1.73618">
        <ele>183.80000305176</ele>
        <time>2011-11-17T12:53:56.000Z</time>
      </trkpt>
      <trkpt lat="48.71248" lon="1.73617">
        <ele>184</ele>
        <time>2011-11-17T12:54:04.000Z</time>
      </trkpt>
      <trkpt lat="48.71254" lon="1.73617">
        <ele>183.39999389648</ele>
        <time>2011-11-17T12:54:11.000Z</time>
      </trkpt>
      <trkpt lat="48.71259" lon="1.73614">
        <ele>182.60000610352</ele>
        <time>2011-11-17T12:54:18.000Z</time>
      </trkpt>
      <trkpt lat="48.7126" lon="1.73614">
        <ele>182.39999389648</ele>
        <time>2011-11-17T12:54:21.000Z</time>
      </trkpt>
      <trkpt lat="48.71277" lon="1.73599">
        <ele>180</ele>
        <time>2011-11-17T12:54:44.000Z</time>
      </trkpt>
      <trkpt lat="48.71282" lon="1.73591">
        <ele>179.39999389648</ele>
        <time>2011-11-17T12:54:50.000Z</time>
      </trkpt>
      <trkpt lat="48.71286" lon="1.73587">
        <ele>178.80000305176</ele>
        <time>2011-11-17T12:54:54.000Z</time>
      </trkpt>
      <trkpt lat="48.71288" lon="1.73586">
        <ele>178.60000610352</ele>
        <time>2011-11-17T12:54:56.000Z</time>
      </trkpt>
      <trkpt lat="48.71291" lon="1.73584">
        <ele>178</ele>
        <time>2011-11-17T12:55:00.000Z</time>
      </trkpt>
      <trkpt lat="48.71294" lon="1.73577">
        <ele>177.80000305176</ele>
        <time>2011-11-17T12:55:04.000Z</time>
      </trkpt>
      <trkpt lat="48.71297" lon="1.73573">
        <ele>177.39999389648</ele>
        <time>2011-11-17T12:55:07.000Z</time>
      </trkpt>
      <trkpt lat="48.71298" lon="1.7357">
        <ele>177.19999694824</ele>
        <time>2011-11-17T12:55:09.000Z</time>
      </trkpt>
      <trkpt lat="48.713" lon="1.73563">
        <ele>177.19999694824</ele>
        <time>2011-11-17T12:55:15.000Z</time>
      </trkpt>
      <trkpt lat="48.713" lon="1.73555">
        <ele>177.19999694824</ele>
        <time>2011-11-17T12:55:20.000Z</time>
      </trkpt>
      <trkpt lat="48.71306" lon="1.73546">
        <ele>177</ele>
        <time>2011-11-17T12:55:27.000Z</time>
      </trkpt>
      <trkpt lat="48.71307" lon="1.73543">
        <ele>176.80000305176</ele>
        <time>2011-11-17T12:55:32.000Z</time>
      </trkpt>
      <trkpt lat="48.71314" lon="1.73538">
        <ele>176.19999694824</ele>
        <time>2011-11-17T12:55:40.000Z</time>
      </trkpt>
      <trkpt lat="48.71318" lon="1.73538">
        <ele>175.80000305176</ele>
        <time>2011-11-17T12:55:46.000Z</time>
      </trkpt>
      <trkpt lat="48.71322" lon="1.73534">
        <ele>175.60000610352</ele>
        <time>2011-11-17T12:55:51.000Z</time>
      </trkpt>
      <trkpt lat="48.71328" lon="1.7353">
        <ele>175.19999694824</ele>
        <time>2011-11-17T12:55:58.000Z</time>
      </trkpt>
      <trkpt lat="48.71333" lon="1.73526">
        <ele>175</ele>
        <time>2011-11-17T12:56:04.000Z</time>
      </trkpt>
      <trkpt lat="48.7134" lon="1.73531">
        <ele>173.80000305176</ele>
        <time>2011-11-17T12:56:11.000Z</time>
      </trkpt>
      <trkpt lat="48.71342" lon="1.73534">
        <ele>173.39999389648</ele>
        <time>2011-11-17T12:56:13.000Z</time>
      </trkpt>
      <trkpt lat="48.71344" lon="1.73535">
        <ele>173.19999694824</ele>
        <time>2011-11-17T12:56:15.000Z</time>
      </trkpt>
      <trkpt lat="48.71346" lon="1.73538">
        <ele>172.60000610352</ele>
        <time>2011-11-17T12:56:19.000Z</time>
      </trkpt>
      <trkpt lat="48.71354" lon="1.73544">
        <ele>171.19999694824</ele>
        <time>2011-11-17T12:56:28.000Z</time>
      </trkpt>
      <trkpt lat="48.71358" lon="1.73548">
        <ele>170.60000610352</ele>
        <time>2011-11-17T12:56:34.000Z</time>
      </trkpt>
      <trkpt lat="48.71363" lon="1.73553">
        <ele>169.60000610352</ele>
        <time>2011-11-17T12:56:39.000Z</time>
      </trkpt>
      <trkpt lat="48.71369" lon="1.7356">
        <ele>168.39999389648</ele>
        <time>2011-11-17T12:56:46.000Z</time>
      </trkpt>
      <trkpt lat="48.71371" lon="1.73563">
        <ele>168</ele>
        <time>2011-11-17T12:56:48.000Z</time>
      </trkpt>
      <trkpt lat="48.71374" lon="1.73566">
        <ele>167.39999389648</ele>
        <time>2011-11-17T12:56:52.000Z</time>
      </trkpt>
      <trkpt lat="48.71381" lon="1.73575">
        <ele>166.19999694824</ele>
        <time>2011-11-17T12:57:00.000Z</time>
      </trkpt>
      <trkpt lat="48.7139" lon="1.7358">
        <ele>165</ele>
        <time>2011-11-17T12:57:08.000Z</time>
      </trkpt>
      <trkpt lat="48.71398" lon="1.73581">
        <ele>164</ele>
        <time>2011-11-17T12:57:15.000Z</time>
      </trkpt>
      <trkpt lat="48.71399" lon="1.73581">
        <ele>164</ele>
        <time>2011-11-17T12:57:17.000Z</time>
      </trkpt>
      <trkpt lat="48.71406" lon="1.73577">
        <ele>163.39999389648</ele>
        <time>2011-11-17T12:57:23.000Z</time>
      </trkpt>
      <trkpt lat="48.71418" lon="1.73575">
        <ele>162.19999694824</ele>
        <time>2011-11-17T12:57:33.000Z</time>
      </trkpt>
      <trkpt lat="48.71429" lon="1.73574">
        <ele>161.19999694824</ele>
        <time>2011-11-17T12:57:42.000Z</time>
      </trkpt>
      <trkpt lat="48.71433" lon="1.73574">
        <ele>160.80000305176</ele>
        <time>2011-11-17T12:57:46.000Z</time>
      </trkpt>
      <trkpt lat="48.71444" lon="1.73571">
        <ele>159.80000305176</ele>
        <time>2011-11-17T12:57:55.000Z</time>
      </trkpt>
      <trkpt lat="48.71451" lon="1.73568">
        <ele>159.19999694824</ele>
        <time>2011-11-17T12:58:02.000Z</time>
      </trkpt>
      <trkpt lat="48.71456" lon="1.73566">
        <ele>158.80000305176</ele>
        <time>2011-11-17T12:58:08.000Z</time>
      </trkpt>
      <trkpt lat="48.71465" lon="1.73561">
        <ele>157.80000305176</ele>
        <time>2011-11-17T12:58:15.000Z</time>
      </trkpt>
      <trkpt lat="48.71473" lon="1.73559">
        <ele>157</ele>
        <time>2011-11-17T12:58:22.000Z</time>
      </trkpt>
      <trkpt lat="48.71474" lon="1.73559">
        <ele>156.80000305176</ele>
        <time>2011-11-17T12:58:25.000Z</time>
      </trkpt>
      <trkpt lat="48.7148" lon="1.73557">
        <ele>156.19999694824</ele>
        <time>2011-11-17T12:58:35.000Z</time>
      </trkpt>
      <trkpt lat="48.71489" lon="1.73556">
        <ele>155.19999694824</ele>
        <time>2011-11-17T12:58:41.000Z</time>
      </trkpt>
      <trkpt lat="48.71499" lon="1.73552">
        <ele>153.80000305176</ele>
        <time>2011-11-17T12:58:50.000Z</time>
      </trkpt>
      <trkpt lat="48.7151" lon="1.73551">
        <ele>152.60000610352</ele>
        <time>2011-11-17T12:58:59.000Z</time>
      </trkpt>
      <trkpt lat="48.71516" lon="1.73554">
        <ele>152</ele>
        <time>2011-11-17T12:59:04.000Z</time>
      </trkpt>
      <trkpt lat="48.71524" lon="1.73551">
        <ele>151</ele>
        <time>2011-11-17T12:59:11.000Z</time>
      </trkpt>
      <trkpt lat="48.71527" lon="1.73551">
        <ele>150.80000305176</ele>
        <time>2011-11-17T12:59:13.000Z</time>
      </trkpt>
      <trkpt lat="48.71538" lon="1.7355">
        <ele>149.39999389648</ele>
        <time>2011-11-17T12:59:23.000Z</time>
      </trkpt>
      <trkpt lat="48.71545" lon="1.73548">
        <ele>148.60000610352</ele>
        <time>2011-11-17T12:59:31.000Z</time>
      </trkpt>
      <trkpt lat="48.71557" lon="1.73545">
        <ele>147.39999389648</ele>
        <time>2011-11-17T12:59:40.000Z</time>
      </trkpt>
      <trkpt lat="48.71565" lon="1.73541">
        <ele>146.39999389648</ele>
        <time>2011-11-17T12:59:47.000Z</time>
      </trkpt>
      <trkpt lat="48.71575" lon="1.73538">
        <ele>145.19999694824</ele>
        <time>2011-11-17T12:59:55.000Z</time>
      </trkpt>
      <trkpt lat="48.71588" lon="1.73536">
        <ele>144</ele>
        <time>2011-11-17T13:00:06.000Z</time>
      </trkpt>
      <trkpt lat="48.71592" lon="1.73534">
        <ele>143.80000305176</ele>
        <time>2011-11-17T13:00:12.000Z</time>
      </trkpt>
      <trkpt lat="48.716" lon="1.73535">
        <ele>143.39999389648</ele>
        <time>2011-11-17T13:00:22.000Z</time>
      </trkpt>
      <trkpt lat="48.7161" lon="1.73532">
        <ele>142.80000305176</ele>
        <time>2011-11-17T13:00:29.000Z</time>
      </trkpt>
      <trkpt lat="48.71623" lon="1.73528">
        <ele>142.19999694824</ele>
        <time>2011-11-17T13:00:40.000Z</time>
      </trkpt>
      <trkpt lat="48.71632" lon="1.73523">
        <ele>141.60000610352</ele>
        <time>2011-11-17T13:00:49.000Z</time>
      </trkpt>
      <trkpt lat="48.71641" lon="1.73521">
        <ele>141.19999694824</ele>
        <time>2011-11-17T13:00:57.000Z</time>
      </trkpt>
      <trkpt lat="48.71651" lon="1.7352">
        <ele>140.80000305176</ele>
        <time>2011-11-17T13:01:05.000Z</time>
      </trkpt>
      <trkpt lat="48.71653" lon="1.7352">
        <ele>140.60000610352</ele>
        <time>2011-11-17T13:01:07.000Z</time>
      </trkpt>
      <trkpt lat="48.71658" lon="1.73518">
        <ele>140.39999389648</ele>
        <time>2011-11-17T13:01:12.000Z</time>
      </trkpt>
      <trkpt lat="48.71661" lon="1.73516">
        <ele>140.19999694824</ele>
        <time>2011-11-17T13:01:15.000Z</time>
      </trkpt>
      <trkpt lat="48.71666" lon="1.73514">
        <ele>140</ele>
        <time>2011-11-17T13:01:20.000Z</time>
      </trkpt>
      <trkpt lat="48.71676" lon="1.73513">
        <ele>139.60000610352</ele>
        <time>2011-11-17T13:01:28.000Z</time>
      </trkpt>
      <trkpt lat="48.71684" lon="1.7351">
        <ele>139.39999389648</ele>
        <time>2011-11-17T13:01:35.000Z</time>
      </trkpt>
      <trkpt lat="48.71692" lon="1.73509">
        <ele>139</ele>
        <time>2011-11-17T13:01:42.000Z</time>
      </trkpt>
      <trkpt lat="48.717" lon="1.73508">
        <ele>138.80000305176</ele>
        <time>2011-11-17T13:01:48.000Z</time>
      </trkpt>
      <trkpt lat="48.71707" lon="1.73508">
        <ele>138.60000610352</ele>
        <time>2011-11-17T13:01:54.000Z</time>
      </trkpt>
      <trkpt lat="48.71715" lon="1.73505">
        <ele>138.19999694824</ele>
        <time>2011-11-17T13:01:59.000Z</time>
      </trkpt>
      <trkpt lat="48.71723" lon="1.73504">
        <ele>138</ele>
        <time>2011-11-17T13:02:05.000Z</time>
      </trkpt>
      <trkpt lat="48.71733" lon="1.73502">
        <ele>137.60000610352</ele>
        <time>2011-11-17T13:02:12.000Z</time>
      </trkpt>
      <trkpt lat="48.71739" lon="1.73501">
        <ele>137.39999389648</ele>
        <time>2011-11-17T13:02:17.000Z</time>
      </trkpt>
      <trkpt lat="48.71746" lon="1.73498">
        <ele>137</ele>
        <time>2011-11-17T13:02:24.000Z</time>
      </trkpt>
      <trkpt lat="48.7175" lon="1.73491">
        <ele>136.80000305176</ele>
        <time>2011-11-17T13:02:31.000Z</time>
      </trkpt>
      <trkpt lat="48.71754" lon="1.73484">
        <ele>136.80000305176</ele>
        <time>2011-11-17T13:02:37.000Z</time>
      </trkpt>
      <trkpt lat="48.71754" lon="1.73479">
        <ele>136.80000305176</ele>
        <time>2011-11-17T13:02:40.000Z</time>
      </trkpt>
      <trkpt lat="48.71752" lon="1.73467">
        <ele>136.80000305176</ele>
        <time>2011-11-17T13:02:47.000Z</time>
      </trkpt>
      <trkpt lat="48.71748" lon="1.73452">
        <ele>137</ele>
        <time>2011-11-17T13:02:56.000Z</time>
      </trkpt>
      <trkpt lat="48.71745" lon="1.73438">
        <ele>137</ele>
        <time>2011-11-17T13:03:03.000Z</time>
      </trkpt>
      <trkpt lat="48.71744" lon="1.73422">
        <ele>137.19999694824</ele>
        <time>2011-11-17T13:03:11.000Z</time>
      </trkpt>
      <trkpt lat="48.71741" lon="1.73407">
        <ele>137</ele>
        <time>2011-11-17T13:03:19.000Z</time>
      </trkpt>
      <trkpt lat="48.71736" lon="1.73392">
        <ele>136.80000305176</ele>
        <time>2011-11-17T13:03:28.000Z</time>
      </trkpt>
      <trkpt lat="48.71733" lon="1.73379">
        <ele>136.60000610352</ele>
        <time>2011-11-17T13:03:35.000Z</time>
      </trkpt>
      <trkpt lat="48.71727" lon="1.73361">
        <ele>136.39999389648</ele>
        <time>2011-11-17T13:03:45.000Z</time>
      </trkpt>
      <trkpt lat="48.71722" lon="1.7335">
        <ele>136.39999389648</ele>
        <time>2011-11-17T13:03:53.000Z</time>
      </trkpt>
      <trkpt lat="48.71717" lon="1.73336">
        <ele>136.19999694824</ele>
        <time>2011-11-17T13:04:01.000Z</time>
      </trkpt>
      <trkpt lat="48.71715" lon="1.7332">
        <ele>136</ele>
        <time>2011-11-17T13:04:10.000Z</time>
      </trkpt>
      <trkpt lat="48.71713" lon="1.733">
        <ele>136</ele>
        <time>2011-11-17T13:04:21.000Z</time>
      </trkpt>
      <trkpt lat="48.71713" lon="1.73298">
        <ele>136</ele>
        <time>2011-11-17T13:04:22.000Z</time>
      </trkpt>
      <trkpt lat="48.71712" lon="1.73294">
        <ele>136</ele>
        <time>2011-11-17T13:04:26.000Z</time>
      </trkpt>
      <trkpt lat="48.7171" lon="1.7328">
        <ele>136</ele>
        <time>2011-11-17T13:04:43.000Z</time>
      </trkpt>
      <trkpt lat="48.71708" lon="1.73264">
        <ele>136</ele>
        <time>2011-11-17T13:04:50.000Z</time>
      </trkpt>
      <trkpt lat="48.71708" lon="1.73248">
        <ele>136</ele>
        <time>2011-11-17T13:04:59.000Z</time>
      </trkpt>
      <trkpt lat="48.71707" lon="1.73232">
        <ele>135.80000305176</ele>
        <time>2011-11-17T13:05:08.000Z</time>
      </trkpt>
      <trkpt lat="48.71704" lon="1.73212">
        <ele>135.80000305176</ele>
        <time>2011-11-17T13:05:19.000Z</time>
      </trkpt>
      <trkpt lat="48.71701" lon="1.73193">
        <ele>135.80000305176</ele>
        <time>2011-11-17T13:05:29.000Z</time>
      </trkpt>
      <trkpt lat="48.71698" lon="1.73179">
        <ele>135.80000305176</ele>
        <time>2011-11-17T13:05:37.000Z</time>
      </trkpt>
      <trkpt lat="48.71696" lon="1.73163">
        <ele>135.80000305176</ele>
        <time>2011-11-17T13:05:46.000Z</time>
      </trkpt>
      <trkpt lat="48.71693" lon="1.73147">
        <ele>136.39999389648</ele>
        <time>2011-11-17T13:05:55.000Z</time>
      </trkpt>
      <trkpt lat="48.7169" lon="1.73131">
        <ele>136.80000305176</ele>
        <time>2011-11-17T13:06:03.000Z</time>
      </trkpt>
      <trkpt lat="48.71688" lon="1.73115">
        <ele>137.19999694824</ele>
        <time>2011-11-17T13:06:11.000Z</time>
      </trkpt>
      <trkpt lat="48.71685" lon="1.73104">
        <ele>137.60000610352</ele>
        <time>2011-11-17T13:06:17.000Z</time>
      </trkpt>
      <trkpt lat="48.71683" lon="1.73089">
        <ele>138</ele>
        <time>2011-11-17T13:06:25.000Z</time>
      </trkpt>
      <trkpt lat="48.71681" lon="1.73076">
        <ele>138</ele>
        <time>2011-11-17T13:06:32.000Z</time>
      </trkpt>
      <trkpt lat="48.71679" lon="1.7306">
        <ele>138</ele>
        <time>2011-11-17T13:06:40.000Z</time>
      </trkpt>
      <trkpt lat="48.71677" lon="1.73045">
        <ele>137.80000305176</ele>
        <time>2011-11-17T13:06:48.000Z</time>
      </trkpt>
      <trkpt lat="48.71673" lon="1.73026">
        <ele>137.80000305176</ele>
        <time>2011-11-17T13:06:57.000Z</time>
      </trkpt>
      <trkpt lat="48.71671" lon="1.73011">
        <ele>137.80000305176</ele>
        <time>2011-11-17T13:07:05.000Z</time>
      </trkpt>
      <trkpt lat="48.71668" lon="1.72994">
        <ele>137.80000305176</ele>
        <time>2011-11-17T13:07:15.000Z</time>
      </trkpt>
      <trkpt lat="48.71659" lon="1.72988">
        <ele>138.19999694824</ele>
        <time>2011-11-17T13:07:23.000Z</time>
      </trkpt>
      <trkpt lat="48.7165" lon="1.72997">
        <ele>138.60000610352</ele>
        <time>2011-11-17T13:07:31.000Z</time>
      </trkpt>
      <trkpt lat="48.71645" lon="1.73008">
        <ele>139</ele>
        <time>2011-11-17T13:07:37.000Z</time>
      </trkpt>
      <trkpt lat="48.71638" lon="1.73026">
        <ele>139.39999389648</ele>
        <time>2011-11-17T13:07:46.000Z</time>
      </trkpt>
      <trkpt lat="48.71629" lon="1.73046">
        <ele>139.80000305176</ele>
        <time>2011-11-17T13:07:57.000Z</time>
      </trkpt>
      <trkpt lat="48.71621" lon="1.73061">
        <ele>140</ele>
        <time>2011-11-17T13:08:06.000Z</time>
      </trkpt>
      <trkpt lat="48.71614" lon="1.73073">
        <ele>140.19999694824</ele>
        <time>2011-11-17T13:08:14.000Z</time>
      </trkpt>
      <trkpt lat="48.71605" lon="1.73091">
        <ele>140.19999694824</ele>
        <time>2011-11-17T13:08:25.000Z</time>
      </trkpt>
      <trkpt lat="48.71596" lon="1.73108">
        <ele>140</ele>
        <time>2011-11-17T13:08:35.000Z</time>
      </trkpt>
      <trkpt lat="48.71586" lon="1.73131">
        <ele>139.60000610352</ele>
        <time>2011-11-17T13:08:47.000Z</time>
      </trkpt>
      <trkpt lat="48.71579" lon="1.73146">
        <ele>139.60000610352</ele>
        <time>2011-11-17T13:08:55.000Z</time>
      </trkpt>
      <trkpt lat="48.71568" lon="1.73168">
        <ele>139.60000610352</ele>
        <time>2011-11-17T13:09:07.000Z</time>
      </trkpt>
      <trkpt lat="48.71557" lon="1.73191">
        <ele>140.39999389648</ele>
        <time>2011-11-17T13:09:19.000Z</time>
      </trkpt>
      <trkpt lat="48.71549" lon="1.73209">
        <ele>140.80000305176</ele>
        <time>2011-11-17T13:09:29.000Z</time>
      </trkpt>
      <trkpt lat="48.71541" lon="1.73224">
        <ele>141.19999694824</ele>
        <time>2011-11-17T13:09:38.000Z</time>
      </trkpt>
      <trkpt lat="48.71533" lon="1.73239">
        <ele>141.60000610352</ele>
        <time>2011-11-17T13:09:47.000Z</time>
      </trkpt>
      <trkpt lat="48.71528" lon="1.73253">
        <ele>142</ele>
        <time>2011-11-17T13:09:54.000Z</time>
      </trkpt>
      <trkpt lat="48.71522" lon="1.7327">
        <ele>142.80000305176</ele>
        <time>2011-11-17T13:10:03.000Z</time>
      </trkpt>
      <trkpt lat="48.71516" lon="1.73277">
        <ele>143.39999389648</ele>
        <time>2011-11-17T13:10:09.000Z</time>
      </trkpt>
      <trkpt lat="48.7151" lon="1.73289">
        <ele>144</ele>
        <time>2011-11-17T13:10:16.000Z</time>
      </trkpt>
      <trkpt lat="48.71504" lon="1.73302">
        <ele>144.60000610352</ele>
        <time>2011-11-17T13:10:24.000Z</time>
      </trkpt>
      <trkpt lat="48.71499" lon="1.73318">
        <ele>145.39999389648</ele>
        <time>2011-11-17T13:10:31.000Z</time>
      </trkpt>
      <trkpt lat="48.71489" lon="1.73334">
        <ele>146.60000610352</ele>
        <time>2011-11-17T13:10:41.000Z</time>
      </trkpt>
      <trkpt lat="48.71483" lon="1.73351">
        <ele>147.60000610352</ele>
        <time>2011-11-17T13:10:50.000Z</time>
      </trkpt>
      <trkpt lat="48.71475" lon="1.73367">
        <ele>148.80000305176</ele>
        <time>2011-11-17T13:10:59.000Z</time>
      </trkpt>
      <trkpt lat="48.71467" lon="1.73366">
        <ele>149.39999389648</ele>
        <time>2011-11-17T13:11:05.000Z</time>
      </trkpt>
      <trkpt lat="48.71457" lon="1.7337">
        <ele>150.39999389648</ele>
        <time>2011-11-17T13:11:12.000Z</time>
      </trkpt>
      <trkpt lat="48.71447" lon="1.73377">
        <ele>151.80000305176</ele>
        <time>2011-11-17T13:11:20.000Z</time>
      </trkpt>
      <trkpt lat="48.71438" lon="1.73388">
        <ele>153.39999389648</ele>
        <time>2011-11-17T13:11:28.000Z</time>
      </trkpt>
      <trkpt lat="48.71429" lon="1.73398">
        <ele>155</ele>
        <time>2011-11-17T13:11:35.000Z</time>
      </trkpt>
      <trkpt lat="48.71428" lon="1.73401">
        <ele>155.39999389648</ele>
        <time>2011-11-17T13:11:37.000Z</time>
      </trkpt>
      <trkpt lat="48.71421" lon="1.73398">
        <ele>156</ele>
        <time>2011-11-17T13:11:43.000Z</time>
      </trkpt>
      <trkpt lat="48.71413" lon="1.73397">
        <ele>157</ele>
        <time>2011-11-17T13:11:49.000Z</time>
      </trkpt>
      <trkpt lat="48.71403" lon="1.73395">
        <ele>158.60000610352</ele>
        <time>2011-11-17T13:11:54.000Z</time>
      </trkpt>
      <trkpt lat="48.71401" lon="1.73394">
        <ele>158.80000305176</ele>
        <time>2011-11-17T13:11:55.000Z</time>
      </trkpt>
      <trkpt lat="48.71397" lon="1.73386">
        <ele>159</ele>
        <time>2011-11-17T13:12:01.000Z</time>
      </trkpt>
      <trkpt lat="48.71393" lon="1.73381">
        <ele>159.19999694824</ele>
        <time>2011-11-17T13:12:05.000Z</time>
      </trkpt>
      <trkpt lat="48.71392" lon="1.73379">
        <ele>159.39999389648</ele>
        <time>2011-11-17T13:12:06.000Z</time>
      </trkpt>
      <trkpt lat="48.71383" lon="1.73369">
        <ele>160.19999694824</ele>
        <time>2011-11-17T13:12:12.000Z</time>
      </trkpt>
      <trkpt lat="48.71378" lon="1.73358">
        <ele>160.19999694824</ele>
        <time>2011-11-17T13:12:18.000Z</time>
      </trkpt>
      <trkpt lat="48.7137" lon="1.73345">
        <ele>160.39999389648</ele>
        <time>2011-11-17T13:12:26.000Z</time>
      </trkpt>
      <trkpt lat="48.7137" lon="1.73344">
        <ele>160.39999389648</ele>
        <time>2011-11-17T13:12:27.000Z</time>
      </trkpt>
      <trkpt lat="48.71365" lon="1.73334">
        <ele>160.39999389648</ele>
        <time>2011-11-17T13:12:33.000Z</time>
      </trkpt>
      <trkpt lat="48.71358" lon="1.73321">
        <ele>161.39999389648</ele>
        <time>2011-11-17T13:12:40.000Z</time>
      </trkpt>
      <trkpt lat="48.71352" lon="1.73313">
        <ele>162.19999694824</ele>
        <time>2011-11-17T13:12:45.000Z</time>
      </trkpt>
      <trkpt lat="48.71348" lon="1.73305">
        <ele>163</ele>
        <time>2011-11-17T13:12:50.000Z</time>
      </trkpt>
      <trkpt lat="48.71341" lon="1.73294">
        <ele>164</ele>
        <time>2011-11-17T13:12:56.000Z</time>
      </trkpt>
      <trkpt lat="48.7134" lon="1.73288">
        <ele>164.19999694824</ele>
        <time>2011-11-17T13:12:59.000Z</time>
      </trkpt>
      <trkpt lat="48.7134" lon="1.73277">
        <ele>164.19999694824</ele>
        <time>2011-11-17T13:13:04.000Z</time>
      </trkpt>
      <trkpt lat="48.71337" lon="1.73262">
        <ele>164.39999389648</ele>
        <time>2011-11-17T13:13:11.000Z</time>
      </trkpt>
      <trkpt lat="48.71337" lon="1.73255">
        <ele>164.39999389648</ele>
        <time>2011-11-17T13:13:14.000Z</time>
      </trkpt>
      <trkpt lat="48.71334" lon="1.73243">
        <ele>165.19999694824</ele>
        <time>2011-11-17T13:13:21.000Z</time>
      </trkpt>
      <trkpt lat="48.71331" lon="1.73238">
        <ele>165.80000305176</ele>
        <time>2011-11-17T13:13:23.000Z</time>
      </trkpt>
      <trkpt lat="48.71326" lon="1.73227">
        <ele>167</ele>
        <time>2011-11-17T13:13:29.000Z</time>
      </trkpt>
      <trkpt lat="48.71325" lon="1.73225">
        <ele>167.39999389648</ele>
        <time>2011-11-17T13:13:31.000Z</time>
      </trkpt>
      <trkpt lat="48.71318" lon="1.73215">
        <ele>169</ele>
        <time>2011-11-17T13:13:37.000Z</time>
      </trkpt>
      <trkpt lat="48.71316" lon="1.7321">
        <ele>169.60000610352</ele>
        <time>2011-11-17T13:13:39.000Z</time>
      </trkpt>
      <trkpt lat="48.71311" lon="1.73196">
        <ele>170.80000305176</ele>
        <time>2011-11-17T13:13:45.000Z</time>
      </trkpt>
      <trkpt lat="48.7131" lon="1.73187">
        <ele>171.19999694824</ele>
        <time>2011-11-17T13:13:49.000Z</time>
      </trkpt>
      <trkpt lat="48.71309" lon="1.73172">
        <ele>171.80000305176</ele>
        <time>2011-11-17T13:13:56.000Z</time>
      </trkpt>
      <trkpt lat="48.7131" lon="1.7316">
        <ele>172.39999389648</ele>
        <time>2011-11-17T13:14:01.000Z</time>
      </trkpt>
      <trkpt lat="48.7131" lon="1.7315">
        <ele>173</ele>
        <time>2011-11-17T13:14:05.000Z</time>
      </trkpt>
      <trkpt lat="48.71309" lon="1.73137">
        <ele>174.19999694824</ele>
        <time>2011-11-17T13:14:10.000Z</time>
      </trkpt>
      <trkpt lat="48.71309" lon="1.73121">
        <ele>175.19999694824</ele>
        <time>2011-11-17T13:14:18.000Z</time>
      </trkpt>
      <trkpt lat="48.7131" lon="1.73118">
        <ele>175.19999694824</ele>
        <time>2011-11-17T13:14:19.000Z</time>
      </trkpt>
      <trkpt lat="48.71317" lon="1.73101">
        <ele>175.80000305176</ele>
        <time>2011-11-17T13:14:24.000Z</time>
      </trkpt>
      <trkpt lat="48.71321" lon="1.73092">
        <ele>176.19999694824</ele>
        <time>2011-11-17T13:14:28.000Z</time>
      </trkpt>
      <trkpt lat="48.71327" lon="1.73078">
        <ele>176.60000610352</ele>
        <time>2011-11-17T13:14:35.000Z</time>
      </trkpt>
      <trkpt lat="48.71329" lon="1.73072">
        <ele>176.80000305176</ele>
        <time>2011-11-17T13:14:37.000Z</time>
      </trkpt>
      <trkpt lat="48.71334" lon="1.73059">
        <ele>177</ele>
        <time>2011-11-17T13:14:44.000Z</time>
      </trkpt>
      <trkpt lat="48.71335" lon="1.73045">
        <ele>177.19999694824</ele>
        <time>2011-11-17T13:14:52.000Z</time>
      </trkpt>
      <trkpt lat="48.71335" lon="1.73043">
        <ele>177.39999389648</ele>
        <time>2011-11-17T13:14:53.000Z</time>
      </trkpt>
      <trkpt lat="48.71338" lon="1.73024">
        <ele>177.80000305176</ele>
        <time>2011-11-17T13:15:01.000Z</time>
      </trkpt>
      <trkpt lat="48.7134" lon="1.73016">
        <ele>177.60000610352</ele>
        <time>2011-11-17T13:15:05.000Z</time>
      </trkpt>
      <trkpt lat="48.71342" lon="1.73006">
        <ele>177.39999389648</ele>
        <time>2011-11-17T13:15:10.000Z</time>
      </trkpt>
      <trkpt lat="48.71342" lon="1.73001">
        <ele>177.60000610352</ele>
        <time>2011-11-17T13:15:12.000Z</time>
      </trkpt>
      <trkpt lat="48.71344" lon="1.72991">
        <ele>176.80000305176</ele>
        <time>2011-11-17T13:15:18.000Z</time>
      </trkpt>
      <trkpt lat="48.71347" lon="1.72987">
        <ele>176</ele>
        <time>2011-11-17T13:15:21.000Z</time>
      </trkpt>
      <trkpt lat="48.71352" lon="1.72972">
        <ele>174.39999389648</ele>
        <time>2011-11-17T13:15:29.000Z</time>
      </trkpt>
      <trkpt lat="48.71351" lon="1.72956">
        <ele>174.19999694824</ele>
        <time>2011-11-17T13:15:36.000Z</time>
      </trkpt>
      <trkpt lat="48.7135" lon="1.72955">
        <ele>174.39999389648</ele>
        <time>2011-11-17T13:15:37.000Z</time>
      </trkpt>
      <trkpt lat="48.71349" lon="1.72947">
        <ele>174.60000610352</ele>
        <time>2011-11-17T13:15:41.000Z</time>
      </trkpt>
      <trkpt lat="48.71349" lon="1.72942">
        <ele>174.60000610352</ele>
        <time>2011-11-17T13:15:45.000Z</time>
      </trkpt>
      <trkpt lat="48.71349" lon="1.72939">
        <ele>174.60000610352</ele>
        <time>2011-11-17T13:15:50.000Z</time>
      </trkpt>
      <trkpt lat="48.71347" lon="1.7292">
        <ele>174.39999389648</ele>
        <time>2011-11-17T13:16:04.000Z</time>
      </trkpt>
      <trkpt lat="48.71346" lon="1.72913">
        <ele>174.60000610352</ele>
        <time>2011-11-17T13:16:07.000Z</time>
      </trkpt>
      <trkpt lat="48.71343" lon="1.72897">
        <ele>174.39999389648</ele>
        <time>2011-11-17T13:16:14.000Z</time>
      </trkpt>
      <trkpt lat="48.71341" lon="1.72888">
        <ele>174.60000610352</ele>
        <time>2011-11-17T13:16:19.000Z</time>
      </trkpt>
      <trkpt lat="48.7134" lon="1.72878">
        <ele>174.39999389648</ele>
        <time>2011-11-17T13:16:25.000Z</time>
      </trkpt>
      <trkpt lat="48.71338" lon="1.72865">
        <ele>174.19999694824</ele>
        <time>2011-11-17T13:16:31.000Z</time>
      </trkpt>
      <trkpt lat="48.71338" lon="1.72863">
        <ele>174.19999694824</ele>
        <time>2011-11-17T13:16:36.000Z</time>
      </trkpt>
      <trkpt lat="48.71337" lon="1.72861">
        <ele>174.39999389648</ele>
        <time>2011-11-17T13:16:39.000Z</time>
      </trkpt>
      <trkpt lat="48.71334" lon="1.72858">
        <ele>175</ele>
        <time>2011-11-17T13:16:45.000Z</time>
      </trkpt>
      <trkpt lat="48.71332" lon="1.72846">
        <ele>174.60000610352</ele>
        <time>2011-11-17T13:16:54.000Z</time>
      </trkpt>
      <trkpt lat="48.71332" lon="1.72844">
        <ele>174.39999389648</ele>
        <time>2011-11-17T13:16:55.000Z</time>
      </trkpt>
      <trkpt lat="48.71334" lon="1.7284">
        <ele>174.19999694824</ele>
        <time>2011-11-17T13:16:58.000Z</time>
      </trkpt>
      <trkpt lat="48.71332" lon="1.72822">
        <ele>173.19999694824</ele>
        <time>2011-11-17T13:17:07.000Z</time>
      </trkpt>
      <trkpt lat="48.71329" lon="1.72812">
        <ele>172.80000305176</ele>
        <time>2011-11-17T13:17:13.000Z</time>
      </trkpt>
      <trkpt lat="48.7133" lon="1.72813">
        <ele>172.80000305176</ele>
        <time>2011-11-17T13:17:14.000Z</time>
      </trkpt>
      <trkpt lat="48.71329" lon="1.72807">
        <ele>172.39999389648</ele>
        <time>2011-11-17T13:17:22.000Z</time>
      </trkpt>
      <trkpt lat="48.71328" lon="1.72798">
        <ele>172</ele>
        <time>2011-11-17T13:17:25.000Z</time>
      </trkpt>
      <trkpt lat="48.71326" lon="1.72783">
        <ele>171.19999694824</ele>
        <time>2011-11-17T13:17:32.000Z</time>
      </trkpt>
      <trkpt lat="48.71326" lon="1.7277">
        <ele>170.39999389648</ele>
        <time>2011-11-17T13:17:39.000Z</time>
      </trkpt>
      <trkpt lat="48.71326" lon="1.72768">
        <ele>170.19999694824</ele>
        <time>2011-11-17T13:17:40.000Z</time>
      </trkpt>
      <trkpt lat="48.71325" lon="1.72756">
        <ele>169.39999389648</ele>
        <time>2011-11-17T13:17:47.000Z</time>
      </trkpt>
      <trkpt lat="48.71324" lon="1.72742">
        <ele>169</ele>
        <time>2011-11-17T13:17:54.000Z</time>
      </trkpt>
      <trkpt lat="48.71322" lon="1.72729">
        <ele>168.80000305176</ele>
        <time>2011-11-17T13:18:01.000Z</time>
      </trkpt>
      <trkpt lat="48.71321" lon="1.72718">
        <ele>168.60000610352</ele>
        <time>2011-11-17T13:18:07.000Z</time>
      </trkpt>
      <trkpt lat="48.71318" lon="1.72696">
        <ele>168.39999389648</ele>
        <time>2011-11-17T13:18:17.000Z</time>
      </trkpt>
      <trkpt lat="48.71314" lon="1.72678">
        <ele>168.80000305176</ele>
        <time>2011-11-17T13:18:25.000Z</time>
      </trkpt>
      <trkpt lat="48.7131" lon="1.72665">
        <ele>169.19999694824</ele>
        <time>2011-11-17T13:18:32.000Z</time>
      </trkpt>
      <trkpt lat="48.71308" lon="1.72649">
        <ele>169.80000305176</ele>
        <time>2011-11-17T13:18:40.000Z</time>
      </trkpt>
      <trkpt lat="48.71307" lon="1.72629">
        <ele>170.39999389648</ele>
        <time>2011-11-17T13:18:50.000Z</time>
      </trkpt>
      <trkpt lat="48.71305" lon="1.72615">
        <ele>171</ele>
        <time>2011-11-17T13:18:57.000Z</time>
      </trkpt>
      <trkpt lat="48.71301" lon="1.726">
        <ele>172</ele>
        <time>2011-11-17T13:19:05.000Z</time>
      </trkpt>
      <trkpt lat="48.71301" lon="1.72592">
        <ele>172</ele>
        <time>2011-11-17T13:19:10.000Z</time>
      </trkpt>
      <trkpt lat="48.713" lon="1.72585">
        <ele>172.60000610352</ele>
        <time>2011-11-17T13:19:14.000Z</time>
      </trkpt>
      <trkpt lat="48.713" lon="1.72571">
        <ele>172.19999694824</ele>
        <time>2011-11-17T13:19:22.000Z</time>
      </trkpt>
      <trkpt lat="48.71299" lon="1.72567">
        <ele>172.19999694824</ele>
        <time>2011-11-17T13:19:24.000Z</time>
      </trkpt>
      <trkpt lat="48.71297" lon="1.72547">
        <ele>172</ele>
        <time>2011-11-17T13:19:34.000Z</time>
      </trkpt>
      <trkpt lat="48.71293" lon="1.7253">
        <ele>172.39999389648</ele>
        <time>2011-11-17T13:19:42.000Z</time>
      </trkpt>
      <trkpt lat="48.71291" lon="1.72525">
        <ele>172.80000305176</ele>
        <time>2011-11-17T13:19:44.000Z</time>
      </trkpt>
      <trkpt lat="48.7129" lon="1.72519">
        <ele>173</ele>
        <time>2011-11-17T13:19:47.000Z</time>
      </trkpt>
      <trkpt lat="48.71287" lon="1.72507">
        <ele>173.19999694824</ele>
        <time>2011-11-17T13:19:52.000Z</time>
      </trkpt>
      <trkpt lat="48.71286" lon="1.72494">
        <ele>172.80000305176</ele>
        <time>2011-11-17T13:19:57.000Z</time>
      </trkpt>
      <trkpt lat="48.71285" lon="1.7249">
        <ele>172.60000610352</ele>
        <time>2011-11-17T13:19:59.000Z</time>
      </trkpt>
      <trkpt lat="48.71285" lon="1.72472">
        <ele>171.60000610352</ele>
        <time>2011-11-17T13:20:07.000Z</time>
      </trkpt>
      <trkpt lat="48.71284" lon="1.72456">
        <ele>171</ele>
        <time>2011-11-17T13:20:15.000Z</time>
      </trkpt>
      <trkpt lat="48.7128" lon="1.72447">
        <ele>171.19999694824</ele>
        <time>2011-11-17T13:20:21.000Z</time>
      </trkpt>
      <trkpt lat="48.71277" lon="1.72439">
        <ele>171.39999389648</ele>
        <time>2011-11-17T13:20:27.000Z</time>
      </trkpt>
      <trkpt lat="48.71277" lon="1.72438">
        <ele>171.39999389648</ele>
        <time>2011-11-17T13:20:30.000Z</time>
      </trkpt>
      <trkpt lat="48.71286" lon="1.72416">
        <ele>168.19999694824</ele>
        <time>2011-11-17T13:21:10.000Z</time>
      </trkpt>
      <trkpt lat="48.71289" lon="1.72408">
        <ele>167.60000610352</ele>
        <time>2011-11-17T13:21:14.000Z</time>
      </trkpt>
      <trkpt lat="48.71292" lon="1.72398">
        <ele>167</ele>
        <time>2011-11-17T13:21:20.000Z</time>
      </trkpt>
      <trkpt lat="48.71293" lon="1.72398">
        <ele>166.80000305176</ele>
        <time>2011-11-17T13:21:21.000Z</time>
      </trkpt>
      <trkpt lat="48.71297" lon="1.72386">
        <ele>166.19999694824</ele>
        <time>2011-11-17T13:21:28.000Z</time>
      </trkpt>
      <trkpt lat="48.71298" lon="1.72385">
        <ele>166</ele>
        <time>2011-11-17T13:21:29.000Z</time>
      </trkpt>
      <trkpt lat="48.71302" lon="1.72373">
        <ele>165.19999694824</ele>
        <time>2011-11-17T13:21:36.000Z</time>
      </trkpt>
      <trkpt lat="48.71309" lon="1.7236">
        <ele>163.80000305176</ele>
        <time>2011-11-17T13:21:43.000Z</time>
      </trkpt>
      <trkpt lat="48.71312" lon="1.72352">
        <ele>163.19999694824</ele>
        <time>2011-11-17T13:21:48.000Z</time>
      </trkpt>
      <trkpt lat="48.71316" lon="1.7234">
        <ele>162.60000610352</ele>
        <time>2011-11-17T13:21:56.000Z</time>
      </trkpt>
      <trkpt lat="48.71319" lon="1.72329">
        <ele>162.19999694824</ele>
        <time>2011-11-17T13:22:02.000Z</time>
      </trkpt>
      <trkpt lat="48.71323" lon="1.72315">
        <ele>161.80000305176</ele>
        <time>2011-11-17T13:22:10.000Z</time>
      </trkpt>
      <trkpt lat="48.71326" lon="1.72307">
        <ele>161.39999389648</ele>
        <time>2011-11-17T13:22:16.000Z</time>
      </trkpt>
      <trkpt lat="48.71332" lon="1.72296">
        <ele>160.60000610352</ele>
        <time>2011-11-17T13:22:23.000Z</time>
      </trkpt>
      <trkpt lat="48.71332" lon="1.72291">
        <ele>160.60000610352</ele>
        <time>2011-11-17T13:22:25.000Z</time>
      </trkpt>
      <trkpt lat="48.71334" lon="1.72283">
        <ele>160.60000610352</ele>
        <time>2011-11-17T13:22:29.000Z</time>
      </trkpt>
      <trkpt lat="48.71334" lon="1.7228">
        <ele>160.60000610352</ele>
        <time>2011-11-17T13:22:31.000Z</time>
      </trkpt>
      <trkpt lat="48.71337" lon="1.72274">
        <ele>160.19999694824</ele>
        <time>2011-11-17T13:22:36.000Z</time>
      </trkpt>
      <trkpt lat="48.71341" lon="1.72261">
        <ele>159.80000305176</ele>
        <time>2011-11-17T13:22:44.000Z</time>
      </trkpt>
      <trkpt lat="48.71343" lon="1.72249">
        <ele>159.80000305176</ele>
        <time>2011-11-17T13:22:49.000Z</time>
      </trkpt>
      <trkpt lat="48.71343" lon="1.72247">
        <ele>159.60000610352</ele>
        <time>2011-11-17T13:22:50.000Z</time>
      </trkpt>
      <trkpt lat="48.71346" lon="1.72231">
        <ele>159.19999694824</ele>
        <time>2011-11-17T13:22:57.000Z</time>
      </trkpt>
      <trkpt lat="48.71351" lon="1.72221">
        <ele>158.19999694824</ele>
        <time>2011-11-17T13:23:04.000Z</time>
      </trkpt>
      <trkpt lat="48.71354" lon="1.72214">
        <ele>157.80000305176</ele>
        <time>2011-11-17T13:23:08.000Z</time>
      </trkpt>
      <trkpt lat="48.71355" lon="1.72205">
        <ele>157.60000610352</ele>
        <time>2011-11-17T13:23:14.000Z</time>
      </trkpt>
      <trkpt lat="48.7136" lon="1.72191">
        <ele>156.80000305176</ele>
        <time>2011-11-17T13:23:23.000Z</time>
      </trkpt>
      <trkpt lat="48.71364" lon="1.72186">
        <ele>156</ele>
        <time>2011-11-17T13:23:27.000Z</time>
      </trkpt>
      <trkpt lat="48.71371" lon="1.72178">
        <ele>155</ele>
        <time>2011-11-17T13:23:34.000Z</time>
      </trkpt>
      <trkpt lat="48.71373" lon="1.72173">
        <ele>154.60000610352</ele>
        <time>2011-11-17T13:23:37.000Z</time>
      </trkpt>
      <trkpt lat="48.71377" lon="1.72165">
        <ele>153.80000305176</ele>
        <time>2011-11-17T13:23:43.000Z</time>
      </trkpt>
      <trkpt lat="48.71382" lon="1.72154">
        <ele>152.39999389648</ele>
        <time>2011-11-17T13:23:51.000Z</time>
      </trkpt>
      <trkpt lat="48.71385" lon="1.72143">
        <ele>151.19999694824</ele>
        <time>2011-11-17T13:23:57.000Z</time>
      </trkpt>
      <trkpt lat="48.7139" lon="1.72128">
        <ele>149.39999389648</ele>
        <time>2011-11-17T13:24:06.000Z</time>
      </trkpt>
      <trkpt lat="48.7139" lon="1.72127">
        <ele>149.39999389648</ele>
        <time>2011-11-17T13:24:07.000Z</time>
      </trkpt>
      <trkpt lat="48.71393" lon="1.72124">
        <ele>148.80000305176</ele>
        <time>2011-11-17T13:24:14.000Z</time>
      </trkpt>
      <trkpt lat="48.71393" lon="1.72123">
        <ele>148.60000610352</ele>
        <time>2011-11-17T13:24:17.000Z</time>
      </trkpt>
      <trkpt lat="48.71394" lon="1.72122">
        <ele>148.39999389648</ele>
        <time>2011-11-17T13:24:20.000Z</time>
      </trkpt>
      <trkpt lat="48.71396" lon="1.72117">
        <ele>147.80000305176</ele>
        <time>2011-11-17T13:24:23.000Z</time>
      </trkpt>
      <trkpt lat="48.71397" lon="1.72115">
        <ele>147.60000610352</ele>
        <time>2011-11-17T13:24:24.000Z</time>
      </trkpt>
      <trkpt lat="48.71401" lon="1.72105">
        <ele>146.39999389648</ele>
        <time>2011-11-17T13:24:31.000Z</time>
      </trkpt>
      <trkpt lat="48.71401" lon="1.72104">
        <ele>146.19999694824</ele>
        <time>2011-11-17T13:24:32.000Z</time>
      </trkpt>
      <trkpt lat="48.71405" lon="1.721">
        <ele>145.39999389648</ele>
        <time>2011-11-17T13:24:39.000Z</time>
      </trkpt>
      <trkpt lat="48.71406" lon="1.72099">
        <ele>145.19999694824</ele>
        <time>2011-11-17T13:24:42.000Z</time>
      </trkpt>
      <trkpt lat="48.71412" lon="1.72088">
        <ele>143.80000305176</ele>
        <time>2011-11-17T13:24:53.000Z</time>
      </trkpt>
      <trkpt lat="48.71413" lon="1.72087">
        <ele>143.60000610352</ele>
        <time>2011-11-17T13:24:54.000Z</time>
      </trkpt>
      <trkpt lat="48.71415" lon="1.7208">
        <ele>143.19999694824</ele>
        <time>2011-11-17T13:24:57.000Z</time>
      </trkpt>
      <trkpt lat="48.71414" lon="1.72078">
        <ele>143.19999694824</ele>
        <time>2011-11-17T13:24:59.000Z</time>
      </trkpt>
      <trkpt lat="48.71409" lon="1.72064">
        <ele>144</ele>
        <time>2011-11-17T13:25:06.000Z</time>
      </trkpt>
      <trkpt lat="48.71407" lon="1.72061">
        <ele>144.19999694824</ele>
        <time>2011-11-17T13:25:08.000Z</time>
      </trkpt>
      <trkpt lat="48.71403" lon="1.72054">
        <ele>144.60000610352</ele>
        <time>2011-11-17T13:25:13.000Z</time>
      </trkpt>
      <trkpt lat="48.71394" lon="1.72041">
        <ele>145.39999389648</ele>
        <time>2011-11-17T13:25:20.000Z</time>
      </trkpt>
      <trkpt lat="48.7138" lon="1.72025">
        <ele>146</ele>
        <time>2011-11-17T13:25:26.000Z</time>
      </trkpt>
      <trkpt lat="48.71365" lon="1.72009">
        <ele>146.19999694824</ele>
        <time>2011-11-17T13:25:32.000Z</time>
      </trkpt>
      <trkpt lat="48.71342" lon="1.71985">
        <ele>147</ele>
        <time>2011-11-17T13:25:39.000Z</time>
      </trkpt>
      <trkpt lat="48.71324" lon="1.71969">
        <ele>148.60000610352</ele>
        <time>2011-11-17T13:25:45.000Z</time>
      </trkpt>
      <trkpt lat="48.71315" lon="1.71952">
        <ele>150</ele>
        <time>2011-11-17T13:25:50.000Z</time>
      </trkpt>
      <trkpt lat="48.71314" lon="1.71941">
        <ele>150.39999389648</ele>
        <time>2011-11-17T13:25:54.000Z</time>
      </trkpt>
      <trkpt lat="48.71313" lon="1.71925">
        <ele>151</ele>
        <time>2011-11-17T13:26:01.000Z</time>
      </trkpt>
      <trkpt lat="48.71315" lon="1.71915">
        <ele>151</ele>
        <time>2011-11-17T13:26:06.000Z</time>
      </trkpt>
      <trkpt lat="48.71318" lon="1.71908">
        <ele>150.80000305176</ele>
        <time>2011-11-17T13:26:10.000Z</time>
      </trkpt>
      <trkpt lat="48.7132" lon="1.71897">
        <ele>150.60000610352</ele>
        <time>2011-11-17T13:26:16.000Z</time>
      </trkpt>
      <trkpt lat="48.71322" lon="1.7188">
        <ele>150.60000610352</ele>
        <time>2011-11-17T13:26:25.000Z</time>
      </trkpt>
      <trkpt lat="48.71324" lon="1.71877">
        <ele>150.39999389648</ele>
        <time>2011-11-17T13:26:27.000Z</time>
      </trkpt>
      <trkpt lat="48.71326" lon="1.71865">
        <ele>150.39999389648</ele>
        <time>2011-11-17T13:26:33.000Z</time>
      </trkpt>
      <trkpt lat="48.71328" lon="1.71855">
        <ele>150.19999694824</ele>
        <time>2011-11-17T13:26:39.000Z</time>
      </trkpt>
      <trkpt lat="48.71331" lon="1.71836">
        <ele>150.19999694824</ele>
        <time>2011-11-17T13:26:48.000Z</time>
      </trkpt>
      <trkpt lat="48.71328" lon="1.71832">
        <ele>150.39999389648</ele>
        <time>2011-11-17T13:26:52.000Z</time>
      </trkpt>
      <trkpt lat="48.71316" lon="1.71824">
        <ele>151.60000610352</ele>
        <time>2011-11-17T13:27:00.000Z</time>
      </trkpt>
      <trkpt lat="48.71309" lon="1.71819">
        <ele>152.19999694824</ele>
        <time>2011-11-17T13:27:06.000Z</time>
      </trkpt>
      <trkpt lat="48.71295" lon="1.71811">
        <ele>153.39999389648</ele>
        <time>2011-11-17T13:27:17.000Z</time>
      </trkpt>
      <trkpt lat="48.71284" lon="1.71807">
        <ele>154.19999694824</ele>
        <time>2011-11-17T13:27:25.000Z</time>
      </trkpt>
      <trkpt lat="48.71283" lon="1.71807">
        <ele>154.39999389648</ele>
        <time>2011-11-17T13:27:26.000Z</time>
      </trkpt>
      <trkpt lat="48.71276" lon="1.71804">
        <ele>155</ele>
        <time>2011-11-17T13:27:32.000Z</time>
      </trkpt>
      <trkpt lat="48.71268" lon="1.71803">
        <ele>155.80000305176</ele>
        <time>2011-11-17T13:27:38.000Z</time>
      </trkpt>
      <trkpt lat="48.71258" lon="1.718">
        <ele>156.80000305176</ele>
        <time>2011-11-17T13:27:46.000Z</time>
      </trkpt>
      <trkpt lat="48.71247" lon="1.71798">
        <ele>157.80000305176</ele>
        <time>2011-11-17T13:27:53.000Z</time>
      </trkpt>
      <trkpt lat="48.71241" lon="1.71798">
        <ele>158.80000305176</ele>
        <time>2011-11-17T13:27:58.000Z</time>
      </trkpt>
      <trkpt lat="48.71238" lon="1.71796">
        <ele>159.39999389648</ele>
        <time>2011-11-17T13:28:01.000Z</time>
      </trkpt>
      <trkpt lat="48.71226" lon="1.71797">
        <ele>161.60000610352</ele>
        <time>2011-11-17T13:28:10.000Z</time>
      </trkpt>
      <trkpt lat="48.71221" lon="1.71797">
        <ele>162.39999389648</ele>
        <time>2011-11-17T13:28:14.000Z</time>
      </trkpt>
      <trkpt lat="48.71213" lon="1.71795">
        <ele>163.60000610352</ele>
        <time>2011-11-17T13:28:20.000Z</time>
      </trkpt>
      <trkpt lat="48.71199" lon="1.7179">
        <ele>166</ele>
        <time>2011-11-17T13:28:30.000Z</time>
      </trkpt>
      <trkpt lat="48.71188" lon="1.71785">
        <ele>167.80000305176</ele>
        <time>2011-11-17T13:28:38.000Z</time>
      </trkpt>
      <trkpt lat="48.7118" lon="1.7178">
        <ele>168.80000305176</ele>
        <time>2011-11-17T13:28:44.000Z</time>
      </trkpt>
      <trkpt lat="48.71173" lon="1.71773">
        <ele>169.80000305176</ele>
        <time>2011-11-17T13:28:50.000Z</time>
      </trkpt>
      <trkpt lat="48.7117" lon="1.71766">
        <ele>170</ele>
        <time>2011-11-17T13:28:53.000Z</time>
      </trkpt>
      <trkpt lat="48.71164" lon="1.71751">
        <ele>170.39999389648</ele>
        <time>2011-11-17T13:29:00.000Z</time>
      </trkpt>
      <trkpt lat="48.71162" lon="1.71748">
        <ele>170.39999389648</ele>
        <time>2011-11-17T13:29:02.000Z</time>
      </trkpt>
      <trkpt lat="48.71155" lon="1.71741">
        <ele>170.39999389648</ele>
        <time>2011-11-17T13:29:08.000Z</time>
      </trkpt>
      <trkpt lat="48.71148" lon="1.71734">
        <ele>170.60000610352</ele>
        <time>2011-11-17T13:29:16.000Z</time>
      </trkpt>
      <trkpt lat="48.71146" lon="1.71732">
        <ele>170.80000305176</ele>
        <time>2011-11-17T13:29:18.000Z</time>
      </trkpt>
      <trkpt lat="48.7114" lon="1.71727">
        <ele>171.19999694824</ele>
        <time>2011-11-17T13:29:24.000Z</time>
      </trkpt>
      <trkpt lat="48.71139" lon="1.71722">
        <ele>170.60000610352</ele>
        <time>2011-11-17T13:29:29.000Z</time>
      </trkpt>
      <trkpt lat="48.71138" lon="1.71715">
        <ele>170.19999694824</ele>
        <time>2011-11-17T13:29:38.000Z</time>
      </trkpt>
      <trkpt lat="48.71132" lon="1.71704">
        <ele>170</ele>
        <time>2011-11-17T13:29:46.000Z</time>
      </trkpt>
      <trkpt lat="48.71127" lon="1.71696">
        <ele>170</ele>
        <time>2011-11-17T13:29:54.000Z</time>
      </trkpt>
      <trkpt lat="48.71121" lon="1.71689">
        <ele>170.39999389648</ele>
        <time>2011-11-17T13:30:00.000Z</time>
      </trkpt>
      <trkpt lat="48.71112" lon="1.7168">
        <ele>171.19999694824</ele>
        <time>2011-11-17T13:30:08.000Z</time>
      </trkpt>
      <trkpt lat="48.71103" lon="1.71673">
        <ele>172.39999389648</ele>
        <time>2011-11-17T13:30:17.000Z</time>
      </trkpt>
      <trkpt lat="48.71094" lon="1.71665">
        <ele>173.60000610352</ele>
        <time>2011-11-17T13:30:25.000Z</time>
      </trkpt>
      <trkpt lat="48.71086" lon="1.71659">
        <ele>174.80000305176</ele>
        <time>2011-11-17T13:30:32.000Z</time>
      </trkpt>
      <trkpt lat="48.7108" lon="1.71653">
        <ele>175.19999694824</ele>
        <time>2011-11-17T13:30:39.000Z</time>
      </trkpt>
      <trkpt lat="48.71078" lon="1.71648">
        <ele>175.19999694824</ele>
        <time>2011-11-17T13:30:43.000Z</time>
      </trkpt>
      <trkpt lat="48.7107" lon="1.7164">
        <ele>175.60000610352</ele>
        <time>2011-11-17T13:30:52.000Z</time>
      </trkpt>
      <trkpt lat="48.71064" lon="1.71632">
        <ele>175.80000305176</ele>
        <time>2011-11-17T13:30:58.000Z</time>
      </trkpt>
      <trkpt lat="48.71057" lon="1.71627">
        <ele>176.39999389648</ele>
        <time>2011-11-17T13:31:05.000Z</time>
      </trkpt>
      <trkpt lat="48.7105" lon="1.7162">
        <ele>177</ele>
        <time>2011-11-17T13:31:12.000Z</time>
      </trkpt>
      <trkpt lat="48.71043" lon="1.71612">
        <ele>177.39999389648</ele>
        <time>2011-11-17T13:31:19.000Z</time>
      </trkpt>
      <trkpt lat="48.71041" lon="1.71611">
        <ele>177.60000610352</ele>
        <time>2011-11-17T13:31:20.000Z</time>
      </trkpt>
      <trkpt lat="48.71037" lon="1.71609">
        <ele>178.19999694824</ele>
        <time>2011-11-17T13:31:24.000Z</time>
      </trkpt>
      <trkpt lat="48.71029" lon="1.71606">
        <ele>179.19999694824</ele>
        <time>2011-11-17T13:31:31.000Z</time>
      </trkpt>
      <trkpt lat="48.71023" lon="1.71604">
        <ele>180</ele>
        <time>2011-11-17T13:31:37.000Z</time>
      </trkpt>
      <trkpt lat="48.71017" lon="1.71603">
        <ele>181</ele>
        <time>2011-11-17T13:31:42.000Z</time>
      </trkpt>
      <trkpt lat="48.71013" lon="1.71605">
        <ele>181.60000610352</ele>
        <time>2011-11-17T13:31:45.000Z</time>
      </trkpt>
      <trkpt lat="48.71003" lon="1.7161">
        <ele>183.39999389648</ele>
        <time>2011-11-17T13:31:53.000Z</time>
      </trkpt>
      <trkpt lat="48.70999" lon="1.71611">
        <ele>184</ele>
        <time>2011-11-17T13:31:56.000Z</time>
      </trkpt>
      <trkpt lat="48.7099" lon="1.71616">
        <ele>184.39999389648</ele>
        <time>2011-11-17T13:32:03.000Z</time>
      </trkpt>
      <trkpt lat="48.70983" lon="1.71621">
        <ele>185</ele>
        <time>2011-11-17T13:32:09.000Z</time>
      </trkpt>
      <trkpt lat="48.70976" lon="1.7163">
        <ele>185.39999389648</ele>
        <time>2011-11-17T13:32:16.000Z</time>
      </trkpt>
      <trkpt lat="48.70966" lon="1.71641">
        <ele>185.80000305176</ele>
        <time>2011-11-17T13:32:25.000Z</time>
      </trkpt>
      <trkpt lat="48.70955" lon="1.71648">
        <ele>186.19999694824</ele>
        <time>2011-11-17T13:32:33.000Z</time>
      </trkpt>
      <trkpt lat="48.70944" lon="1.71659">
        <ele>186.60000610352</ele>
        <time>2011-11-17T13:32:42.000Z</time>
      </trkpt>
      <trkpt lat="48.70937" lon="1.71667">
        <ele>186.60000610352</ele>
        <time>2011-11-17T13:32:48.000Z</time>
      </trkpt>
      <trkpt lat="48.70931" lon="1.71675">
        <ele>187.19999694824</ele>
        <time>2011-11-17T13:32:54.000Z</time>
      </trkpt>
      <trkpt lat="48.7092" lon="1.71685">
        <ele>187.80000305176</ele>
        <time>2011-11-17T13:33:02.000Z</time>
      </trkpt>
      <trkpt lat="48.7091" lon="1.71693">
        <ele>187.80000305176</ele>
        <time>2011-11-17T13:33:11.000Z</time>
      </trkpt>
      <trkpt lat="48.70902" lon="1.717">
        <ele>187.60000610352</ele>
        <time>2011-11-17T13:33:18.000Z</time>
      </trkpt>
      <trkpt lat="48.70888" lon="1.71712">
        <ele>187.19999694824</ele>
        <time>2011-11-17T13:33:28.000Z</time>
      </trkpt>
      <trkpt lat="48.70878" lon="1.71722">
        <ele>186.80000305176</ele>
        <time>2011-11-17T13:33:37.000Z</time>
      </trkpt>
      <trkpt lat="48.70867" lon="1.71731">
        <ele>186.19999694824</ele>
        <time>2011-11-17T13:33:46.000Z</time>
      </trkpt>
      <trkpt lat="48.70858" lon="1.71741">
        <ele>185.80000305176</ele>
        <time>2011-11-17T13:33:54.000Z</time>
      </trkpt>
      <trkpt lat="48.70848" lon="1.71751">
        <ele>185.19999694824</ele>
        <time>2011-11-17T13:34:03.000Z</time>
      </trkpt>
      <trkpt lat="48.70837" lon="1.71763">
        <ele>184.39999389648</ele>
        <time>2011-11-17T13:34:13.000Z</time>
      </trkpt>
      <trkpt lat="48.70827" lon="1.71772">
        <ele>184.60000610352</ele>
        <time>2011-11-17T13:34:21.000Z</time>
      </trkpt>
      <trkpt lat="48.70813" lon="1.7178">
        <ele>185.19999694824</ele>
        <time>2011-11-17T13:34:31.000Z</time>
      </trkpt>
      <trkpt lat="48.70809" lon="1.71784">
        <ele>185.39999389648</ele>
        <time>2011-11-17T13:34:35.000Z</time>
      </trkpt>
      <trkpt lat="48.70806" lon="1.71787">
        <ele>185.60000610352</ele>
        <time>2011-11-17T13:34:40.000Z</time>
      </trkpt>
      <trkpt lat="48.70799" lon="1.71789">
        <ele>185.80000305176</ele>
        <time>2011-11-17T13:34:59.000Z</time>
      </trkpt>
      <trkpt lat="48.70796" lon="1.71792">
        <ele>186</ele>
        <time>2011-11-17T13:35:01.000Z</time>
      </trkpt>
      <trkpt lat="48.70789" lon="1.71802">
        <ele>186.39999389648</ele>
        <time>2011-11-17T13:35:09.000Z</time>
      </trkpt>
      <trkpt lat="48.70778" lon="1.7181">
        <ele>186.80000305176</ele>
        <time>2011-11-17T13:35:18.000Z</time>
      </trkpt>
      <trkpt lat="48.70771" lon="1.71819">
        <ele>187.19999694824</ele>
        <time>2011-11-17T13:35:25.000Z</time>
      </trkpt>
      <trkpt lat="48.70761" lon="1.7183">
        <ele>187.60000610352</ele>
        <time>2011-11-17T13:35:32.000Z</time>
      </trkpt>
      <trkpt lat="48.70752" lon="1.71841">
        <ele>187.80000305176</ele>
        <time>2011-11-17T13:35:36.000Z</time>
      </trkpt>
      <trkpt lat="48.70745" lon="1.71848">
        <ele>188</ele>
        <time>2011-11-17T13:35:40.000Z</time>
      </trkpt>
      <trkpt lat="48.70734" lon="1.71858">
        <ele>188.19999694824</ele>
        <time>2011-11-17T13:35:45.000Z</time>
      </trkpt>
      <trkpt lat="48.70722" lon="1.71869">
        <ele>188.39999389648</ele>
        <time>2011-11-17T13:35:50.000Z</time>
      </trkpt>
      <trkpt lat="48.70706" lon="1.71884">
        <ele>188.60000610352</ele>
        <time>2011-11-17T13:35:56.000Z</time>
      </trkpt>
      <trkpt lat="48.7069" lon="1.71897">
        <ele>188.80000305176</ele>
        <time>2011-11-17T13:36:02.000Z</time>
      </trkpt>
      <trkpt lat="48.70679" lon="1.71906">
        <ele>188.80000305176</ele>
        <time>2011-11-17T13:36:07.000Z</time>
      </trkpt>
      <trkpt lat="48.70663" lon="1.71916">
        <ele>188.80000305176</ele>
        <time>2011-11-17T13:36:13.000Z</time>
      </trkpt>
      <trkpt lat="48.70648" lon="1.71924">
        <ele>188.19999694824</ele>
        <time>2011-11-17T13:36:19.000Z</time>
      </trkpt>
      <trkpt lat="48.70625" lon="1.71939">
        <ele>187.80000305176</ele>
        <time>2011-11-17T13:36:28.000Z</time>
      </trkpt>
      <trkpt lat="48.7061" lon="1.71948">
        <ele>187.80000305176</ele>
        <time>2011-11-17T13:36:33.000Z</time>
      </trkpt>
      <trkpt lat="48.70591" lon="1.71962">
        <ele>188.39999389648</ele>
        <time>2011-11-17T13:36:39.000Z</time>
      </trkpt>
      <trkpt lat="48.70574" lon="1.71972">
        <ele>189</ele>
        <time>2011-11-17T13:36:45.000Z</time>
      </trkpt>
      <trkpt lat="48.70559" lon="1.71982">
        <ele>189.19999694824</ele>
        <time>2011-11-17T13:36:51.000Z</time>
      </trkpt>
      <trkpt lat="48.70546" lon="1.71991">
        <ele>189.19999694824</ele>
        <time>2011-11-17T13:36:56.000Z</time>
      </trkpt>
      <trkpt lat="48.70532" lon="1.72">
        <ele>189.19999694824</ele>
        <time>2011-11-17T13:37:01.000Z</time>
      </trkpt>
      <trkpt lat="48.70516" lon="1.72013">
        <ele>189</ele>
        <time>2011-11-17T13:37:06.000Z</time>
      </trkpt>
      <trkpt lat="48.70502" lon="1.72021">
        <ele>188.60000610352</ele>
        <time>2011-11-17T13:37:11.000Z</time>
      </trkpt>
      <trkpt lat="48.70488" lon="1.72031">
        <ele>188</ele>
        <time>2011-11-17T13:37:16.000Z</time>
      </trkpt>
      <trkpt lat="48.70471" lon="1.72044">
        <ele>187.19999694824</ele>
        <time>2011-11-17T13:37:22.000Z</time>
      </trkpt>
      <trkpt lat="48.70458" lon="1.72053">
        <ele>186.60000610352</ele>
        <time>2011-11-17T13:37:27.000Z</time>
      </trkpt>
      <trkpt lat="48.70444" lon="1.72063">
        <ele>186</ele>
        <time>2011-11-17T13:37:32.000Z</time>
      </trkpt>
      <trkpt lat="48.70429" lon="1.72073">
        <ele>185.39999389648</ele>
        <time>2011-11-17T13:37:37.000Z</time>
      </trkpt>
      <trkpt lat="48.70415" lon="1.72083">
        <ele>184.80000305176</ele>
        <time>2011-11-17T13:37:42.000Z</time>
      </trkpt>
      <trkpt lat="48.704" lon="1.72092">
        <ele>185</ele>
        <time>2011-11-17T13:37:47.000Z</time>
      </trkpt>
      <trkpt lat="48.70385" lon="1.72102">
        <ele>185</ele>
        <time>2011-11-17T13:37:52.000Z</time>
      </trkpt>
      <trkpt lat="48.70368" lon="1.72117">
        <ele>185.19999694824</ele>
        <time>2011-11-17T13:37:58.000Z</time>
      </trkpt>
      <trkpt lat="48.70353" lon="1.72125">
        <ele>185.19999694824</ele>
        <time>2011-11-17T13:38:03.000Z</time>
      </trkpt>
      <trkpt lat="48.70337" lon="1.72137">
        <ele>185.60000610352</ele>
        <time>2011-11-17T13:38:08.000Z</time>
      </trkpt>
      <trkpt lat="48.70323" lon="1.72147">
        <ele>185.39999389648</ele>
        <time>2011-11-17T13:38:13.000Z</time>
      </trkpt>
      <trkpt lat="48.70309" lon="1.72159">
        <ele>185.19999694824</ele>
        <time>2011-11-17T13:38:18.000Z</time>
      </trkpt>
      <trkpt lat="48.70294" lon="1.7217">
        <ele>185</ele>
        <time>2011-11-17T13:38:24.000Z</time>
      </trkpt>
      <trkpt lat="48.70285" lon="1.72192">
        <ele>185</ele>
        <time>2011-11-17T13:38:29.000Z</time>
      </trkpt>
      <trkpt lat="48.70276" lon="1.72227">
        <ele>185</ele>
        <time>2011-11-17T13:38:35.000Z</time>
      </trkpt>
      <trkpt lat="48.70269" lon="1.72264">
        <ele>185</ele>
        <time>2011-11-17T13:38:40.000Z</time>
      </trkpt>
      <trkpt lat="48.70255" lon="1.7232">
        <ele>184.80000305176</ele>
        <time>2011-11-17T13:38:47.000Z</time>
      </trkpt>
      <trkpt lat="48.70247" lon="1.72363">
        <ele>183.80000305176</ele>
        <time>2011-11-17T13:38:52.000Z</time>
      </trkpt>
      <trkpt lat="48.70245" lon="1.7237">
        <ele>183.60000610352</ele>
        <time>2011-11-17T13:38:53.000Z</time>
      </trkpt>
      <trkpt lat="48.70237" lon="1.72404">
        <ele>182.80000305176</ele>
        <time>2011-11-17T13:38:59.000Z</time>
      </trkpt>
      <trkpt lat="48.70229" lon="1.72443">
        <ele>182.39999389648</ele>
        <time>2011-11-17T13:39:06.000Z</time>
      </trkpt>
      <trkpt lat="48.70222" lon="1.72469">
        <ele>182.19999694824</ele>
        <time>2011-11-17T13:39:11.000Z</time>
      </trkpt>
      <trkpt lat="48.70218" lon="1.72491">
        <ele>182</ele>
        <time>2011-11-17T13:39:16.000Z</time>
      </trkpt>
      <trkpt lat="48.70212" lon="1.7252">
        <ele>181.60000610352</ele>
        <time>2011-11-17T13:39:21.000Z</time>
      </trkpt>
      <trkpt lat="48.70207" lon="1.72541">
        <ele>181.60000610352</ele>
        <time>2011-11-17T13:39:25.000Z</time>
      </trkpt>
      <trkpt lat="48.70201" lon="1.7258">
        <ele>181</ele>
        <time>2011-11-17T13:39:32.000Z</time>
      </trkpt>
      <trkpt lat="48.70195" lon="1.72613">
        <ele>180.39999389648</ele>
        <time>2011-11-17T13:39:38.000Z</time>
      </trkpt>
      <trkpt lat="48.70188" lon="1.72643">
        <ele>179.80000305176</ele>
        <time>2011-11-17T13:39:44.000Z</time>
      </trkpt>
      <trkpt lat="48.7018" lon="1.72673">
        <ele>179</ele>
        <time>2011-11-17T13:39:50.000Z</time>
      </trkpt>
      <trkpt lat="48.70169" lon="1.72709">
        <ele>177.80000305176</ele>
        <time>2011-11-17T13:39:57.000Z</time>
      </trkpt>
      <trkpt lat="48.70159" lon="1.72743">
        <ele>176.60000610352</ele>
        <time>2011-11-17T13:40:04.000Z</time>
      </trkpt>
      <trkpt lat="48.70149" lon="1.72767">
        <ele>176.60000610352</ele>
        <time>2011-11-17T13:40:09.000Z</time>
      </trkpt>
      <trkpt lat="48.70139" lon="1.72801">
        <ele>176.80000305176</ele>
        <time>2011-11-17T13:40:16.000Z</time>
      </trkpt>
      <trkpt lat="48.7013" lon="1.72827">
        <ele>177</ele>
        <time>2011-11-17T13:40:22.000Z</time>
      </trkpt>
      <trkpt lat="48.70123" lon="1.72846">
        <ele>177.39999389648</ele>
        <time>2011-11-17T13:40:27.000Z</time>
      </trkpt>
      <trkpt lat="48.70113" lon="1.72881">
        <ele>177.39999389648</ele>
        <time>2011-11-17T13:40:34.000Z</time>
      </trkpt>
      <trkpt lat="48.70102" lon="1.72916">
        <ele>177.60000610352</ele>
        <time>2011-11-17T13:40:41.000Z</time>
      </trkpt>
      <trkpt lat="48.70094" lon="1.72946">
        <ele>178.60000610352</ele>
        <time>2011-11-17T13:40:47.000Z</time>
      </trkpt>
      <trkpt lat="48.70082" lon="1.72983">
        <ele>179.80000305176</ele>
        <time>2011-11-17T13:40:55.000Z</time>
      </trkpt>
      <trkpt lat="48.70072" lon="1.73011">
        <ele>181.19999694824</ele>
        <time>2011-11-17T13:41:01.000Z</time>
      </trkpt>
      <trkpt lat="48.70066" lon="1.73034">
        <ele>182</ele>
        <time>2011-11-17T13:41:06.000Z</time>
      </trkpt>
      <trkpt lat="48.70058" lon="1.73056">
        <ele>182.80000305176</ele>
        <time>2011-11-17T13:41:11.000Z</time>
      </trkpt>
      <trkpt lat="48.70049" lon="1.73083">
        <ele>183.60000610352</ele>
        <time>2011-11-17T13:41:17.000Z</time>
      </trkpt>
      <trkpt lat="48.7004" lon="1.73113">
        <ele>183</ele>
        <time>2011-11-17T13:41:24.000Z</time>
      </trkpt>
      <trkpt lat="48.70032" lon="1.73135">
        <ele>182.60000610352</ele>
        <time>2011-11-17T13:41:29.000Z</time>
      </trkpt>
      <trkpt lat="48.70022" lon="1.73162">
        <ele>181.80000305176</ele>
        <time>2011-11-17T13:41:35.000Z</time>
      </trkpt>
      <trkpt lat="48.70012" lon="1.73184">
        <ele>181</ele>
        <time>2011-11-17T13:41:40.000Z</time>
      </trkpt>
      <trkpt lat="48.70004" lon="1.73204">
        <ele>180.19999694824</ele>
        <time>2011-11-17T13:41:45.000Z</time>
      </trkpt>
      <trkpt lat="48.69995" lon="1.73222">
        <ele>179</ele>
        <time>2011-11-17T13:41:50.000Z</time>
      </trkpt>
      <trkpt lat="48.69981" lon="1.73246">
        <ele>177.39999389648</ele>
        <time>2011-11-17T13:41:56.000Z</time>
      </trkpt>
      <trkpt lat="48.69971" lon="1.73267">
        <ele>177.19999694824</ele>
        <time>2011-11-17T13:42:01.000Z</time>
      </trkpt>
      <trkpt lat="48.6996" lon="1.7329">
        <ele>177.19999694824</ele>
        <time>2011-11-17T13:42:07.000Z</time>
      </trkpt>
      <trkpt lat="48.6995" lon="1.73313">
        <ele>177.19999694824</ele>
        <time>2011-11-17T13:42:13.000Z</time>
      </trkpt>
      <trkpt lat="48.69939" lon="1.73334">
        <ele>177.39999389648</ele>
        <time>2011-11-17T13:42:19.000Z</time>
      </trkpt>
      <trkpt lat="48.69927" lon="1.73356">
        <ele>177.60000610352</ele>
        <time>2011-11-17T13:42:25.000Z</time>
      </trkpt>
      <trkpt lat="48.69913" lon="1.73383">
        <ele>178.19999694824</ele>
        <time>2011-11-17T13:42:32.000Z</time>
      </trkpt>
      <trkpt lat="48.69907" lon="1.73399">
        <ele>178.60000610352</ele>
        <time>2011-11-17T13:42:36.000Z</time>
      </trkpt>
      <trkpt lat="48.69896" lon="1.73423">
        <ele>178.80000305176</ele>
        <time>2011-11-17T13:42:42.000Z</time>
      </trkpt>
      <trkpt lat="48.69881" lon="1.73448">
        <ele>178.19999694824</ele>
        <time>2011-11-17T13:42:49.000Z</time>
      </trkpt>
      <trkpt lat="48.69872" lon="1.73474">
        <ele>178</ele>
        <time>2011-11-17T13:42:55.000Z</time>
      </trkpt>
      <trkpt lat="48.69861" lon="1.73494">
        <ele>178</ele>
        <time>2011-11-17T13:43:00.000Z</time>
      </trkpt>
      <trkpt lat="48.69853" lon="1.73509">
        <ele>178.19999694824</ele>
        <time>2011-11-17T13:43:04.000Z</time>
      </trkpt>
      <trkpt lat="48.69846" lon="1.73523">
        <ele>178.39999389648</ele>
        <time>2011-11-17T13:43:08.000Z</time>
      </trkpt>
      <trkpt lat="48.69836" lon="1.73543">
        <ele>178.80000305176</ele>
        <time>2011-11-17T13:43:13.000Z</time>
      </trkpt>
      <trkpt lat="48.69824" lon="1.73564">
        <ele>179</ele>
        <time>2011-11-17T13:43:19.000Z</time>
      </trkpt>
      <trkpt lat="48.69815" lon="1.73582">
        <ele>179</ele>
        <time>2011-11-17T13:43:24.000Z</time>
      </trkpt>
      <trkpt lat="48.69804" lon="1.73605">
        <ele>179</ele>
        <time>2011-11-17T13:43:30.000Z</time>
      </trkpt>
      <trkpt lat="48.69796" lon="1.73622">
        <ele>179.19999694824</ele>
        <time>2011-11-17T13:43:35.000Z</time>
      </trkpt>
      <trkpt lat="48.69789" lon="1.73637">
        <ele>179.19999694824</ele>
        <time>2011-11-17T13:43:41.000Z</time>
      </trkpt>
      <trkpt lat="48.69781" lon="1.73652">
        <ele>179.39999389648</ele>
        <time>2011-11-17T13:43:49.000Z</time>
      </trkpt>
      <trkpt lat="48.69778" lon="1.73656">
        <ele>179.39999389648</ele>
        <time>2011-11-17T13:43:52.000Z</time>
      </trkpt>
      <trkpt lat="48.69774" lon="1.73664">
        <ele>179.60000610352</ele>
        <time>2011-11-17T13:43:57.000Z</time>
      </trkpt>
      <trkpt lat="48.69774" lon="1.73671">
        <ele>179.60000610352</ele>
        <time>2011-11-17T13:44:01.000Z</time>
      </trkpt>
      <trkpt lat="48.69778" lon="1.73676">
        <ele>179.19999694824</ele>
        <time>2011-11-17T13:44:05.000Z</time>
      </trkpt>
      <trkpt lat="48.69787" lon="1.73678">
        <ele>179.19999694824</ele>
        <time>2011-11-17T13:44:09.000Z</time>
      </trkpt>
      <trkpt lat="48.69796" lon="1.73676">
        <ele>179.19999694824</ele>
        <time>2011-11-17T13:44:17.000Z</time>
      </trkpt>
      <trkpt lat="48.69806" lon="1.73677">
        <ele>179</ele>
        <time>2011-11-17T13:44:23.000Z</time>
      </trkpt>
      <trkpt lat="48.69809" lon="1.73676">
        <ele>179</ele>
        <time>2011-11-17T13:44:25.000Z</time>
      </trkpt>
      <trkpt lat="48.69815" lon="1.73677">
        <ele>179</ele>
        <time>2011-11-17T13:44:30.000Z</time>
      </trkpt>
      <trkpt lat="48.69825" lon="1.73679">
        <ele>178.80000305176</ele>
        <time>2011-11-17T13:44:38.000Z</time>
      </trkpt>
      <trkpt lat="48.69834" lon="1.73679">
        <ele>178.80000305176</ele>
        <time>2011-11-17T13:44:44.000Z</time>
      </trkpt>
      <trkpt lat="48.69837" lon="1.7368">
        <ele>178.60000610352</ele>
        <time>2011-11-17T13:44:47.000Z</time>
      </trkpt>
      <trkpt lat="48.69841" lon="1.73681">
        <ele>178.60000610352</ele>
        <time>2011-11-17T13:44:50.000Z</time>
      </trkpt>
      <trkpt lat="48.6985" lon="1.73683">
        <ele>178.39999389648</ele>
        <time>2011-11-17T13:44:56.000Z</time>
      </trkpt>
      <trkpt lat="48.69852" lon="1.73686">
        <ele>178.19999694824</ele>
        <time>2011-11-17T13:44:58.000Z</time>
      </trkpt>
      <trkpt lat="48.69863" lon="1.73688">
        <ele>178</ele>
        <time>2011-11-17T13:45:06.000Z</time>
      </trkpt>
      <trkpt lat="48.69865" lon="1.73689">
        <ele>178</ele>
        <time>2011-11-17T13:45:08.000Z</time>
      </trkpt>
      <trkpt lat="48.69868" lon="1.7369">
        <ele>178</ele>
        <time>2011-11-17T13:45:11.000Z</time>
      </trkpt>
      <trkpt lat="48.69874" lon="1.7369">
        <ele>177.80000305176</ele>
        <time>2011-11-17T13:45:16.000Z</time>
      </trkpt>
      <trkpt lat="48.69884" lon="1.73692">
        <ele>177.60000610352</ele>
        <time>2011-11-17T13:45:23.000Z</time>
      </trkpt>
      <trkpt lat="48.69886" lon="1.73693">
        <ele>177.60000610352</ele>
        <time>2011-11-17T13:45:25.000Z</time>
      </trkpt>
      <trkpt lat="48.69894" lon="1.73694">
        <ele>177.39999389648</ele>
        <time>2011-11-17T13:45:32.000Z</time>
      </trkpt>
      <trkpt lat="48.69903" lon="1.73694">
        <ele>177.19999694824</ele>
        <time>2011-11-17T13:45:37.000Z</time>
      </trkpt>
      <trkpt lat="48.69913" lon="1.73694">
        <ele>177</ele>
        <time>2011-11-17T13:45:43.000Z</time>
      </trkpt>
      <trkpt lat="48.69925" lon="1.73695">
        <ele>177</ele>
        <time>2011-11-17T13:45:51.000Z</time>
      </trkpt>
      <trkpt lat="48.69934" lon="1.73698">
        <ele>177.19999694824</ele>
        <time>2011-11-17T13:45:57.000Z</time>
      </trkpt>
      <trkpt lat="48.6994" lon="1.73699">
        <ele>177.39999389648</ele>
        <time>2011-11-17T13:46:03.000Z</time>
      </trkpt>
      <trkpt lat="48.69951" lon="1.73698">
        <ele>177.60000610352</ele>
        <time>2011-11-17T13:46:12.000Z</time>
      </trkpt>
      <trkpt lat="48.69956" lon="1.73697">
        <ele>177.60000610352</ele>
        <time>2011-11-17T13:46:15.000Z</time>
      </trkpt>
      <trkpt lat="48.69964" lon="1.73696">
        <ele>177.80000305176</ele>
        <time>2011-11-17T13:46:21.000Z</time>
      </trkpt>
      <trkpt lat="48.6997" lon="1.73696">
        <ele>178</ele>
        <time>2011-11-17T13:46:26.000Z</time>
      </trkpt>
      <trkpt lat="48.69973" lon="1.73697">
        <ele>178</ele>
        <time>2011-11-17T13:46:28.000Z</time>
      </trkpt>
      <trkpt lat="48.69983" lon="1.73698">
        <ele>178.19999694824</ele>
        <time>2011-11-17T13:46:35.000Z</time>
      </trkpt>
      <trkpt lat="48.69986" lon="1.73697">
        <ele>178.19999694824</ele>
        <time>2011-11-17T13:46:37.000Z</time>
      </trkpt>
      <trkpt lat="48.69997" lon="1.73697">
        <ele>178.39999389648</ele>
        <time>2011-11-17T13:46:45.000Z</time>
      </trkpt>
      <trkpt lat="48.70003" lon="1.73699">
        <ele>178.39999389648</ele>
        <time>2011-11-17T13:46:49.000Z</time>
      </trkpt>
      <trkpt lat="48.70013" lon="1.737">
        <ele>178.19999694824</ele>
        <time>2011-11-17T13:46:56.000Z</time>
      </trkpt>
      <trkpt lat="48.70015" lon="1.73701">
        <ele>178.19999694824</ele>
        <time>2011-11-17T13:46:58.000Z</time>
      </trkpt>
      <trkpt lat="48.70025" lon="1.73709">
        <ele>178</ele>
        <time>2011-11-17T13:47:05.000Z</time>
      </trkpt>
      <trkpt lat="48.70034" lon="1.73717">
        <ele>177.80000305176</ele>
        <time>2011-11-17T13:47:12.000Z</time>
      </trkpt>
      <trkpt lat="48.70045" lon="1.73723">
        <ele>177.60000610352</ele>
        <time>2011-11-17T13:47:19.000Z</time>
      </trkpt>
      <trkpt lat="48.7006" lon="1.73727">
        <ele>177.19999694824</ele>
        <time>2011-11-17T13:47:27.000Z</time>
      </trkpt>
      <trkpt lat="48.70069" lon="1.73731">
        <ele>177.19999694824</ele>
        <time>2011-11-17T13:47:34.000Z</time>
      </trkpt>
      <trkpt lat="48.70074" lon="1.73734">
        <ele>177</ele>
        <time>2011-11-17T13:47:38.000Z</time>
      </trkpt>
      <trkpt lat="48.70083" lon="1.73738">
        <ele>177</ele>
        <time>2011-11-17T13:47:45.000Z</time>
      </trkpt>
      <trkpt lat="48.70091" lon="1.73741">
        <ele>177</ele>
        <time>2011-11-17T13:47:51.000Z</time>
      </trkpt>
      <trkpt lat="48.70096" lon="1.73746">
        <ele>177</ele>
        <time>2011-11-17T13:47:57.000Z</time>
      </trkpt>
      <trkpt lat="48.701" lon="1.73749">
        <ele>177.19999694824</ele>
        <time>2011-11-17T13:48:02.000Z</time>
      </trkpt>
      <trkpt lat="48.70106" lon="1.73757">
        <ele>177.19999694824</ele>
        <time>2011-11-17T13:48:07.000Z</time>
      </trkpt>
      <trkpt lat="48.70112" lon="1.73766">
        <ele>177.39999389648</ele>
        <time>2011-11-17T13:48:12.000Z</time>
      </trkpt>
      <trkpt lat="48.70119" lon="1.73774">
        <ele>177.39999389648</ele>
        <time>2011-11-17T13:48:17.000Z</time>
      </trkpt>
      <trkpt lat="48.70122" lon="1.73775">
        <ele>177.60000610352</ele>
        <time>2011-11-17T13:48:19.000Z</time>
      </trkpt>
      <trkpt lat="48.70127" lon="1.73779">
        <ele>177.60000610352</ele>
        <time>2011-11-17T13:48:23.000Z</time>
      </trkpt>
      <trkpt lat="48.70133" lon="1.73784">
        <ele>177.60000610352</ele>
        <time>2011-11-17T13:48:28.000Z</time>
      </trkpt>
      <trkpt lat="48.70141" lon="1.73789">
        <ele>177.80000305176</ele>
        <time>2011-11-17T13:48:35.000Z</time>
      </trkpt>
      <trkpt lat="48.70149" lon="1.73798">
        <ele>177.80000305176</ele>
        <time>2011-11-17T13:48:43.000Z</time>
      </trkpt>
      <trkpt lat="48.70154" lon="1.73803">
        <ele>177.80000305176</ele>
        <time>2011-11-17T13:48:49.000Z</time>
      </trkpt>
      <trkpt lat="48.70155" lon="1.73805">
        <ele>177.80000305176</ele>
        <time>2011-11-17T13:48:50.000Z</time>
      </trkpt>
      <trkpt lat="48.70154" lon="1.73806">
        <ele>177.80000305176</ele>
        <time>2011-11-17T13:48:56.000Z</time>
      </trkpt>
      <trkpt lat="48.70155" lon="1.73806">
        <ele>177.80000305176</ele>
        <time>2011-11-17T13:49:01.000Z</time>
      </trkpt>
      <trkpt lat="48.70152" lon="1.73805">
        <ele>177.80000305176</ele>
        <time>2011-11-17T13:51:13.000Z</time>
      </trkpt>
      <trkpt lat="48.70161" lon="1.73814">
        <ele>177.80000305176</ele>
        <time>2011-11-17T13:51:18.000Z</time>
      </trkpt>
      <trkpt lat="48.7017" lon="1.73825">
        <ele>178</ele>
        <time>2011-11-17T13:51:25.000Z</time>
      </trkpt>
      <trkpt lat="48.70179" lon="1.73837">
        <ele>178</ele>
        <time>2011-11-17T13:51:33.000Z</time>
      </trkpt>
      <trkpt lat="48.70187" lon="1.73847">
        <ele>178</ele>
        <time>2011-11-17T13:51:39.000Z</time>
      </trkpt>
      <trkpt lat="48.70189" lon="1.7385">
        <ele>178</ele>
        <time>2011-11-17T13:51:41.000Z</time>
      </trkpt>
      <trkpt lat="48.70195" lon="1.73856">
        <ele>178</ele>
        <time>2011-11-17T13:51:46.000Z</time>
      </trkpt>
      <trkpt lat="48.70205" lon="1.73866">
        <ele>178</ele>
        <time>2011-11-17T13:51:55.000Z</time>
      </trkpt>
      <trkpt lat="48.70216" lon="1.73874">
        <ele>178</ele>
        <time>2011-11-17T13:52:03.000Z</time>
      </trkpt>
      <trkpt lat="48.70226" lon="1.73882">
        <ele>178</ele>
        <time>2011-11-17T13:52:11.000Z</time>
      </trkpt>
      <trkpt lat="48.70236" lon="1.73891">
        <ele>178</ele>
        <time>2011-11-17T13:52:19.000Z</time>
      </trkpt>
      <trkpt lat="48.70243" lon="1.73899">
        <ele>178</ele>
        <time>2011-11-17T13:52:26.000Z</time>
      </trkpt>
      <trkpt lat="48.70246" lon="1.73901">
        <ele>178</ele>
        <time>2011-11-17T13:52:28.000Z</time>
      </trkpt>
      <trkpt lat="48.70252" lon="1.73913">
        <ele>178</ele>
        <time>2011-11-17T13:52:36.000Z</time>
      </trkpt>
      <trkpt lat="48.70261" lon="1.73926">
        <ele>178.39999389648</ele>
        <time>2011-11-17T13:52:44.000Z</time>
      </trkpt>
      <trkpt lat="48.70266" lon="1.73937">
        <ele>178.80000305176</ele>
        <time>2011-11-17T13:52:50.000Z</time>
      </trkpt>
      <trkpt lat="48.70273" lon="1.73944">
        <ele>179</ele>
        <time>2011-11-17T13:52:55.000Z</time>
      </trkpt>
      <trkpt lat="48.70279" lon="1.73952">
        <ele>179.19999694824</ele>
        <time>2011-11-17T13:53:01.000Z</time>
      </trkpt>
      <trkpt lat="48.70284" lon="1.73964">
        <ele>179.60000610352</ele>
        <time>2011-11-17T13:53:08.000Z</time>
      </trkpt>
      <trkpt lat="48.7029" lon="1.73975">
        <ele>179.80000305176</ele>
        <time>2011-11-17T13:53:16.000Z</time>
      </trkpt>
      <trkpt lat="48.70291" lon="1.73977">
        <ele>179.80000305176</ele>
        <time>2011-11-17T13:53:17.000Z</time>
      </trkpt>
      <trkpt lat="48.70297" lon="1.73987">
        <ele>180</ele>
        <time>2011-11-17T13:53:25.000Z</time>
      </trkpt>
      <trkpt lat="48.70305" lon="1.73995">
        <ele>180.19999694824</ele>
        <time>2011-11-17T13:53:31.000Z</time>
      </trkpt>
      <trkpt lat="48.70306" lon="1.73996">
        <ele>180.19999694824</ele>
        <time>2011-11-17T13:53:32.000Z</time>
      </trkpt>
      <trkpt lat="48.70309" lon="1.74">
        <ele>180.19999694824</ele>
        <time>2011-11-17T13:53:36.000Z</time>
      </trkpt>
      <trkpt lat="48.7031" lon="1.73999">
        <ele>180.19999694824</ele>
        <time>2011-11-17T13:53:38.000Z</time>
      </trkpt>
      <trkpt lat="48.70318" lon="1.74006">
        <ele>180.19999694824</ele>
        <time>2011-11-17T13:53:43.000Z</time>
      </trkpt>
      <trkpt lat="48.70319" lon="1.74007">
        <ele>180</ele>
        <time>2011-11-17T13:53:44.000Z</time>
      </trkpt>
      <trkpt lat="48.70325" lon="1.7401">
        <ele>180</ele>
        <time>2011-11-17T13:53:49.000Z</time>
      </trkpt>
      <trkpt lat="48.70336" lon="1.74021">
        <ele>179.80000305176</ele>
        <time>2011-11-17T13:53:58.000Z</time>
      </trkpt>
      <trkpt lat="48.70345" lon="1.74031">
        <ele>179.80000305176</ele>
        <time>2011-11-17T13:54:06.000Z</time>
      </trkpt>
      <trkpt lat="48.70354" lon="1.74037">
        <ele>179.60000610352</ele>
        <time>2011-11-17T13:54:13.000Z</time>
      </trkpt>
      <trkpt lat="48.70359" lon="1.74039">
        <ele>179.60000610352</ele>
        <time>2011-11-17T13:54:16.000Z</time>
      </trkpt>
      <trkpt lat="48.70365" lon="1.74048">
        <ele>179.39999389648</ele>
        <time>2011-11-17T13:54:23.000Z</time>
      </trkpt>
      <trkpt lat="48.70367" lon="1.74052">
        <ele>179.39999389648</ele>
        <time>2011-11-17T13:54:25.000Z</time>
      </trkpt>
      <trkpt lat="48.70373" lon="1.74061">
        <ele>179.19999694824</ele>
        <time>2011-11-17T13:54:31.000Z</time>
      </trkpt>
      <trkpt lat="48.70383" lon="1.74068">
        <ele>179</ele>
        <time>2011-11-17T13:54:38.000Z</time>
      </trkpt>
      <trkpt lat="48.70393" lon="1.74076">
        <ele>178.60000610352</ele>
        <time>2011-11-17T13:54:45.000Z</time>
      </trkpt>
      <trkpt lat="48.70403" lon="1.74086">
        <ele>178.19999694824</ele>
        <time>2011-11-17T13:54:53.000Z</time>
      </trkpt>
      <trkpt lat="48.70415" lon="1.74098">
        <ele>177.80000305176</ele>
        <time>2011-11-17T13:55:01.000Z</time>
      </trkpt>
      <trkpt lat="48.70417" lon="1.74101">
        <ele>177.60000610352</ele>
        <time>2011-11-17T13:55:03.000Z</time>
      </trkpt>
      <trkpt lat="48.70421" lon="1.74107">
        <ele>177.60000610352</ele>
        <time>2011-11-17T13:55:07.000Z</time>
      </trkpt>
      <trkpt lat="48.70428" lon="1.7412">
        <ele>177.60000610352</ele>
        <time>2011-11-17T13:55:15.000Z</time>
      </trkpt>
      <trkpt lat="48.70436" lon="1.74128">
        <ele>177.39999389648</ele>
        <time>2011-11-17T13:55:22.000Z</time>
      </trkpt>
      <trkpt lat="48.70444" lon="1.74137">
        <ele>177.39999389648</ele>
        <time>2011-11-17T13:55:30.000Z</time>
      </trkpt>
      <trkpt lat="48.70445" lon="1.74139">
        <ele>177.39999389648</ele>
        <time>2011-11-17T13:55:32.000Z</time>
      </trkpt>
      <trkpt lat="48.70455" lon="1.74151">
        <ele>177.39999389648</ele>
        <time>2011-11-17T13:55:40.000Z</time>
      </trkpt>
      <trkpt lat="48.70458" lon="1.74155">
        <ele>177.39999389648</ele>
        <time>2011-11-17T13:55:43.000Z</time>
      </trkpt>
      <trkpt lat="48.70463" lon="1.7416">
        <ele>177.39999389648</ele>
        <time>2011-11-17T13:55:48.000Z</time>
      </trkpt>
      <trkpt lat="48.70474" lon="1.74174">
        <ele>177.60000610352</ele>
        <time>2011-11-17T13:55:57.000Z</time>
      </trkpt>
      <trkpt lat="48.7048" lon="1.74187">
        <ele>177.80000305176</ele>
        <time>2011-11-17T13:56:05.000Z</time>
      </trkpt>
      <trkpt lat="48.70482" lon="1.74191">
        <ele>177.80000305176</ele>
        <time>2011-11-17T13:56:07.000Z</time>
      </trkpt>
      <trkpt lat="48.70486" lon="1.74195">
        <ele>177.80000305176</ele>
        <time>2011-11-17T13:56:11.000Z</time>
      </trkpt>
      <trkpt lat="48.70497" lon="1.74202">
        <ele>177.80000305176</ele>
        <time>2011-11-17T13:56:19.000Z</time>
      </trkpt>
      <trkpt lat="48.70499" lon="1.74205">
        <ele>177.80000305176</ele>
        <time>2011-11-17T13:56:22.000Z</time>
      </trkpt>
      <trkpt lat="48.70502" lon="1.7421">
        <ele>177.80000305176</ele>
        <time>2011-11-17T13:56:26.000Z</time>
      </trkpt>
      <trkpt lat="48.70502" lon="1.74211">
        <ele>177.80000305176</ele>
        <time>2011-11-17T13:56:27.000Z</time>
      </trkpt>
      <trkpt lat="48.70503" lon="1.74219">
        <ele>177.80000305176</ele>
        <time>2011-11-17T13:56:33.000Z</time>
      </trkpt>
      <trkpt lat="48.70501" lon="1.74235">
        <ele>177.80000305176</ele>
        <time>2011-11-17T13:56:41.000Z</time>
      </trkpt>
      <trkpt lat="48.70501" lon="1.7424">
        <ele>177.80000305176</ele>
        <time>2011-11-17T13:56:44.000Z</time>
      </trkpt>
      <trkpt lat="48.70499" lon="1.74249">
        <ele>178</ele>
        <time>2011-11-17T13:56:49.000Z</time>
      </trkpt>
      <trkpt lat="48.70499" lon="1.74253">
        <ele>178</ele>
        <time>2011-11-17T13:56:51.000Z</time>
      </trkpt>
      <trkpt lat="48.70499" lon="1.74255">
        <ele>178</ele>
        <time>2011-11-17T13:56:55.000Z</time>
      </trkpt>
      <trkpt lat="48.70502" lon="1.74263">
        <ele>178</ele>
        <time>2011-11-17T13:57:01.000Z</time>
      </trkpt>
      <trkpt lat="48.70502" lon="1.74276">
        <ele>178.19999694824</ele>
        <time>2011-11-17T13:57:06.000Z</time>
      </trkpt>
      <trkpt lat="48.70503" lon="1.7429">
        <ele>178.39999389648</ele>
        <time>2011-11-17T13:57:11.000Z</time>
      </trkpt>
      <trkpt lat="48.70502" lon="1.74306">
        <ele>178.60000610352</ele>
        <time>2011-11-17T13:57:18.000Z</time>
      </trkpt>
      <trkpt lat="48.70503" lon="1.7432">
        <ele>178.80000305176</ele>
        <time>2011-11-17T13:57:25.000Z</time>
      </trkpt>
      <trkpt lat="48.70502" lon="1.74334">
        <ele>179</ele>
        <time>2011-11-17T13:57:32.000Z</time>
      </trkpt>
      <trkpt lat="48.70502" lon="1.7435">
        <ele>179.39999389648</ele>
        <time>2011-11-17T13:57:39.000Z</time>
      </trkpt>
      <trkpt lat="48.70502" lon="1.74367">
        <ele>179.80000305176</ele>
        <time>2011-11-17T13:57:47.000Z</time>
      </trkpt>
      <trkpt lat="48.70502" lon="1.74386">
        <ele>180.19999694824</ele>
        <time>2011-11-17T13:57:56.000Z</time>
      </trkpt>
      <trkpt lat="48.70501" lon="1.74401">
        <ele>180.60000610352</ele>
        <time>2011-11-17T13:58:03.000Z</time>
      </trkpt>
      <trkpt lat="48.70501" lon="1.74417">
        <ele>181</ele>
        <time>2011-11-17T13:58:11.000Z</time>
      </trkpt>
      <trkpt lat="48.70501" lon="1.7443">
        <ele>181.19999694824</ele>
        <time>2011-11-17T13:58:17.000Z</time>
      </trkpt>
      <trkpt lat="48.70501" lon="1.74443">
        <ele>181.19999694824</ele>
        <time>2011-11-17T13:58:24.000Z</time>
      </trkpt>
      <trkpt lat="48.705" lon="1.74445">
        <ele>181.19999694824</ele>
        <time>2011-11-17T13:58:25.000Z</time>
      </trkpt>
      <trkpt lat="48.705" lon="1.74449">
        <ele>181.19999694824</ele>
        <time>2011-11-17T13:58:27.000Z</time>
      </trkpt>
      <trkpt lat="48.705" lon="1.74463">
        <ele>181.39999389648</ele>
        <time>2011-11-17T13:58:33.000Z</time>
      </trkpt>
      <trkpt lat="48.70499" lon="1.74482">
        <ele>181.60000610352</ele>
        <time>2011-11-17T13:58:41.000Z</time>
      </trkpt>
      <trkpt lat="48.705" lon="1.74501">
        <ele>181.80000305176</ele>
        <time>2011-11-17T13:58:50.000Z</time>
      </trkpt>
      <trkpt lat="48.705" lon="1.74517">
        <ele>182</ele>
        <time>2011-11-17T13:58:57.000Z</time>
      </trkpt>
      <trkpt lat="48.70499" lon="1.74532">
        <ele>181.80000305176</ele>
        <time>2011-11-17T13:59:05.000Z</time>
      </trkpt>
      <trkpt lat="48.70498" lon="1.74549">
        <ele>181.80000305176</ele>
        <time>2011-11-17T13:59:14.000Z</time>
      </trkpt>
      <trkpt lat="48.70497" lon="1.74554">
        <ele>181.80000305176</ele>
        <time>2011-11-17T13:59:17.000Z</time>
      </trkpt>
      <trkpt lat="48.70497" lon="1.74566">
        <ele>181.80000305176</ele>
        <time>2011-11-17T13:59:23.000Z</time>
      </trkpt>
      <trkpt lat="48.70495" lon="1.74579">
        <ele>181.60000610352</ele>
        <time>2011-11-17T13:59:29.000Z</time>
      </trkpt>
      <trkpt lat="48.70495" lon="1.7459">
        <ele>181.60000610352</ele>
        <time>2011-11-17T13:59:34.000Z</time>
      </trkpt>
      <trkpt lat="48.70496" lon="1.74594">
        <ele>181.60000610352</ele>
        <time>2011-11-17T13:59:36.000Z</time>
      </trkpt>
      <trkpt lat="48.70495" lon="1.7461">
        <ele>181.39999389648</ele>
        <time>2011-11-17T13:59:45.000Z</time>
      </trkpt>
      <trkpt lat="48.70495" lon="1.74624">
        <ele>181.19999694824</ele>
        <time>2011-11-17T13:59:52.000Z</time>
      </trkpt>
      <trkpt lat="48.70497" lon="1.74644">
        <ele>181</ele>
        <time>2011-11-17T14:00:02.000Z</time>
      </trkpt>
      <trkpt lat="48.70496" lon="1.74656">
        <ele>180.80000305176</ele>
        <time>2011-11-17T14:00:08.000Z</time>
      </trkpt>
      <trkpt lat="48.70495" lon="1.74668">
        <ele>180.80000305176</ele>
        <time>2011-11-17T14:00:14.000Z</time>
      </trkpt>
      <trkpt lat="48.70496" lon="1.74688">
        <ele>181.19999694824</ele>
        <time>2011-11-17T14:00:24.000Z</time>
      </trkpt>
      <trkpt lat="48.70496" lon="1.74705">
        <ele>181.60000610352</ele>
        <time>2011-11-17T14:00:32.000Z</time>
      </trkpt>
      <trkpt lat="48.70495" lon="1.74723">
        <ele>182</ele>
        <time>2011-11-17T14:00:40.000Z</time>
      </trkpt>
      <trkpt lat="48.70495" lon="1.74737">
        <ele>182.19999694824</ele>
        <time>2011-11-17T14:00:47.000Z</time>
      </trkpt>
      <trkpt lat="48.70495" lon="1.74755">
        <ele>182.60000610352</ele>
        <time>2011-11-17T14:00:55.000Z</time>
      </trkpt>
      <trkpt lat="48.70495" lon="1.74774">
        <ele>182.80000305176</ele>
        <time>2011-11-17T14:01:03.000Z</time>
      </trkpt>
      <trkpt lat="48.70494" lon="1.74791">
        <ele>182.80000305176</ele>
        <time>2011-11-17T14:01:11.000Z</time>
      </trkpt>
      <trkpt lat="48.70494" lon="1.74803">
        <ele>183</ele>
        <time>2011-11-17T14:01:17.000Z</time>
      </trkpt>
      <trkpt lat="48.70493" lon="1.74822">
        <ele>183.19999694824</ele>
        <time>2011-11-17T14:01:25.000Z</time>
      </trkpt>
      <trkpt lat="48.70492" lon="1.74838">
        <ele>183.39999389648</ele>
        <time>2011-11-17T14:01:32.000Z</time>
      </trkpt>
      <trkpt lat="48.70491" lon="1.74855">
        <ele>183.39999389648</ele>
        <time>2011-11-17T14:01:40.000Z</time>
      </trkpt>
      <trkpt lat="48.70491" lon="1.74868">
        <ele>183.60000610352</ele>
        <time>2011-11-17T14:01:46.000Z</time>
      </trkpt>
      <trkpt lat="48.70492" lon="1.74878">
        <ele>183.80000305176</ele>
        <time>2011-11-17T14:01:52.000Z</time>
      </trkpt>
      <trkpt lat="48.70492" lon="1.74894">
        <ele>184</ele>
        <time>2011-11-17T14:01:59.000Z</time>
      </trkpt>
      <trkpt lat="48.70492" lon="1.74896">
        <ele>184</ele>
        <time>2011-11-17T14:02:03.000Z</time>
      </trkpt>
      <trkpt lat="48.7049" lon="1.74903">
        <ele>184</ele>
        <time>2011-11-17T14:02:29.000Z</time>
      </trkpt>
      <trkpt lat="48.7049" lon="1.74919">
        <ele>184</ele>
        <time>2011-11-17T14:02:34.000Z</time>
      </trkpt>
      <trkpt lat="48.7049" lon="1.74926">
        <ele>183.80000305176</ele>
        <time>2011-11-17T14:02:37.000Z</time>
      </trkpt>
      <trkpt lat="48.70489" lon="1.74945">
        <ele>183.39999389648</ele>
        <time>2011-11-17T14:02:45.000Z</time>
      </trkpt>
      <trkpt lat="48.70488" lon="1.74959">
        <ele>183.19999694824</ele>
        <time>2011-11-17T14:02:51.000Z</time>
      </trkpt>
      <trkpt lat="48.70487" lon="1.74974">
        <ele>182.80000305176</ele>
        <time>2011-11-17T14:02:58.000Z</time>
      </trkpt>
      <trkpt lat="48.70487" lon="1.7499">
        <ele>182.60000610352</ele>
        <time>2011-11-17T14:03:05.000Z</time>
      </trkpt>
      <trkpt lat="48.70487" lon="1.75001">
        <ele>182.39999389648</ele>
        <time>2011-11-17T14:03:10.000Z</time>
      </trkpt>
      <trkpt lat="48.70486" lon="1.75016">
        <ele>181.80000305176</ele>
        <time>2011-11-17T14:03:18.000Z</time>
      </trkpt>
      <trkpt lat="48.70486" lon="1.75027">
        <ele>181.39999389648</ele>
        <time>2011-11-17T14:03:22.000Z</time>
      </trkpt>
      <trkpt lat="48.70484" lon="1.75039">
        <ele>180.80000305176</ele>
        <time>2011-11-17T14:03:29.000Z</time>
      </trkpt>
      <trkpt lat="48.70484" lon="1.75042">
        <ele>180.80000305176</ele>
        <time>2011-11-17T14:03:31.000Z</time>
      </trkpt>
      <trkpt lat="48.70483" lon="1.7505">
        <ele>180.39999389648</ele>
        <time>2011-11-17T14:03:35.000Z</time>
      </trkpt>
      <trkpt lat="48.70481" lon="1.75065">
        <ele>180</ele>
        <time>2011-11-17T14:03:43.000Z</time>
      </trkpt>
      <trkpt lat="48.70483" lon="1.75076">
        <ele>179.60000610352</ele>
        <time>2011-11-17T14:03:48.000Z</time>
      </trkpt>
      <trkpt lat="48.70483" lon="1.75084">
        <ele>179.19999694824</ele>
        <time>2011-11-17T14:03:52.000Z</time>
      </trkpt>
      <trkpt lat="48.70481" lon="1.75102">
        <ele>178.39999389648</ele>
        <time>2011-11-17T14:04:01.000Z</time>
      </trkpt>
      <trkpt lat="48.70479" lon="1.75118">
        <ele>177.80000305176</ele>
        <time>2011-11-17T14:04:09.000Z</time>
      </trkpt>
      <trkpt lat="48.70474" lon="1.75134">
        <ele>177.39999389648</ele>
        <time>2011-11-17T14:04:17.000Z</time>
      </trkpt>
      <trkpt lat="48.70468" lon="1.75147">
        <ele>177.39999389648</ele>
        <time>2011-11-17T14:04:24.000Z</time>
      </trkpt>
      <trkpt lat="48.70466" lon="1.75158">
        <ele>177.39999389648</ele>
        <time>2011-11-17T14:04:30.000Z</time>
      </trkpt>
      <trkpt lat="48.70461" lon="1.7517">
        <ele>177.39999389648</ele>
        <time>2011-11-17T14:04:37.000Z</time>
      </trkpt>
      <trkpt lat="48.70457" lon="1.75177">
        <ele>177.80000305176</ele>
        <time>2011-11-17T14:04:42.000Z</time>
      </trkpt>
      <trkpt lat="48.70455" lon="1.75183">
        <ele>177.80000305176</ele>
        <time>2011-11-17T14:04:45.000Z</time>
      </trkpt>
      <trkpt lat="48.70452" lon="1.75192">
        <ele>177.80000305176</ele>
        <time>2011-11-17T14:04:50.000Z</time>
      </trkpt>
      <trkpt lat="48.7045" lon="1.75201">
        <ele>177.80000305176</ele>
        <time>2011-11-17T14:04:55.000Z</time>
      </trkpt>
      <trkpt lat="48.70447" lon="1.7522">
        <ele>177.39999389648</ele>
        <time>2011-11-17T14:05:04.000Z</time>
      </trkpt>
      <trkpt lat="48.70445" lon="1.75228">
        <ele>177.39999389648</ele>
        <time>2011-11-17T14:05:08.000Z</time>
      </trkpt>
      <trkpt lat="48.70438" lon="1.75246">
        <ele>177.19999694824</ele>
        <time>2011-11-17T14:05:18.000Z</time>
      </trkpt>
      <trkpt lat="48.70433" lon="1.75263">
        <ele>177.39999389648</ele>
        <time>2011-11-17T14:05:28.000Z</time>
      </trkpt>
      <trkpt lat="48.70432" lon="1.75268">
        <ele>177.39999389648</ele>
        <time>2011-11-17T14:05:31.000Z</time>
      </trkpt>
      <trkpt lat="48.70429" lon="1.7528">
        <ele>177.60000610352</ele>
        <time>2011-11-17T14:05:37.000Z</time>
      </trkpt>
      <trkpt lat="48.70425" lon="1.75294">
        <ele>177.80000305176</ele>
        <time>2011-11-17T14:05:45.000Z</time>
      </trkpt>
      <trkpt lat="48.70421" lon="1.75309">
        <ele>177.80000305176</ele>
        <time>2011-11-17T14:05:53.000Z</time>
      </trkpt>
      <trkpt lat="48.70417" lon="1.75324">
        <ele>178</ele>
        <time>2011-11-17T14:06:01.000Z</time>
      </trkpt>
      <trkpt lat="48.70415" lon="1.7533">
        <ele>178</ele>
        <time>2011-11-17T14:06:04.000Z</time>
      </trkpt>
      <trkpt lat="48.7041" lon="1.75339">
        <ele>178.39999389648</ele>
        <time>2011-11-17T14:06:10.000Z</time>
      </trkpt>
      <trkpt lat="48.70405" lon="1.75352">
        <ele>179</ele>
        <time>2011-11-17T14:06:18.000Z</time>
      </trkpt>
      <trkpt lat="48.704" lon="1.75367">
        <ele>179.80000305176</ele>
        <time>2011-11-17T14:06:26.000Z</time>
      </trkpt>
      <trkpt lat="48.70396" lon="1.75386">
        <ele>180.60000610352</ele>
        <time>2011-11-17T14:06:36.000Z</time>
      </trkpt>
      <trkpt lat="48.70397" lon="1.75397">
        <ele>181</ele>
        <time>2011-11-17T14:06:43.000Z</time>
      </trkpt>
      <trkpt lat="48.70399" lon="1.75405">
        <ele>181.19999694824</ele>
        <time>2011-11-17T14:06:47.000Z</time>
      </trkpt>
      <trkpt lat="48.70404" lon="1.75411">
        <ele>181.60000610352</ele>
        <time>2011-11-17T14:06:52.000Z</time>
      </trkpt>
      <trkpt lat="48.70406" lon="1.75413">
        <ele>181.60000610352</ele>
        <time>2011-11-17T14:06:54.000Z</time>
      </trkpt>
      <trkpt lat="48.70412" lon="1.75423">
        <ele>182</ele>
        <time>2011-11-17T14:07:01.000Z</time>
      </trkpt>
      <trkpt lat="48.70416" lon="1.75425">
        <ele>182.19999694824</ele>
        <time>2011-11-17T14:07:04.000Z</time>
      </trkpt>
      <trkpt lat="48.70429" lon="1.75432">
        <ele>181.39999389648</ele>
        <time>2011-11-17T14:07:11.000Z</time>
      </trkpt>
      <trkpt lat="48.70437" lon="1.75437">
        <ele>181</ele>
        <time>2011-11-17T14:07:18.000Z</time>
      </trkpt>
      <trkpt lat="48.70445" lon="1.75444">
        <ele>180.80000305176</ele>
        <time>2011-11-17T14:07:24.000Z</time>
      </trkpt>
      <trkpt lat="48.70453" lon="1.75451">
        <ele>180.60000610352</ele>
        <time>2011-11-17T14:07:30.000Z</time>
      </trkpt>
      <trkpt lat="48.70463" lon="1.75458">
        <ele>180.39999389648</ele>
        <time>2011-11-17T14:07:37.000Z</time>
      </trkpt>
      <trkpt lat="48.7047" lon="1.75465">
        <ele>180.39999389648</ele>
        <time>2011-11-17T14:07:43.000Z</time>
      </trkpt>
      <trkpt lat="48.70477" lon="1.75472">
        <ele>180.39999389648</ele>
        <time>2011-11-17T14:07:50.000Z</time>
      </trkpt>
      <trkpt lat="48.70482" lon="1.75477">
        <ele>180.39999389648</ele>
        <time>2011-11-17T14:07:53.000Z</time>
      </trkpt>
      <trkpt lat="48.7049" lon="1.75486">
        <ele>180.39999389648</ele>
        <time>2011-11-17T14:08:00.000Z</time>
      </trkpt>
      <trkpt lat="48.70497" lon="1.75493">
        <ele>180.60000610352</ele>
        <time>2011-11-17T14:08:06.000Z</time>
      </trkpt>
      <trkpt lat="48.70506" lon="1.755">
        <ele>180.39999389648</ele>
        <time>2011-11-17T14:08:13.000Z</time>
      </trkpt>
      <trkpt lat="48.70509" lon="1.75502">
        <ele>180.19999694824</ele>
        <time>2011-11-17T14:08:16.000Z</time>
      </trkpt>
      <trkpt lat="48.70517" lon="1.75512">
        <ele>180.19999694824</ele>
        <time>2011-11-17T14:08:23.000Z</time>
      </trkpt>
      <trkpt lat="48.70525" lon="1.75521">
        <ele>180.19999694824</ele>
        <time>2011-11-17T14:08:29.000Z</time>
      </trkpt>
      <trkpt lat="48.7053" lon="1.75529">
        <ele>180.39999389648</ele>
        <time>2011-11-17T14:08:33.000Z</time>
      </trkpt>
      <trkpt lat="48.70538" lon="1.75534">
        <ele>180.19999694824</ele>
        <time>2011-11-17T14:08:39.000Z</time>
      </trkpt>
      <trkpt lat="48.7054" lon="1.75535">
        <ele>180.19999694824</ele>
        <time>2011-11-17T14:08:40.000Z</time>
      </trkpt>
      <trkpt lat="48.70547" lon="1.75544">
        <ele>180.60000610352</ele>
        <time>2011-11-17T14:08:46.000Z</time>
      </trkpt>
      <trkpt lat="48.70555" lon="1.75554">
        <ele>181</ele>
        <time>2011-11-17T14:08:53.000Z</time>
      </trkpt>
      <trkpt lat="48.70556" lon="1.75555">
        <ele>181</ele>
        <time>2011-11-17T14:08:54.000Z</time>
      </trkpt>
      <trkpt lat="48.70561" lon="1.7556">
        <ele>181.39999389648</ele>
        <time>2011-11-17T14:09:00.000Z</time>
      </trkpt>
      <trkpt lat="48.70573" lon="1.75571">
        <ele>181.80000305176</ele>
        <time>2011-11-17T14:09:08.000Z</time>
      </trkpt>
      <trkpt lat="48.70582" lon="1.75581">
        <ele>182.60000610352</ele>
        <time>2011-11-17T14:09:16.000Z</time>
      </trkpt>
      <trkpt lat="48.70589" lon="1.75591">
        <ele>182.60000610352</ele>
        <time>2011-11-17T14:09:22.000Z</time>
      </trkpt>
      <trkpt lat="48.70595" lon="1.75598">
        <ele>182</ele>
        <time>2011-11-17T14:09:28.000Z</time>
      </trkpt>
      <trkpt lat="48.70602" lon="1.75609">
        <ele>181.60000610352</ele>
        <time>2011-11-17T14:09:35.000Z</time>
      </trkpt>
      <trkpt lat="48.70609" lon="1.75617">
        <ele>181</ele>
        <time>2011-11-17T14:09:42.000Z</time>
      </trkpt>
      <trkpt lat="48.70616" lon="1.75625">
        <ele>180.39999389648</ele>
        <time>2011-11-17T14:09:48.000Z</time>
      </trkpt>
      <trkpt lat="48.70623" lon="1.75632">
        <ele>179.80000305176</ele>
        <time>2011-11-17T14:09:54.000Z</time>
      </trkpt>
      <trkpt lat="48.7063" lon="1.75646">
        <ele>179.19999694824</ele>
        <time>2011-11-17T14:10:02.000Z</time>
      </trkpt>
      <trkpt lat="48.70631" lon="1.75647">
        <ele>179</ele>
        <time>2011-11-17T14:10:03.000Z</time>
      </trkpt>
      <trkpt lat="48.70633" lon="1.75648">
        <ele>178.80000305176</ele>
        <time>2011-11-17T14:10:05.000Z</time>
      </trkpt>
      <trkpt lat="48.70635" lon="1.75648">
        <ele>178.39999389648</ele>
        <time>2011-11-17T14:10:11.000Z</time>
      </trkpt>
      <trkpt lat="48.70651" lon="1.75601">
        <ele>176.39999389648</ele>
        <time>2011-11-17T14:12:41.000Z</time>
      </trkpt>
      <trkpt lat="48.70656" lon="1.75592">
        <ele>176</ele>
        <time>2011-11-17T14:12:47.000Z</time>
      </trkpt>
      <trkpt lat="48.70657" lon="1.75591">
        <ele>175.80000305176</ele>
        <time>2011-11-17T14:12:48.000Z</time>
      </trkpt>
      <trkpt lat="48.70659" lon="1.75588">
        <ele>175.60000610352</ele>
        <time>2011-11-17T14:12:51.000Z</time>
      </trkpt>
      <trkpt lat="48.70665" lon="1.75578">
        <ele>175</ele>
        <time>2011-11-17T14:12:59.000Z</time>
      </trkpt>
      <trkpt lat="48.70671" lon="1.75567">
        <ele>174.39999389648</ele>
        <time>2011-11-17T14:13:09.000Z</time>
      </trkpt>
      <trkpt lat="48.70674" lon="1.75566">
        <ele>174.19999694824</ele>
        <time>2011-11-17T14:13:14.000Z</time>
      </trkpt>
      <trkpt lat="48.70674" lon="1.75566">
        <ele>174.19999694824</ele>
        <time>2011-11-17T14:13:15.000Z</time>
      </trkpt>
      <trkpt lat="48.70677" lon="1.75557">
        <ele>174</ele>
        <time>2011-11-17T14:13:48.000Z</time>
      </trkpt>
      <trkpt lat="48.70681" lon="1.75549">
        <ele>173.60000610352</ele>
        <time>2011-11-17T14:13:53.000Z</time>
      </trkpt>
      <trkpt lat="48.70685" lon="1.75539">
        <ele>173.19999694824</ele>
        <time>2011-11-17T14:13:59.000Z</time>
      </trkpt>
      <trkpt lat="48.7069" lon="1.75527">
        <ele>172.80000305176</ele>
        <time>2011-11-17T14:14:06.000Z</time>
      </trkpt>
      <trkpt lat="48.70694" lon="1.75517">
        <ele>172.60000610352</ele>
        <time>2011-11-17T14:14:13.000Z</time>
      </trkpt>
      <trkpt lat="48.70695" lon="1.75515">
        <ele>172.60000610352</ele>
        <time>2011-11-17T14:14:16.000Z</time>
      </trkpt>
      <trkpt lat="48.70802" lon="1.75854">
        <ele>172.60000610352</ele>
        <time>2011-11-18T09:36:19.000Z</time>
      </trkpt>
      <trkpt lat="48.70802" lon="1.75854">
        <ele>172.60000610352</ele>
        <time>2011-11-18T09:36:19.000Z</time>
      </trkpt>
      <trkpt lat="48.70802" lon="1.75854">
        <ele>172.60000610352</ele>
        <time>2011-11-18T09:36:20.000Z</time>
      </trkpt>
      <trkpt lat="48.70785" lon="1.75855">
        <ele>172.60000610352</ele>
        <time>2011-11-18T09:37:04.000Z</time>
      </trkpt>
      <trkpt lat="48.70779" lon="1.75848">
        <ele>172.60000610352</ele>
        <time>2011-11-18T09:37:10.000Z</time>
      </trkpt>
      <trkpt lat="48.70778" lon="1.75847">
        <ele>172.60000610352</ele>
        <time>2011-11-18T09:37:11.000Z</time>
      </trkpt>
      <trkpt lat="48.70777" lon="1.75847">
        <ele>172.60000610352</ele>
        <time>2011-11-18T09:37:14.000Z</time>
      </trkpt>
      <trkpt lat="48.70773" lon="1.75839">
        <ele>172.60000610352</ele>
        <time>2011-11-18T09:37:28.000Z</time>
      </trkpt>
      <trkpt lat="48.70765" lon="1.75827">
        <ele>172.80000305176</ele>
        <time>2011-11-18T09:37:33.000Z</time>
      </trkpt>
      <trkpt lat="48.70758" lon="1.75816">
        <ele>173</ele>
        <time>2011-11-18T09:37:42.000Z</time>
      </trkpt>
      <trkpt lat="48.7075" lon="1.75804">
        <ele>173.19999694824</ele>
        <time>2011-11-18T09:37:51.000Z</time>
      </trkpt>
      <trkpt lat="48.70743" lon="1.75793">
        <ele>173.39999389648</ele>
        <time>2011-11-18T09:38:00.000Z</time>
      </trkpt>
      <trkpt lat="48.70735" lon="1.75781">
        <ele>173.39999389648</ele>
        <time>2011-11-18T09:38:10.000Z</time>
      </trkpt>
      <trkpt lat="48.70728" lon="1.75769">
        <ele>173.60000610352</ele>
        <time>2011-11-18T09:38:20.000Z</time>
      </trkpt>
      <trkpt lat="48.70727" lon="1.75768">
        <ele>173.60000610352</ele>
        <time>2011-11-18T09:38:21.000Z</time>
      </trkpt>
      <trkpt lat="48.70726" lon="1.7576">
        <ele>173.80000305176</ele>
        <time>2011-11-18T09:38:27.000Z</time>
      </trkpt>
      <trkpt lat="48.70719" lon="1.7575">
        <ele>173.80000305176</ele>
        <time>2011-11-18T09:38:34.000Z</time>
      </trkpt>
      <trkpt lat="48.70714" lon="1.75744">
        <ele>173.80000305176</ele>
        <time>2011-11-18T09:38:40.000Z</time>
      </trkpt>
      <trkpt lat="48.70708" lon="1.75738">
        <ele>174</ele>
        <time>2011-11-18T09:38:45.000Z</time>
      </trkpt>
      <trkpt lat="48.70706" lon="1.75734">
        <ele>174</ele>
        <time>2011-11-18T09:38:48.000Z</time>
      </trkpt>
      <trkpt lat="48.70698" lon="1.75724">
        <ele>174</ele>
        <time>2011-11-18T09:38:58.000Z</time>
      </trkpt>
      <trkpt lat="48.70691" lon="1.75714">
        <ele>174</ele>
        <time>2011-11-18T09:39:06.000Z</time>
      </trkpt>
      <trkpt lat="48.70684" lon="1.75705">
        <ele>174.19999694824</ele>
        <time>2011-11-18T09:39:14.000Z</time>
      </trkpt>
      <trkpt lat="48.70672" lon="1.75692">
        <ele>174.60000610352</ele>
        <time>2011-11-18T09:39:25.000Z</time>
      </trkpt>
      <trkpt lat="48.70663" lon="1.75685">
        <ele>175</ele>
        <time>2011-11-18T09:39:34.000Z</time>
      </trkpt>
      <trkpt lat="48.70657" lon="1.75683">
        <ele>175.80000305176</ele>
        <time>2011-11-18T09:39:41.000Z</time>
      </trkpt>
      <trkpt lat="48.70652" lon="1.75689">
        <ele>176.19999694824</ele>
        <time>2011-11-18T09:39:46.000Z</time>
      </trkpt>
      <trkpt lat="48.70644" lon="1.75699">
        <ele>176.60000610352</ele>
        <time>2011-11-18T09:39:55.000Z</time>
      </trkpt>
      <trkpt lat="48.70638" lon="1.75712">
        <ele>176.80000305176</ele>
        <time>2011-11-18T09:40:04.000Z</time>
      </trkpt>
      <trkpt lat="48.70637" lon="1.75714">
        <ele>176.80000305176</ele>
        <time>2011-11-18T09:40:05.000Z</time>
      </trkpt>
      <trkpt lat="48.70634" lon="1.7572">
        <ele>177</ele>
        <time>2011-11-18T09:40:10.000Z</time>
      </trkpt>
      <trkpt lat="48.70628" lon="1.75732">
        <ele>177</ele>
        <time>2011-11-18T09:40:19.000Z</time>
      </trkpt>
      <trkpt lat="48.70623" lon="1.75743">
        <ele>176.80000305176</ele>
        <time>2011-11-18T09:40:26.000Z</time>
      </trkpt>
      <trkpt lat="48.70616" lon="1.75751">
        <ele>177</ele>
        <time>2011-11-18T09:40:35.000Z</time>
      </trkpt>
      <trkpt lat="48.70614" lon="1.75752">
        <ele>177</ele>
        <time>2011-11-18T09:40:37.000Z</time>
      </trkpt>
      <trkpt lat="48.7061" lon="1.75757">
        <ele>177</ele>
        <time>2011-11-18T09:40:41.000Z</time>
      </trkpt>
      <trkpt lat="48.70605" lon="1.75766">
        <ele>177</ele>
        <time>2011-11-18T09:40:49.000Z</time>
      </trkpt>
      <trkpt lat="48.70603" lon="1.75768">
        <ele>177.19999694824</ele>
        <time>2011-11-18T09:40:51.000Z</time>
      </trkpt>
      <trkpt lat="48.70598" lon="1.75777">
        <ele>177.19999694824</ele>
        <time>2011-11-18T09:40:57.000Z</time>
      </trkpt>
      <trkpt lat="48.70596" lon="1.75779">
        <ele>177.19999694824</ele>
        <time>2011-11-18T09:40:59.000Z</time>
      </trkpt>
      <trkpt lat="48.70588" lon="1.75792">
        <ele>177.19999694824</ele>
        <time>2011-11-18T09:41:09.000Z</time>
      </trkpt>
      <trkpt lat="48.70586" lon="1.75801">
        <ele>176.80000305176</ele>
        <time>2011-11-18T09:41:14.000Z</time>
      </trkpt>
      <trkpt lat="48.70583" lon="1.75813">
        <ele>176.60000610352</ele>
        <time>2011-11-18T09:41:22.000Z</time>
      </trkpt>
      <trkpt lat="48.70577" lon="1.75823">
        <ele>176.80000305176</ele>
        <time>2011-11-18T09:41:29.000Z</time>
      </trkpt>
      <trkpt lat="48.70575" lon="1.75834">
        <ele>176.60000610352</ele>
        <time>2011-11-18T09:41:35.000Z</time>
      </trkpt>
      <trkpt lat="48.70573" lon="1.75848">
        <ele>176.80000305176</ele>
        <time>2011-11-18T09:41:43.000Z</time>
      </trkpt>
      <trkpt lat="48.70568" lon="1.75854">
        <ele>177.19999694824</ele>
        <time>2011-11-18T09:41:48.000Z</time>
      </trkpt>
      <trkpt lat="48.70567" lon="1.75854">
        <ele>177.39999389648</ele>
        <time>2011-11-18T09:41:49.000Z</time>
      </trkpt>
      <trkpt lat="48.70564" lon="1.75861">
        <ele>177.60000610352</ele>
        <time>2011-11-18T09:41:54.000Z</time>
      </trkpt>
      <trkpt lat="48.70562" lon="1.75867">
        <ele>177.80000305176</ele>
        <time>2011-11-18T09:41:59.000Z</time>
      </trkpt>
      <trkpt lat="48.70559" lon="1.75875">
        <ele>178</ele>
        <time>2011-11-18T09:42:05.000Z</time>
      </trkpt>
      <trkpt lat="48.7056" lon="1.75881">
        <ele>177.80000305176</ele>
        <time>2011-11-18T09:42:08.000Z</time>
      </trkpt>
      <trkpt lat="48.70557" lon="1.75882">
        <ele>178</ele>
        <time>2011-11-18T09:42:10.000Z</time>
      </trkpt>
      <trkpt lat="48.70552" lon="1.75887">
        <ele>178.39999389648</ele>
        <time>2011-11-18T09:42:17.000Z</time>
      </trkpt>
      <trkpt lat="48.70548" lon="1.75895">
        <ele>178.60000610352</ele>
        <time>2011-11-18T09:42:24.000Z</time>
      </trkpt>
      <trkpt lat="48.70545" lon="1.75901">
        <ele>178.80000305176</ele>
        <time>2011-11-18T09:42:30.000Z</time>
      </trkpt>
      <trkpt lat="48.70543" lon="1.7591">
        <ele>178.80000305176</ele>
        <time>2011-11-18T09:42:36.000Z</time>
      </trkpt>
      <trkpt lat="48.7054" lon="1.75916">
        <ele>179</ele>
        <time>2011-11-18T09:42:43.000Z</time>
      </trkpt>
      <trkpt lat="48.70536" lon="1.7592">
        <ele>179.19999694824</ele>
        <time>2011-11-18T09:42:48.000Z</time>
      </trkpt>
      <trkpt lat="48.70534" lon="1.7592">
        <ele>179.19999694824</ele>
        <time>2011-11-18T09:42:49.000Z</time>
      </trkpt>
      <trkpt lat="48.70529" lon="1.75924">
        <ele>179.39999389648</ele>
        <time>2011-11-18T09:42:54.000Z</time>
      </trkpt>
      <trkpt lat="48.70524" lon="1.75927">
        <ele>179.60000610352</ele>
        <time>2011-11-18T09:42:58.000Z</time>
      </trkpt>
      <trkpt lat="48.70516" lon="1.75936">
        <ele>179.80000305176</ele>
        <time>2011-11-18T09:43:06.000Z</time>
      </trkpt>
      <trkpt lat="48.7051" lon="1.75945">
        <ele>179.80000305176</ele>
        <time>2011-11-18T09:43:13.000Z</time>
      </trkpt>
      <trkpt lat="48.70503" lon="1.75953">
        <ele>180</ele>
        <time>2011-11-18T09:43:20.000Z</time>
      </trkpt>
      <trkpt lat="48.70497" lon="1.75965">
        <ele>179.60000610352</ele>
        <time>2011-11-18T09:43:28.000Z</time>
      </trkpt>
      <trkpt lat="48.70493" lon="1.75972">
        <ele>179.39999389648</ele>
        <time>2011-11-18T09:43:34.000Z</time>
      </trkpt>
      <trkpt lat="48.70494" lon="1.75975">
        <ele>179.19999694824</ele>
        <time>2011-11-18T09:43:38.000Z</time>
      </trkpt>
      <trkpt lat="48.705" lon="1.75997">
        <ele>178</ele>
        <time>2011-11-18T09:44:54.000Z</time>
      </trkpt>
      <trkpt lat="48.70496" lon="1.76002">
        <ele>178</ele>
        <time>2011-11-18T09:44:57.000Z</time>
      </trkpt>
      <trkpt lat="48.70493" lon="1.76011">
        <ele>177.60000610352</ele>
        <time>2011-11-18T09:45:04.000Z</time>
      </trkpt>
      <trkpt lat="48.70492" lon="1.76019">
        <ele>177.19999694824</ele>
        <time>2011-11-18T09:45:09.000Z</time>
      </trkpt>
      <trkpt lat="48.70489" lon="1.76031">
        <ele>176.39999389648</ele>
        <time>2011-11-18T09:45:16.000Z</time>
      </trkpt>
      <trkpt lat="48.70488" lon="1.76035">
        <ele>176.19999694824</ele>
        <time>2011-11-18T09:45:19.000Z</time>
      </trkpt>
      <trkpt lat="48.70487" lon="1.76039">
        <ele>176</ele>
        <time>2011-11-18T09:45:22.000Z</time>
      </trkpt>
      <trkpt lat="48.70481" lon="1.76053">
        <ele>175.60000610352</ele>
        <time>2011-11-18T09:45:31.000Z</time>
      </trkpt>
      <trkpt lat="48.7048" lon="1.76056">
        <ele>175.39999389648</ele>
        <time>2011-11-18T09:45:33.000Z</time>
      </trkpt>
      <trkpt lat="48.70478" lon="1.76058">
        <ele>175.39999389648</ele>
        <time>2011-11-18T09:45:35.000Z</time>
      </trkpt>
      <trkpt lat="48.70478" lon="1.76061">
        <ele>175.19999694824</ele>
        <time>2011-11-18T09:45:37.000Z</time>
      </trkpt>
      <trkpt lat="48.70473" lon="1.76078">
        <ele>174.60000610352</ele>
        <time>2011-11-18T09:45:47.000Z</time>
      </trkpt>
      <trkpt lat="48.70472" lon="1.76082">
        <ele>174.39999389648</ele>
        <time>2011-11-18T09:45:49.000Z</time>
      </trkpt>
      <trkpt lat="48.7047" lon="1.7609">
        <ele>174.19999694824</ele>
        <time>2011-11-18T09:45:55.000Z</time>
      </trkpt>
      <trkpt lat="48.70469" lon="1.76093">
        <ele>174.19999694824</ele>
        <time>2011-11-18T09:45:57.000Z</time>
      </trkpt>
      <trkpt lat="48.70465" lon="1.76104">
        <ele>174.39999389648</ele>
        <time>2011-11-18T09:46:03.000Z</time>
      </trkpt>
      <trkpt lat="48.70462" lon="1.76113">
        <ele>174.39999389648</ele>
        <time>2011-11-18T09:46:08.000Z</time>
      </trkpt>
      <trkpt lat="48.70462" lon="1.76122">
        <ele>174.19999694824</ele>
        <time>2011-11-18T09:46:12.000Z</time>
      </trkpt>
      <trkpt lat="48.70463" lon="1.76133">
        <ele>174</ele>
        <time>2011-11-18T09:46:17.000Z</time>
      </trkpt>
      <trkpt lat="48.70461" lon="1.76143">
        <ele>174</ele>
        <time>2011-11-18T09:46:23.000Z</time>
      </trkpt>
      <trkpt lat="48.70461" lon="1.76147">
        <ele>174</ele>
        <time>2011-11-18T09:46:25.000Z</time>
      </trkpt>
      <trkpt lat="48.7046" lon="1.76153">
        <ele>174</ele>
        <time>2011-11-18T09:46:28.000Z</time>
      </trkpt>
      <trkpt lat="48.70459" lon="1.76167">
        <ele>173.80000305176</ele>
        <time>2011-11-18T09:46:36.000Z</time>
      </trkpt>
      <trkpt lat="48.70461" lon="1.76183">
        <ele>173.39999389648</ele>
        <time>2011-11-18T09:46:45.000Z</time>
      </trkpt>
      <trkpt lat="48.70461" lon="1.76187">
        <ele>173.19999694824</ele>
        <time>2011-11-18T09:46:48.000Z</time>
      </trkpt>
      <trkpt lat="48.70466" lon="1.76197">
        <ele>172.80000305176</ele>
        <time>2011-11-18T09:46:55.000Z</time>
      </trkpt>
      <trkpt lat="48.70469" lon="1.76211">
        <ele>172.39999389648</ele>
        <time>2011-11-18T09:47:04.000Z</time>
      </trkpt>
      <trkpt lat="48.70471" lon="1.76226">
        <ele>171.80000305176</ele>
        <time>2011-11-18T09:47:10.000Z</time>
      </trkpt>
      <trkpt lat="48.70469" lon="1.7623">
        <ele>171.80000305176</ele>
        <time>2011-11-18T09:47:12.000Z</time>
      </trkpt>
      <trkpt lat="48.70465" lon="1.76237">
        <ele>171.80000305176</ele>
        <time>2011-11-18T09:47:17.000Z</time>
      </trkpt>
      <trkpt lat="48.70465" lon="1.76241">
        <ele>171.80000305176</ele>
        <time>2011-11-18T09:47:19.000Z</time>
      </trkpt>
      <trkpt lat="48.70464" lon="1.76255">
        <ele>171.60000610352</ele>
        <time>2011-11-18T09:47:27.000Z</time>
      </trkpt>
      <trkpt lat="48.70459" lon="1.76264">
        <ele>172</ele>
        <time>2011-11-18T09:47:34.000Z</time>
      </trkpt>
      <trkpt lat="48.70455" lon="1.76274">
        <ele>172.19999694824</ele>
        <time>2011-11-18T09:47:41.000Z</time>
      </trkpt>
      <trkpt lat="48.70454" lon="1.76278">
        <ele>172.19999694824</ele>
        <time>2011-11-18T09:47:43.000Z</time>
      </trkpt>
      <trkpt lat="48.70452" lon="1.76287">
        <ele>172.39999389648</ele>
        <time>2011-11-18T09:47:49.000Z</time>
      </trkpt>
      <trkpt lat="48.70451" lon="1.76288">
        <ele>172.39999389648</ele>
        <time>2011-11-18T09:47:50.000Z</time>
      </trkpt>
      <trkpt lat="48.70451" lon="1.76288">
        <ele>172.39999389648</ele>
        <time>2011-11-18T09:47:53.000Z</time>
      </trkpt>
      <trkpt lat="48.70448" lon="1.76298">
        <ele>172.60000610352</ele>
        <time>2011-11-18T09:48:10.000Z</time>
      </trkpt>
      <trkpt lat="48.70447" lon="1.76312">
        <ele>172.80000305176</ele>
        <time>2011-11-18T09:48:15.000Z</time>
      </trkpt>
      <trkpt lat="48.70448" lon="1.7632">
        <ele>172.80000305176</ele>
        <time>2011-11-18T09:48:18.000Z</time>
      </trkpt>
      <trkpt lat="48.70449" lon="1.76336">
        <ele>172.80000305176</ele>
        <time>2011-11-18T09:48:25.000Z</time>
      </trkpt>
      <trkpt lat="48.70452" lon="1.76354">
        <ele>173.60000610352</ele>
        <time>2011-11-18T09:48:34.000Z</time>
      </trkpt>
      <trkpt lat="48.70456" lon="1.7637">
        <ele>174.19999694824</ele>
        <time>2011-11-18T09:48:42.000Z</time>
      </trkpt>
      <trkpt lat="48.70455" lon="1.76377">
        <ele>174.60000610352</ele>
        <time>2011-11-18T09:48:47.000Z</time>
      </trkpt>
      <trkpt lat="48.70449" lon="1.76385">
        <ele>175.19999694824</ele>
        <time>2011-11-18T09:48:54.000Z</time>
      </trkpt>
      <trkpt lat="48.70448" lon="1.76387">
        <ele>175.39999389648</ele>
        <time>2011-11-18T09:48:55.000Z</time>
      </trkpt>
      <trkpt lat="48.70436" lon="1.76392">
        <ele>176</ele>
        <time>2011-11-18T09:49:02.000Z</time>
      </trkpt>
      <trkpt lat="48.70427" lon="1.76398">
        <ele>176.60000610352</ele>
        <time>2011-11-18T09:49:10.000Z</time>
      </trkpt>
      <trkpt lat="48.70421" lon="1.76401">
        <ele>177</ele>
        <time>2011-11-18T09:49:14.000Z</time>
      </trkpt>
      <trkpt lat="48.70411" lon="1.76401">
        <ele>177</ele>
        <time>2011-11-18T09:49:21.000Z</time>
      </trkpt>
      <trkpt lat="48.704" lon="1.76405">
        <ele>177</ele>
        <time>2011-11-18T09:49:29.000Z</time>
      </trkpt>
      <trkpt lat="48.70391" lon="1.76409">
        <ele>177</ele>
        <time>2011-11-18T09:49:36.000Z</time>
      </trkpt>
      <trkpt lat="48.70379" lon="1.76412">
        <ele>176.80000305176</ele>
        <time>2011-11-18T09:49:44.000Z</time>
      </trkpt>
      <trkpt lat="48.70369" lon="1.76413">
        <ele>176.60000610352</ele>
        <time>2011-11-18T09:49:52.000Z</time>
      </trkpt>
      <trkpt lat="48.70364" lon="1.76414">
        <ele>176.60000610352</ele>
        <time>2011-11-18T09:49:57.000Z</time>
      </trkpt>
      <trkpt lat="48.70355" lon="1.76415">
        <ele>176.39999389648</ele>
        <time>2011-11-18T09:50:05.000Z</time>
      </trkpt>
      <trkpt lat="48.70344" lon="1.76416">
        <ele>176.19999694824</ele>
        <time>2011-11-18T09:50:13.000Z</time>
      </trkpt>
      <trkpt lat="48.70333" lon="1.76424">
        <ele>176</ele>
        <time>2011-11-18T09:50:21.000Z</time>
      </trkpt>
      <trkpt lat="48.70326" lon="1.7643">
        <ele>176</ele>
        <time>2011-11-18T09:50:27.000Z</time>
      </trkpt>
      <trkpt lat="48.70321" lon="1.76435">
        <ele>176</ele>
        <time>2011-11-18T09:50:32.000Z</time>
      </trkpt>
      <trkpt lat="48.70316" lon="1.76435">
        <ele>175.80000305176</ele>
        <time>2011-11-18T09:50:36.000Z</time>
      </trkpt>
      <trkpt lat="48.70307" lon="1.76433">
        <ele>175.39999389648</ele>
        <time>2011-11-18T09:50:43.000Z</time>
      </trkpt>
      <trkpt lat="48.70296" lon="1.76431">
        <ele>175</ele>
        <time>2011-11-18T09:50:52.000Z</time>
      </trkpt>
      <trkpt lat="48.70283" lon="1.76427">
        <ele>174.39999389648</ele>
        <time>2011-11-18T09:51:00.000Z</time>
      </trkpt>
      <trkpt lat="48.70282" lon="1.76426">
        <ele>174.39999389648</ele>
        <time>2011-11-18T09:51:01.000Z</time>
      </trkpt>
      <trkpt lat="48.70271" lon="1.76422">
        <ele>173.80000305176</ele>
        <time>2011-11-18T09:51:08.000Z</time>
      </trkpt>
      <trkpt lat="48.70264" lon="1.76415">
        <ele>173.39999389648</ele>
        <time>2011-11-18T09:51:15.000Z</time>
      </trkpt>
      <trkpt lat="48.70255" lon="1.76407">
        <ele>173</ele>
        <time>2011-11-18T09:51:22.000Z</time>
      </trkpt>
      <trkpt lat="48.70246" lon="1.76397">
        <ele>172.60000610352</ele>
        <time>2011-11-18T09:51:30.000Z</time>
      </trkpt>
      <trkpt lat="48.70238" lon="1.76387">
        <ele>172.39999389648</ele>
        <time>2011-11-18T09:51:37.000Z</time>
      </trkpt>
      <trkpt lat="48.7023" lon="1.76378">
        <ele>172</ele>
        <time>2011-11-18T09:51:45.000Z</time>
      </trkpt>
      <trkpt lat="48.70224" lon="1.76373">
        <ele>171.80000305176</ele>
        <time>2011-11-18T09:51:51.000Z</time>
      </trkpt>
      <trkpt lat="48.70214" lon="1.76365">
        <ele>171.60000610352</ele>
        <time>2011-11-18T09:51:56.000Z</time>
      </trkpt>
      <trkpt lat="48.70205" lon="1.76358">
        <ele>171.19999694824</ele>
        <time>2011-11-18T09:52:02.000Z</time>
      </trkpt>
      <trkpt lat="48.70193" lon="1.76352">
        <ele>171</ele>
        <time>2011-11-18T09:52:09.000Z</time>
      </trkpt>
      <trkpt lat="48.70183" lon="1.76347">
        <ele>170.60000610352</ele>
        <time>2011-11-18T09:52:15.000Z</time>
      </trkpt>
      <trkpt lat="48.70174" lon="1.76343">
        <ele>170.39999389648</ele>
        <time>2011-11-18T09:52:22.000Z</time>
      </trkpt>
      <trkpt lat="48.70163" lon="1.76338">
        <ele>170</ele>
        <time>2011-11-18T09:52:30.000Z</time>
      </trkpt>
      <trkpt lat="48.70153" lon="1.76336">
        <ele>169.80000305176</ele>
        <time>2011-11-18T09:52:37.000Z</time>
      </trkpt>
      <trkpt lat="48.70141" lon="1.76335">
        <ele>169.60000610352</ele>
        <time>2011-11-18T09:52:45.000Z</time>
      </trkpt>
      <trkpt lat="48.70134" lon="1.76332">
        <ele>169.39999389648</ele>
        <time>2011-11-18T09:52:51.000Z</time>
      </trkpt>
      <trkpt lat="48.70122" lon="1.76323">
        <ele>169.19999694824</ele>
        <time>2011-11-18T09:53:01.000Z</time>
      </trkpt>
      <trkpt lat="48.70113" lon="1.76314">
        <ele>169</ele>
        <time>2011-11-18T09:53:09.000Z</time>
      </trkpt>
      <trkpt lat="48.70104" lon="1.76295">
        <ele>168.60000610352</ele>
        <time>2011-11-18T09:53:19.000Z</time>
      </trkpt>
      <trkpt lat="48.70099" lon="1.7628">
        <ele>168.39999389648</ele>
        <time>2011-11-18T09:53:27.000Z</time>
      </trkpt>
      <trkpt lat="48.70094" lon="1.76267">
        <ele>168.19999694824</ele>
        <time>2011-11-18T09:53:34.000Z</time>
      </trkpt>
      <trkpt lat="48.70085" lon="1.76253">
        <ele>168</ele>
        <time>2011-11-18T09:53:43.000Z</time>
      </trkpt>
      <trkpt lat="48.70076" lon="1.76243">
        <ele>167.80000305176</ele>
        <time>2011-11-18T09:53:51.000Z</time>
      </trkpt>
      <trkpt lat="48.70068" lon="1.76236">
        <ele>167.60000610352</ele>
        <time>2011-11-18T09:53:59.000Z</time>
      </trkpt>
      <trkpt lat="48.70056" lon="1.76227">
        <ele>167.39999389648</ele>
        <time>2011-11-18T09:54:08.000Z</time>
      </trkpt>
      <trkpt lat="48.70051" lon="1.76224">
        <ele>167.19999694824</ele>
        <time>2011-11-18T09:54:13.000Z</time>
      </trkpt>
      <trkpt lat="48.70038" lon="1.76216">
        <ele>167</ele>
        <time>2011-11-18T09:54:23.000Z</time>
      </trkpt>
      <trkpt lat="48.70029" lon="1.76208">
        <ele>166.80000305176</ele>
        <time>2011-11-18T09:54:30.000Z</time>
      </trkpt>
      <trkpt lat="48.70024" lon="1.76205">
        <ele>166.80000305176</ele>
        <time>2011-11-18T09:54:35.000Z</time>
      </trkpt>
      <trkpt lat="48.70011" lon="1.76192">
        <ele>166.60000610352</ele>
        <time>2011-11-18T09:54:40.000Z</time>
      </trkpt>
      <trkpt lat="48.69998" lon="1.76178">
        <ele>166.19999694824</ele>
        <time>2011-11-18T09:54:45.000Z</time>
      </trkpt>
      <trkpt lat="48.69986" lon="1.76157">
        <ele>166.39999389648</ele>
        <time>2011-11-18T09:54:51.000Z</time>
      </trkpt>
      <trkpt lat="48.69974" lon="1.76136">
        <ele>166.39999389648</ele>
        <time>2011-11-18T09:54:57.000Z</time>
      </trkpt>
      <trkpt lat="48.69961" lon="1.76118">
        <ele>166.39999389648</ele>
        <time>2011-11-18T09:55:03.000Z</time>
      </trkpt>
      <trkpt lat="48.69943" lon="1.76097">
        <ele>166</ele>
        <time>2011-11-18T09:55:10.000Z</time>
      </trkpt>
      <trkpt lat="48.69924" lon="1.76079">
        <ele>165.80000305176</ele>
        <time>2011-11-18T09:55:17.000Z</time>
      </trkpt>
      <trkpt lat="48.6991" lon="1.76066">
        <ele>166.19999694824</ele>
        <time>2011-11-18T09:55:23.000Z</time>
      </trkpt>
      <trkpt lat="48.69896" lon="1.76047">
        <ele>166.80000305176</ele>
        <time>2011-11-18T09:55:29.000Z</time>
      </trkpt>
      <trkpt lat="48.69878" lon="1.76032">
        <ele>167.19999694824</ele>
        <time>2011-11-18T09:55:35.000Z</time>
      </trkpt>
      <trkpt lat="48.69855" lon="1.76017">
        <ele>167.39999389648</ele>
        <time>2011-11-18T09:55:43.000Z</time>
      </trkpt>
      <trkpt lat="48.69838" lon="1.76004">
        <ele>167</ele>
        <time>2011-11-18T09:55:49.000Z</time>
      </trkpt>
      <trkpt lat="48.69823" lon="1.75995">
        <ele>167.39999389648</ele>
        <time>2011-11-18T09:55:55.000Z</time>
      </trkpt>
      <trkpt lat="48.69803" lon="1.75986">
        <ele>168</ele>
        <time>2011-11-18T09:56:02.000Z</time>
      </trkpt>
      <trkpt lat="48.69784" lon="1.75972">
        <ele>168.19999694824</ele>
        <time>2011-11-18T09:56:09.000Z</time>
      </trkpt>
      <trkpt lat="48.69763" lon="1.75957">
        <ele>168</ele>
        <time>2011-11-18T09:56:17.000Z</time>
      </trkpt>
      <trkpt lat="48.6975" lon="1.75951">
        <ele>168</ele>
        <time>2011-11-18T09:56:22.000Z</time>
      </trkpt>
      <trkpt lat="48.69735" lon="1.75946">
        <ele>168</ele>
        <time>2011-11-18T09:56:28.000Z</time>
      </trkpt>
      <trkpt lat="48.69715" lon="1.75932">
        <ele>167.39999389648</ele>
        <time>2011-11-18T09:56:36.000Z</time>
      </trkpt>
      <trkpt lat="48.697" lon="1.75922">
        <ele>167</ele>
        <time>2011-11-18T09:56:41.000Z</time>
      </trkpt>
      <trkpt lat="48.69678" lon="1.75909">
        <ele>166.19999694824</ele>
        <time>2011-11-18T09:56:48.000Z</time>
      </trkpt>
      <trkpt lat="48.69663" lon="1.75898">
        <ele>165.60000610352</ele>
        <time>2011-11-18T09:56:54.000Z</time>
      </trkpt>
      <trkpt lat="48.69657" lon="1.7589">
        <ele>165.39999389648</ele>
        <time>2011-11-18T09:56:58.000Z</time>
      </trkpt>
      <trkpt lat="48.69655" lon="1.75884">
        <ele>165</ele>
        <time>2011-11-18T09:57:03.000Z</time>
      </trkpt>
      <trkpt lat="48.69653" lon="1.75882">
        <ele>165</ele>
        <time>2011-11-18T09:57:05.000Z</time>
      </trkpt>
      <trkpt lat="48.69641" lon="1.75877">
        <ele>165</ele>
        <time>2011-11-18T09:57:13.000Z</time>
      </trkpt>
      <trkpt lat="48.69629" lon="1.75868">
        <ele>165.19999694824</ele>
        <time>2011-11-18T09:57:21.000Z</time>
      </trkpt>
      <trkpt lat="48.6962" lon="1.75863">
        <ele>165.19999694824</ele>
        <time>2011-11-18T09:57:27.000Z</time>
      </trkpt>
      <trkpt lat="48.69615" lon="1.75864">
        <ele>165.60000610352</ele>
        <time>2011-11-18T09:57:31.000Z</time>
      </trkpt>
      <trkpt lat="48.69613" lon="1.75863">
        <ele>165.60000610352</ele>
        <time>2011-11-18T09:57:33.000Z</time>
      </trkpt>
      <trkpt lat="48.69606" lon="1.7586">
        <ele>165.80000305176</ele>
        <time>2011-11-18T09:57:38.000Z</time>
      </trkpt>
      <trkpt lat="48.69598" lon="1.75858">
        <ele>166</ele>
        <time>2011-11-18T09:57:44.000Z</time>
      </trkpt>
      <trkpt lat="48.69595" lon="1.75857">
        <ele>166.19999694824</ele>
        <time>2011-11-18T09:57:46.000Z</time>
      </trkpt>
      <trkpt lat="48.69594" lon="1.75855">
        <ele>166.19999694824</ele>
        <time>2011-11-18T09:57:48.000Z</time>
      </trkpt>
      <trkpt lat="48.6958" lon="1.75854">
        <ele>166.60000610352</ele>
        <time>2011-11-18T09:57:57.000Z</time>
      </trkpt>
      <trkpt lat="48.69572" lon="1.75856">
        <ele>166.60000610352</ele>
        <time>2011-11-18T09:58:03.000Z</time>
      </trkpt>
      <trkpt lat="48.69563" lon="1.75855">
        <ele>166.39999389648</ele>
        <time>2011-11-18T09:58:09.000Z</time>
      </trkpt>
      <trkpt lat="48.69552" lon="1.75856">
        <ele>166.39999389648</ele>
        <time>2011-11-18T09:58:16.000Z</time>
      </trkpt>
      <trkpt lat="48.69546" lon="1.75855">
        <ele>166.19999694824</ele>
        <time>2011-11-18T09:58:20.000Z</time>
      </trkpt>
      <trkpt lat="48.6953" lon="1.75856">
        <ele>166.19999694824</ele>
        <time>2011-11-18T09:58:31.000Z</time>
      </trkpt>
      <trkpt lat="48.69519" lon="1.75857">
        <ele>166</ele>
        <time>2011-11-18T09:58:39.000Z</time>
      </trkpt>
      <trkpt lat="48.69506" lon="1.75856">
        <ele>165.80000305176</ele>
        <time>2011-11-18T09:58:49.000Z</time>
      </trkpt>
      <trkpt lat="48.69496" lon="1.75856">
        <ele>165.80000305176</ele>
        <time>2011-11-18T09:58:57.000Z</time>
      </trkpt>
      <trkpt lat="48.69482" lon="1.75857">
        <ele>166</ele>
        <time>2011-11-18T09:59:07.000Z</time>
      </trkpt>
      <trkpt lat="48.6947" lon="1.75857">
        <ele>166.19999694824</ele>
        <time>2011-11-18T09:59:16.000Z</time>
      </trkpt>
      <trkpt lat="48.6946" lon="1.75859">
        <ele>166.39999389648</ele>
        <time>2011-11-18T09:59:24.000Z</time>
      </trkpt>
      <trkpt lat="48.69449" lon="1.7586">
        <ele>166.60000610352</ele>
        <time>2011-11-18T09:59:32.000Z</time>
      </trkpt>
      <trkpt lat="48.69445" lon="1.7586">
        <ele>166.60000610352</ele>
        <time>2011-11-18T09:59:36.000Z</time>
      </trkpt>
      <trkpt lat="48.69438" lon="1.75859">
        <ele>166.60000610352</ele>
        <time>2011-11-18T09:59:41.000Z</time>
      </trkpt>
      <trkpt lat="48.69428" lon="1.75855">
        <ele>166.60000610352</ele>
        <time>2011-11-18T09:59:47.000Z</time>
      </trkpt>
      <trkpt lat="48.69426" lon="1.75853">
        <ele>166.60000610352</ele>
        <time>2011-11-18T09:59:49.000Z</time>
      </trkpt>
      <trkpt lat="48.69415" lon="1.75848">
        <ele>166.39999389648</ele>
        <time>2011-11-18T09:59:57.000Z</time>
      </trkpt>
      <trkpt lat="48.69404" lon="1.75844">
        <ele>166.19999694824</ele>
        <time>2011-11-18T10:00:06.000Z</time>
      </trkpt>
      <trkpt lat="48.69393" lon="1.75841">
        <ele>165.80000305176</ele>
        <time>2011-11-18T10:00:14.000Z</time>
      </trkpt>
      <trkpt lat="48.69386" lon="1.7584">
        <ele>165.80000305176</ele>
        <time>2011-11-18T10:00:20.000Z</time>
      </trkpt>
      <trkpt lat="48.69376" lon="1.75837">
        <ele>165.60000610352</ele>
        <time>2011-11-18T10:00:27.000Z</time>
      </trkpt>
      <trkpt lat="48.69364" lon="1.75836">
        <ele>165.39999389648</ele>
        <time>2011-11-18T10:00:35.000Z</time>
      </trkpt>
      <trkpt lat="48.69353" lon="1.75832">
        <ele>165.19999694824</ele>
        <time>2011-11-18T10:00:42.000Z</time>
      </trkpt>
      <trkpt lat="48.69346" lon="1.7583">
        <ele>165</ele>
        <time>2011-11-18T10:00:48.000Z</time>
      </trkpt>
      <trkpt lat="48.69336" lon="1.75829">
        <ele>164.80000305176</ele>
        <time>2011-11-18T10:00:55.000Z</time>
      </trkpt>
      <trkpt lat="48.6933" lon="1.75828">
        <ele>164.80000305176</ele>
        <time>2011-11-18T10:01:01.000Z</time>
      </trkpt>
      <trkpt lat="48.69323" lon="1.75825">
        <ele>164.60000610352</ele>
        <time>2011-11-18T10:01:06.000Z</time>
      </trkpt>
      <trkpt lat="48.69313" lon="1.75826">
        <ele>164.60000610352</ele>
        <time>2011-11-18T10:01:14.000Z</time>
      </trkpt>
      <trkpt lat="48.693" lon="1.75825">
        <ele>164.39999389648</ele>
        <time>2011-11-18T10:01:22.000Z</time>
      </trkpt>
      <trkpt lat="48.69289" lon="1.7583">
        <ele>164.19999694824</ele>
        <time>2011-11-18T10:01:30.000Z</time>
      </trkpt>
      <trkpt lat="48.69281" lon="1.75825">
        <ele>164</ele>
        <time>2011-11-18T10:01:36.000Z</time>
      </trkpt>
      <trkpt lat="48.6928" lon="1.75823">
        <ele>164</ele>
        <time>2011-11-18T10:01:37.000Z</time>
      </trkpt>
      <trkpt lat="48.69277" lon="1.75819">
        <ele>163.80000305176</ele>
        <time>2011-11-18T10:01:41.000Z</time>
      </trkpt>
      <trkpt lat="48.69268" lon="1.75805">
        <ele>163.19999694824</ele>
        <time>2011-11-18T10:01:48.000Z</time>
      </trkpt>
      <trkpt lat="48.6926" lon="1.7579">
        <ele>162.60000610352</ele>
        <time>2011-11-18T10:01:52.000Z</time>
      </trkpt>
      <trkpt lat="48.69249" lon="1.75769">
        <ele>161.60000610352</ele>
        <time>2011-11-18T10:01:56.000Z</time>
      </trkpt>
      <trkpt lat="48.69235" lon="1.75744">
        <ele>161.39999389648</ele>
        <time>2011-11-18T10:02:01.000Z</time>
      </trkpt>
      <trkpt lat="48.69222" lon="1.75722">
        <ele>161.39999389648</ele>
        <time>2011-11-18T10:02:05.000Z</time>
      </trkpt>
      <trkpt lat="48.69209" lon="1.75701">
        <ele>161.39999389648</ele>
        <time>2011-11-18T10:02:09.000Z</time>
      </trkpt>
      <trkpt lat="48.69201" lon="1.75686">
        <ele>161.19999694824</ele>
        <time>2011-11-18T10:02:12.000Z</time>
      </trkpt>
      <trkpt lat="48.69192" lon="1.75674">
        <ele>161.19999694824</ele>
        <time>2011-11-18T10:02:15.000Z</time>
      </trkpt>
      <trkpt lat="48.69183" lon="1.75657">
        <ele>160.80000305176</ele>
        <time>2011-11-18T10:02:19.000Z</time>
      </trkpt>
      <trkpt lat="48.69169" lon="1.75633">
        <ele>159.39999389648</ele>
        <time>2011-11-18T10:02:24.000Z</time>
      </trkpt>
      <trkpt lat="48.69162" lon="1.75623">
        <ele>159</ele>
        <time>2011-11-18T10:02:26.000Z</time>
      </trkpt>
      <trkpt lat="48.69155" lon="1.75613">
        <ele>158.60000610352</ele>
        <time>2011-11-18T10:02:28.000Z</time>
      </trkpt>
      <trkpt lat="48.69145" lon="1.75598">
        <ele>158</ele>
        <time>2011-11-18T10:02:31.000Z</time>
      </trkpt>
      <trkpt lat="48.69137" lon="1.75584">
        <ele>157.60000610352</ele>
        <time>2011-11-18T10:02:35.000Z</time>
      </trkpt>
      <trkpt lat="48.69125" lon="1.75562">
        <ele>158</ele>
        <time>2011-11-18T10:02:41.000Z</time>
      </trkpt>
      <trkpt lat="48.69107" lon="1.75533">
        <ele>158</ele>
        <time>2011-11-18T10:02:48.000Z</time>
      </trkpt>
      <trkpt lat="48.69099" lon="1.75521">
        <ele>157.60000610352</ele>
        <time>2011-11-18T10:02:52.000Z</time>
      </trkpt>
      <trkpt lat="48.69089" lon="1.75505">
        <ele>157.19999694824</ele>
        <time>2011-11-18T10:02:58.000Z</time>
      </trkpt>
      <trkpt lat="48.69079" lon="1.75487">
        <ele>157</ele>
        <time>2011-11-18T10:03:03.000Z</time>
      </trkpt>
      <trkpt lat="48.69068" lon="1.7547">
        <ele>157.19999694824</ele>
        <time>2011-11-18T10:03:08.000Z</time>
      </trkpt>
      <trkpt lat="48.69053" lon="1.75444">
        <ele>157.19999694824</ele>
        <time>2011-11-18T10:03:15.000Z</time>
      </trkpt>
      <trkpt lat="48.69039" lon="1.75418">
        <ele>157</ele>
        <time>2011-11-18T10:03:22.000Z</time>
      </trkpt>
      <trkpt lat="48.69023" lon="1.75392">
        <ele>157.39999389648</ele>
        <time>2011-11-18T10:03:29.000Z</time>
      </trkpt>
      <trkpt lat="48.69008" lon="1.75369">
        <ele>157.39999389648</ele>
        <time>2011-11-18T10:03:35.000Z</time>
      </trkpt>
      <trkpt lat="48.68993" lon="1.75343">
        <ele>156.80000305176</ele>
        <time>2011-11-18T10:03:42.000Z</time>
      </trkpt>
      <trkpt lat="48.68982" lon="1.75328">
        <ele>156.19999694824</ele>
        <time>2011-11-18T10:03:46.000Z</time>
      </trkpt>
      <trkpt lat="48.68974" lon="1.75311">
        <ele>155.60000610352</ele>
        <time>2011-11-18T10:03:51.000Z</time>
      </trkpt>
      <trkpt lat="48.68969" lon="1.75303">
        <ele>155.19999694824</ele>
        <time>2011-11-18T10:03:54.000Z</time>
      </trkpt>
      <trkpt lat="48.68966" lon="1.75289">
        <ele>154.80000305176</ele>
        <time>2011-11-18T10:04:00.000Z</time>
      </trkpt>
      <trkpt lat="48.68965" lon="1.75285">
        <ele>154.80000305176</ele>
        <time>2011-11-18T10:04:02.000Z</time>
      </trkpt>
      <trkpt lat="48.68954" lon="1.7527">
        <ele>154.19999694824</ele>
        <time>2011-11-18T10:04:12.000Z</time>
      </trkpt>
      <trkpt lat="48.68946" lon="1.75256">
        <ele>153.80000305176</ele>
        <time>2011-11-18T10:04:20.000Z</time>
      </trkpt>
      <trkpt lat="48.68941" lon="1.75246">
        <ele>153.39999389648</ele>
        <time>2011-11-18T10:04:26.000Z</time>
      </trkpt>
      <trkpt lat="48.68937" lon="1.7523">
        <ele>153.39999389648</ele>
        <time>2011-11-18T10:04:33.000Z</time>
      </trkpt>
      <trkpt lat="48.68935" lon="1.7522">
        <ele>153.19999694824</ele>
        <time>2011-11-18T10:04:38.000Z</time>
      </trkpt>
      <trkpt lat="48.68933" lon="1.75203">
        <ele>153.19999694824</ele>
        <time>2011-11-18T10:04:45.000Z</time>
      </trkpt>
      <trkpt lat="48.68932" lon="1.7519">
        <ele>153.19999694824</ele>
        <time>2011-11-18T10:04:51.000Z</time>
      </trkpt>
      <trkpt lat="48.68929" lon="1.7517">
        <ele>153</ele>
        <time>2011-11-18T10:05:00.000Z</time>
      </trkpt>
      <trkpt lat="48.68928" lon="1.75154">
        <ele>153.19999694824</ele>
        <time>2011-11-18T10:05:08.000Z</time>
      </trkpt>
      <trkpt lat="48.68928" lon="1.75148">
        <ele>153.19999694824</ele>
        <time>2011-11-18T10:05:11.000Z</time>
      </trkpt>
      <trkpt lat="48.68924" lon="1.75136">
        <ele>153.19999694824</ele>
        <time>2011-11-18T10:05:17.000Z</time>
      </trkpt>
      <trkpt lat="48.68919" lon="1.75115">
        <ele>153.60000610352</ele>
        <time>2011-11-18T10:05:25.000Z</time>
      </trkpt>
      <trkpt lat="48.68915" lon="1.75093">
        <ele>153.80000305176</ele>
        <time>2011-11-18T10:05:35.000Z</time>
      </trkpt>
      <trkpt lat="48.68913" lon="1.75078">
        <ele>154</ele>
        <time>2011-11-18T10:05:42.000Z</time>
      </trkpt>
      <trkpt lat="48.68909" lon="1.75061">
        <ele>154</ele>
        <time>2011-11-18T10:05:50.000Z</time>
      </trkpt>
      <trkpt lat="48.68907" lon="1.75044">
        <ele>154</ele>
        <time>2011-11-18T10:05:58.000Z</time>
      </trkpt>
      <trkpt lat="48.68906" lon="1.75037">
        <ele>154</ele>
        <time>2011-11-18T10:06:02.000Z</time>
      </trkpt>
      <trkpt lat="48.68902" lon="1.75017">
        <ele>154</ele>
        <time>2011-11-18T10:06:11.000Z</time>
      </trkpt>
      <trkpt lat="48.689" lon="1.74998">
        <ele>154.19999694824</ele>
        <time>2011-11-18T10:06:19.000Z</time>
      </trkpt>
      <trkpt lat="48.68896" lon="1.74977">
        <ele>154.80000305176</ele>
        <time>2011-11-18T10:06:29.000Z</time>
      </trkpt>
      <trkpt lat="48.68893" lon="1.7496">
        <ele>155.39999389648</ele>
        <time>2011-11-18T10:06:34.000Z</time>
      </trkpt>
      <trkpt lat="48.6889" lon="1.7493">
        <ele>156.19999694824</ele>
        <time>2011-11-18T10:06:39.000Z</time>
      </trkpt>
      <trkpt lat="48.68882" lon="1.74888">
        <ele>156.80000305176</ele>
        <time>2011-11-18T10:06:45.000Z</time>
      </trkpt>
      <trkpt lat="48.68874" lon="1.74856">
        <ele>157.19999694824</ele>
        <time>2011-11-18T10:06:50.000Z</time>
      </trkpt>
      <trkpt lat="48.68871" lon="1.74826">
        <ele>157.39999389648</ele>
        <time>2011-11-18T10:06:55.000Z</time>
      </trkpt>
      <trkpt lat="48.68868" lon="1.74813">
        <ele>157.39999389648</ele>
        <time>2011-11-18T10:06:57.000Z</time>
      </trkpt>
      <trkpt lat="48.68858" lon="1.74765">
        <ele>157.60000610352</ele>
        <time>2011-11-18T10:07:04.000Z</time>
      </trkpt>
      <trkpt lat="48.68853" lon="1.74719">
        <ele>157.39999389648</ele>
        <time>2011-11-18T10:07:11.000Z</time>
      </trkpt>
      <trkpt lat="48.6885" lon="1.74707">
        <ele>157.39999389648</ele>
        <time>2011-11-18T10:07:13.000Z</time>
      </trkpt>
      <trkpt lat="48.68848" lon="1.74671">
        <ele>157.60000610352</ele>
        <time>2011-11-18T10:07:20.000Z</time>
      </trkpt>
      <trkpt lat="48.68848" lon="1.74653">
        <ele>157.39999389648</ele>
        <time>2011-11-18T10:07:24.000Z</time>
      </trkpt>
      <trkpt lat="48.68846" lon="1.7463">
        <ele>157</ele>
        <time>2011-11-18T10:07:30.000Z</time>
      </trkpt>
      <trkpt lat="48.68844" lon="1.74608">
        <ele>156.60000610352</ele>
        <time>2011-11-18T10:07:35.000Z</time>
      </trkpt>
      <trkpt lat="48.68843" lon="1.74585">
        <ele>156.19999694824</ele>
        <time>2011-11-18T10:07:41.000Z</time>
      </trkpt>
      <trkpt lat="48.68843" lon="1.7457">
        <ele>156.19999694824</ele>
        <time>2011-11-18T10:07:47.000Z</time>
      </trkpt>
      <trkpt lat="48.68842" lon="1.74553">
        <ele>156.19999694824</ele>
        <time>2011-11-18T10:07:52.000Z</time>
      </trkpt>
      <trkpt lat="48.6884" lon="1.74531">
        <ele>156</ele>
        <time>2011-11-18T10:07:58.000Z</time>
      </trkpt>
      <trkpt lat="48.68839" lon="1.74512">
        <ele>156</ele>
        <time>2011-11-18T10:08:03.000Z</time>
      </trkpt>
      <trkpt lat="48.68836" lon="1.74495">
        <ele>156</ele>
        <time>2011-11-18T10:08:07.000Z</time>
      </trkpt>
      <trkpt lat="48.68833" lon="1.74471">
        <ele>156.60000610352</ele>
        <time>2011-11-18T10:08:13.000Z</time>
      </trkpt>
      <trkpt lat="48.68835" lon="1.74455">
        <ele>157</ele>
        <time>2011-11-18T10:08:22.000Z</time>
      </trkpt>
      <trkpt lat="48.68836" lon="1.74451">
        <ele>157.19999694824</ele>
        <time>2011-11-18T10:08:24.000Z</time>
      </trkpt>
      <trkpt lat="48.68835" lon="1.74434">
        <ele>157.39999389648</ele>
        <time>2011-11-18T10:08:31.000Z</time>
      </trkpt>
      <trkpt lat="48.68837" lon="1.74422">
        <ele>157.80000305176</ele>
        <time>2011-11-18T10:08:37.000Z</time>
      </trkpt>
      <trkpt lat="48.68838" lon="1.74407">
        <ele>157.60000610352</ele>
        <time>2011-11-18T10:08:45.000Z</time>
      </trkpt>
      <trkpt lat="48.68836" lon="1.74398">
        <ele>157.19999694824</ele>
        <time>2011-11-18T10:08:49.000Z</time>
      </trkpt>
      <trkpt lat="48.68835" lon="1.74384">
        <ele>156.80000305176</ele>
        <time>2011-11-18T10:08:56.000Z</time>
      </trkpt>
      <trkpt lat="48.68834" lon="1.74367">
        <ele>156.19999694824</ele>
        <time>2011-11-18T10:09:03.000Z</time>
      </trkpt>
      <trkpt lat="48.68833" lon="1.74354">
        <ele>155.80000305176</ele>
        <time>2011-11-18T10:09:09.000Z</time>
      </trkpt>
      <trkpt lat="48.68832" lon="1.7434">
        <ele>155.19999694824</ele>
        <time>2011-11-18T10:09:16.000Z</time>
      </trkpt>
      <trkpt lat="48.68833" lon="1.74327">
        <ele>154.80000305176</ele>
        <time>2011-11-18T10:09:23.000Z</time>
      </trkpt>
      <trkpt lat="48.68833" lon="1.74323">
        <ele>154.80000305176</ele>
        <time>2011-11-18T10:09:25.000Z</time>
      </trkpt>
      <trkpt lat="48.68833" lon="1.74315">
        <ele>154.80000305176</ele>
        <time>2011-11-18T10:09:29.000Z</time>
      </trkpt>
      <trkpt lat="48.68833" lon="1.74299">
        <ele>154.60000610352</ele>
        <time>2011-11-18T10:09:37.000Z</time>
      </trkpt>
      <trkpt lat="48.68833" lon="1.7429">
        <ele>154.39999389648</ele>
        <time>2011-11-18T10:09:42.000Z</time>
      </trkpt>
      <trkpt lat="48.68831" lon="1.74277">
        <ele>154.39999389648</ele>
        <time>2011-11-18T10:09:48.000Z</time>
      </trkpt>
      <trkpt lat="48.6883" lon="1.74264">
        <ele>154.19999694824</ele>
        <time>2011-11-18T10:09:55.000Z</time>
      </trkpt>
      <trkpt lat="48.68827" lon="1.74256">
        <ele>154.19999694824</ele>
        <time>2011-11-18T10:09:59.000Z</time>
      </trkpt>
      <trkpt lat="48.68822" lon="1.74249">
        <ele>154.39999389648</ele>
        <time>2011-11-18T10:10:04.000Z</time>
      </trkpt>
      <trkpt lat="48.6881" lon="1.74239">
        <ele>155</ele>
        <time>2011-11-18T10:10:14.000Z</time>
      </trkpt>
      <trkpt lat="48.68799" lon="1.74235">
        <ele>155.39999389648</ele>
        <time>2011-11-18T10:10:22.000Z</time>
      </trkpt>
      <trkpt lat="48.68784" lon="1.74233">
        <ele>155.60000610352</ele>
        <time>2011-11-18T10:10:32.000Z</time>
      </trkpt>
      <trkpt lat="48.6877" lon="1.74233">
        <ele>156</ele>
        <time>2011-11-18T10:10:41.000Z</time>
      </trkpt>
      <trkpt lat="48.68758" lon="1.74232">
        <ele>156.19999694824</ele>
        <time>2011-11-18T10:10:49.000Z</time>
      </trkpt>
      <trkpt lat="48.68747" lon="1.74233">
        <ele>156.60000610352</ele>
        <time>2011-11-18T10:10:57.000Z</time>
      </trkpt>
      <trkpt lat="48.68736" lon="1.74236">
        <ele>156.60000610352</ele>
        <time>2011-11-18T10:11:05.000Z</time>
      </trkpt>
      <trkpt lat="48.68722" lon="1.74239">
        <ele>156.80000305176</ele>
        <time>2011-11-18T10:11:15.000Z</time>
      </trkpt>
      <trkpt lat="48.68712" lon="1.74239">
        <ele>156.80000305176</ele>
        <time>2011-11-18T10:11:22.000Z</time>
      </trkpt>
      <trkpt lat="48.68708" lon="1.74228">
        <ele>156.80000305176</ele>
        <time>2011-11-18T10:11:28.000Z</time>
      </trkpt>
      <trkpt lat="48.68707" lon="1.74221">
        <ele>156.80000305176</ele>
        <time>2011-11-18T10:11:32.000Z</time>
      </trkpt>
      <trkpt lat="48.68707" lon="1.7421">
        <ele>156.60000610352</ele>
        <time>2011-11-18T10:11:37.000Z</time>
      </trkpt>
      <trkpt lat="48.68706" lon="1.74203">
        <ele>156.60000610352</ele>
        <time>2011-11-18T10:11:41.000Z</time>
      </trkpt>
      <trkpt lat="48.68697" lon="1.74195">
        <ele>156.80000305176</ele>
        <time>2011-11-18T10:11:49.000Z</time>
      </trkpt>
      <trkpt lat="48.6869" lon="1.74195">
        <ele>157</ele>
        <time>2011-11-18T10:11:54.000Z</time>
      </trkpt>
      <trkpt lat="48.6868" lon="1.74193">
        <ele>157.19999694824</ele>
        <time>2011-11-18T10:12:01.000Z</time>
      </trkpt>
      <trkpt lat="48.68669" lon="1.74191">
        <ele>157.60000610352</ele>
        <time>2011-11-18T10:12:09.000Z</time>
      </trkpt>
      <trkpt lat="48.68668" lon="1.74191">
        <ele>157.60000610352</ele>
        <time>2011-11-18T10:12:10.000Z</time>
      </trkpt>
      <trkpt lat="48.68667" lon="1.7419">
        <ele>157.60000610352</ele>
        <time>2011-11-18T10:12:13.000Z</time>
      </trkpt>
      <trkpt lat="48.68639" lon="1.74216">
        <ele>158.19999694824</ele>
        <time>2011-11-18T10:13:06.000Z</time>
      </trkpt>
      <trkpt lat="48.6863" lon="1.74218">
        <ele>158.39999389648</ele>
        <time>2011-11-18T10:13:12.000Z</time>
      </trkpt>
      <trkpt lat="48.6862" lon="1.74227">
        <ele>158.39999389648</ele>
        <time>2011-11-18T10:13:20.000Z</time>
      </trkpt>
      <trkpt lat="48.68612" lon="1.74233">
        <ele>158.60000610352</ele>
        <time>2011-11-18T10:13:26.000Z</time>
      </trkpt>
      <trkpt lat="48.68605" lon="1.74236">
        <ele>158.60000610352</ele>
        <time>2011-11-18T10:13:32.000Z</time>
      </trkpt>
      <trkpt lat="48.68597" lon="1.74241">
        <ele>158.80000305176</ele>
        <time>2011-11-18T10:13:38.000Z</time>
      </trkpt>
      <trkpt lat="48.68596" lon="1.74241">
        <ele>158.80000305176</ele>
        <time>2011-11-18T10:13:39.000Z</time>
      </trkpt>
      <trkpt lat="48.68594" lon="1.74242">
        <ele>158.80000305176</ele>
        <time>2011-11-18T10:13:43.000Z</time>
      </trkpt>
      <trkpt lat="48.68591" lon="1.74246">
        <ele>158.80000305176</ele>
        <time>2011-11-18T10:13:48.000Z</time>
      </trkpt>
      <trkpt lat="48.68586" lon="1.74255">
        <ele>158.60000610352</ele>
        <time>2011-11-18T10:13:53.000Z</time>
      </trkpt>
      <trkpt lat="48.68584" lon="1.74258">
        <ele>158.60000610352</ele>
        <time>2011-11-18T10:13:55.000Z</time>
      </trkpt>
      <trkpt lat="48.68574" lon="1.74271">
        <ele>157.60000610352</ele>
        <time>2011-11-18T10:14:05.000Z</time>
      </trkpt>
      <trkpt lat="48.68573" lon="1.74272">
        <ele>157.60000610352</ele>
        <time>2011-11-18T10:14:06.000Z</time>
      </trkpt>
      <trkpt lat="48.68567" lon="1.74286">
        <ele>156.80000305176</ele>
        <time>2011-11-18T10:14:14.000Z</time>
      </trkpt>
      <trkpt lat="48.68566" lon="1.74288">
        <ele>156.60000610352</ele>
        <time>2011-11-18T10:14:15.000Z</time>
      </trkpt>
      <trkpt lat="48.68563" lon="1.74299">
        <ele>156.19999694824</ele>
        <time>2011-11-18T10:14:21.000Z</time>
      </trkpt>
      <trkpt lat="48.68561" lon="1.74304">
        <ele>155.80000305176</ele>
        <time>2011-11-18T10:14:24.000Z</time>
      </trkpt>
      <trkpt lat="48.68558" lon="1.74314">
        <ele>155.39999389648</ele>
        <time>2011-11-18T10:14:30.000Z</time>
      </trkpt>
      <trkpt lat="48.68553" lon="1.74326">
        <ele>154.80000305176</ele>
        <time>2011-11-18T10:14:36.000Z</time>
      </trkpt>
      <trkpt lat="48.6855" lon="1.74334">
        <ele>154.39999389648</ele>
        <time>2011-11-18T10:14:41.000Z</time>
      </trkpt>
      <trkpt lat="48.68548" lon="1.74341">
        <ele>154.39999389648</ele>
        <time>2011-11-18T10:14:45.000Z</time>
      </trkpt>
      <trkpt lat="48.68547" lon="1.74343">
        <ele>154.19999694824</ele>
        <time>2011-11-18T10:14:48.000Z</time>
      </trkpt>
      <trkpt lat="48.68539" lon="1.74351">
        <ele>154</ele>
        <time>2011-11-18T10:15:17.000Z</time>
      </trkpt>
      <trkpt lat="48.68539" lon="1.74358">
        <ele>153.80000305176</ele>
        <time>2011-11-18T10:15:20.000Z</time>
      </trkpt>
      <trkpt lat="48.68538" lon="1.74371">
        <ele>153.39999389648</ele>
        <time>2011-11-18T10:15:27.000Z</time>
      </trkpt>
      <trkpt lat="48.68534" lon="1.74382">
        <ele>152.80000305176</ele>
        <time>2011-11-18T10:15:34.000Z</time>
      </trkpt>
      <trkpt lat="48.68525" lon="1.74393">
        <ele>152</ele>
        <time>2011-11-18T10:15:43.000Z</time>
      </trkpt>
      <trkpt lat="48.6852" lon="1.74395">
        <ele>151.60000610352</ele>
        <time>2011-11-18T10:15:47.000Z</time>
      </trkpt>
      <trkpt lat="48.68511" lon="1.74398">
        <ele>150.80000305176</ele>
        <time>2011-11-18T10:15:54.000Z</time>
      </trkpt>
      <trkpt lat="48.685" lon="1.74398">
        <ele>150</ele>
        <time>2011-11-18T10:16:02.000Z</time>
      </trkpt>
      <trkpt lat="48.68494" lon="1.74393">
        <ele>150.60000610352</ele>
        <time>2011-11-18T10:16:08.000Z</time>
      </trkpt>
      <trkpt lat="48.68491" lon="1.74378">
        <ele>151.60000610352</ele>
        <time>2011-11-18T10:16:16.000Z</time>
      </trkpt>
      <trkpt lat="48.6849" lon="1.74364">
        <ele>152.39999389648</ele>
        <time>2011-11-18T10:16:22.000Z</time>
      </trkpt>
      <trkpt lat="48.68492" lon="1.74349">
        <ele>153.19999694824</ele>
        <time>2011-11-18T10:16:29.000Z</time>
      </trkpt>
      <trkpt lat="48.68495" lon="1.74341">
        <ele>153.60000610352</ele>
        <time>2011-11-18T10:16:34.000Z</time>
      </trkpt>
      <trkpt lat="48.68496" lon="1.74327">
        <ele>154</ele>
        <time>2011-11-18T10:16:41.000Z</time>
      </trkpt>
      <trkpt lat="48.68498" lon="1.74313">
        <ele>154.39999389648</ele>
        <time>2011-11-18T10:16:48.000Z</time>
      </trkpt>
      <trkpt lat="48.68497" lon="1.74303">
        <ele>154.60000610352</ele>
        <time>2011-11-18T10:16:52.000Z</time>
      </trkpt>
      <trkpt lat="48.68501" lon="1.74293">
        <ele>155</ele>
        <time>2011-11-18T10:16:58.000Z</time>
      </trkpt>
      <trkpt lat="48.68502" lon="1.74289">
        <ele>155</ele>
        <time>2011-11-18T10:17:00.000Z</time>
      </trkpt>
      <trkpt lat="48.68506" lon="1.74278">
        <ele>155.39999389648</ele>
        <time>2011-11-18T10:17:07.000Z</time>
      </trkpt>
      <trkpt lat="48.68506" lon="1.74266">
        <ele>155.80000305176</ele>
        <time>2011-11-18T10:17:11.000Z</time>
      </trkpt>
      <trkpt lat="48.68507" lon="1.74254">
        <ele>156</ele>
        <time>2011-11-18T10:17:17.000Z</time>
      </trkpt>
      <trkpt lat="48.68508" lon="1.74242">
        <ele>156.39999389648</ele>
        <time>2011-11-18T10:17:23.000Z</time>
      </trkpt>
      <trkpt lat="48.6851" lon="1.74227">
        <ele>156.80000305176</ele>
        <time>2011-11-18T10:17:30.000Z</time>
      </trkpt>
      <trkpt lat="48.68512" lon="1.74216">
        <ele>157.19999694824</ele>
        <time>2011-11-18T10:17:35.000Z</time>
      </trkpt>
      <trkpt lat="48.68513" lon="1.74214">
        <ele>157.19999694824</ele>
        <time>2011-11-18T10:17:36.000Z</time>
      </trkpt>
      <trkpt lat="48.68515" lon="1.74197">
        <ele>157.80000305176</ele>
        <time>2011-11-18T10:17:43.000Z</time>
      </trkpt>
      <trkpt lat="48.68517" lon="1.74182">
        <ele>158.19999694824</ele>
        <time>2011-11-18T10:17:49.000Z</time>
      </trkpt>
      <trkpt lat="48.68521" lon="1.74166">
        <ele>158.60000610352</ele>
        <time>2011-11-18T10:17:53.000Z</time>
      </trkpt>
      <trkpt lat="48.68527" lon="1.74134">
        <ele>159.19999694824</ele>
        <time>2011-11-18T10:18:00.000Z</time>
      </trkpt>
      <trkpt lat="48.68526" lon="1.74113">
        <ele>159.39999389648</ele>
        <time>2011-11-18T10:18:05.000Z</time>
      </trkpt>
      <trkpt lat="48.68526" lon="1.74107">
        <ele>159.39999389648</ele>
        <time>2011-11-18T10:18:06.000Z</time>
      </trkpt>
      <trkpt lat="48.68526" lon="1.7408">
        <ele>159.80000305176</ele>
        <time>2011-11-18T10:18:11.000Z</time>
      </trkpt>
      <trkpt lat="48.68525" lon="1.74064">
        <ele>160.19999694824</ele>
        <time>2011-11-18T10:18:14.000Z</time>
      </trkpt>
      <trkpt lat="48.68524" lon="1.7403">
        <ele>161</ele>
        <time>2011-11-18T10:18:20.000Z</time>
      </trkpt>
      <trkpt lat="48.68523" lon="1.74">
        <ele>161.60000610352</ele>
        <time>2011-11-18T10:18:25.000Z</time>
      </trkpt>
      <trkpt lat="48.68521" lon="1.73974">
        <ele>161.60000610352</ele>
        <time>2011-11-18T10:18:30.000Z</time>
      </trkpt>
      <trkpt lat="48.68519" lon="1.73966">
        <ele>161.60000610352</ele>
        <time>2011-11-18T10:18:32.000Z</time>
      </trkpt>
      <trkpt lat="48.68514" lon="1.73934">
        <ele>161.60000610352</ele>
        <time>2011-11-18T10:18:39.000Z</time>
      </trkpt>
      <trkpt lat="48.6851" lon="1.73909">
        <ele>161.60000610352</ele>
        <time>2011-11-18T10:18:45.000Z</time>
      </trkpt>
      <trkpt lat="48.6851" lon="1.73887">
        <ele>161.60000610352</ele>
        <time>2011-11-18T10:18:50.000Z</time>
      </trkpt>
      <trkpt lat="48.68511" lon="1.73864">
        <ele>161.80000305176</ele>
        <time>2011-11-18T10:18:55.000Z</time>
      </trkpt>
      <trkpt lat="48.68516" lon="1.73833">
        <ele>162.19999694824</ele>
        <time>2011-11-18T10:19:02.000Z</time>
      </trkpt>
      <trkpt lat="48.6852" lon="1.73812">
        <ele>162.60000610352</ele>
        <time>2011-11-18T10:19:07.000Z</time>
      </trkpt>
      <trkpt lat="48.68523" lon="1.73784">
        <ele>163</ele>
        <time>2011-11-18T10:19:13.000Z</time>
      </trkpt>
      <trkpt lat="48.68526" lon="1.73757">
        <ele>163.39999389648</ele>
        <time>2011-11-18T10:19:19.000Z</time>
      </trkpt>
      <trkpt lat="48.68536" lon="1.73729">
        <ele>163.60000610352</ele>
        <time>2011-11-18T10:19:26.000Z</time>
      </trkpt>
      <trkpt lat="48.68544" lon="1.73712">
        <ele>163.60000610352</ele>
        <time>2011-11-18T10:19:31.000Z</time>
      </trkpt>
      <trkpt lat="48.6855" lon="1.73695">
        <ele>163.19999694824</ele>
        <time>2011-11-18T10:19:36.000Z</time>
      </trkpt>
      <trkpt lat="48.68556" lon="1.73677">
        <ele>162.60000610352</ele>
        <time>2011-11-18T10:19:41.000Z</time>
      </trkpt>
      <trkpt lat="48.68561" lon="1.73662">
        <ele>162.19999694824</ele>
        <time>2011-11-18T10:19:45.000Z</time>
      </trkpt>
      <trkpt lat="48.6857" lon="1.7364">
        <ele>162.19999694824</ele>
        <time>2011-11-18T10:19:51.000Z</time>
      </trkpt>
      <trkpt lat="48.68578" lon="1.73623">
        <ele>162.19999694824</ele>
        <time>2011-11-18T10:19:56.000Z</time>
      </trkpt>
      <trkpt lat="48.68588" lon="1.73607">
        <ele>162.19999694824</ele>
        <time>2011-11-18T10:20:02.000Z</time>
      </trkpt>
      <trkpt lat="48.6859" lon="1.73601">
        <ele>162.19999694824</ele>
        <time>2011-11-18T10:20:06.000Z</time>
      </trkpt>
      <trkpt lat="48.68594" lon="1.73591">
        <ele>162.39999389648</ele>
        <time>2011-11-18T10:20:12.000Z</time>
      </trkpt>
      <trkpt lat="48.68595" lon="1.73586">
        <ele>162.39999389648</ele>
        <time>2011-11-18T10:20:14.000Z</time>
      </trkpt>
      <trkpt lat="48.68596" lon="1.73567">
        <ele>162.80000305176</ele>
        <time>2011-11-18T10:20:23.000Z</time>
      </trkpt>
      <trkpt lat="48.68597" lon="1.73563">
        <ele>162.80000305176</ele>
        <time>2011-11-18T10:20:25.000Z</time>
      </trkpt>
      <trkpt lat="48.68602" lon="1.73554">
        <ele>163.19999694824</ele>
        <time>2011-11-18T10:20:31.000Z</time>
      </trkpt>
      <trkpt lat="48.68606" lon="1.73554">
        <ele>163.39999389648</ele>
        <time>2011-11-18T10:20:35.000Z</time>
      </trkpt>
      <trkpt lat="48.6862" lon="1.7356">
        <ele>163.80000305176</ele>
        <time>2011-11-18T10:20:42.000Z</time>
      </trkpt>
      <trkpt lat="48.68623" lon="1.73561">
        <ele>163.80000305176</ele>
        <time>2011-11-18T10:20:43.000Z</time>
      </trkpt>
      <trkpt lat="48.68629" lon="1.73562">
        <ele>164</ele>
        <time>2011-11-18T10:20:46.000Z</time>
      </trkpt>
      <trkpt lat="48.68636" lon="1.73563">
        <ele>164.19999694824</ele>
        <time>2011-11-18T10:20:51.000Z</time>
      </trkpt>
      <trkpt lat="48.68637" lon="1.73563">
        <ele>164.39999389648</ele>
        <time>2011-11-18T10:20:52.000Z</time>
      </trkpt>
      <trkpt lat="48.68646" lon="1.73566">
        <ele>164.80000305176</ele>
        <time>2011-11-18T10:20:57.000Z</time>
      </trkpt>
      <trkpt lat="48.68656" lon="1.73566">
        <ele>165</ele>
        <time>2011-11-18T10:21:02.000Z</time>
      </trkpt>
      <trkpt lat="48.6866" lon="1.73566">
        <ele>165.19999694824</ele>
        <time>2011-11-18T10:21:05.000Z</time>
      </trkpt>
      <trkpt lat="48.68664" lon="1.73566">
        <ele>165.39999389648</ele>
        <time>2011-11-18T10:21:08.000Z</time>
      </trkpt>
      <trkpt lat="48.68667" lon="1.73565">
        <ele>165.39999389648</ele>
        <time>2011-11-18T10:21:12.000Z</time>
      </trkpt>
      <trkpt lat="48.68674" lon="1.73565">
        <ele>165.80000305176</ele>
        <time>2011-11-18T10:21:17.000Z</time>
      </trkpt>
      <trkpt lat="48.68685" lon="1.73567">
        <ele>166.39999389648</ele>
        <time>2011-11-18T10:21:24.000Z</time>
      </trkpt>
      <trkpt lat="48.68691" lon="1.73567">
        <ele>166.80000305176</ele>
        <time>2011-11-18T10:21:28.000Z</time>
      </trkpt>
      <trkpt lat="48.687" lon="1.73568">
        <ele>167.19999694824</ele>
        <time>2011-11-18T10:21:34.000Z</time>
      </trkpt>
      <trkpt lat="48.68706" lon="1.73568">
        <ele>167.39999389648</ele>
        <time>2011-11-18T10:21:39.000Z</time>
      </trkpt>
      <trkpt lat="48.68716" lon="1.73568">
        <ele>168</ele>
        <time>2011-11-18T10:21:46.000Z</time>
      </trkpt>
      <trkpt lat="48.68726" lon="1.73569">
        <ele>168.60000610352</ele>
        <time>2011-11-18T10:21:53.000Z</time>
      </trkpt>
      <trkpt lat="48.68734" lon="1.7357">
        <ele>169</ele>
        <time>2011-11-18T10:21:57.000Z</time>
      </trkpt>
      <trkpt lat="48.68742" lon="1.7357">
        <ele>169.39999389648</ele>
        <time>2011-11-18T10:22:02.000Z</time>
      </trkpt>
      <trkpt lat="48.68744" lon="1.73571">
        <ele>169.39999389648</ele>
        <time>2011-11-18T10:22:03.000Z</time>
      </trkpt>
      <trkpt lat="48.6876" lon="1.73572">
        <ele>169.80000305176</ele>
        <time>2011-11-18T10:22:10.000Z</time>
      </trkpt>
      <trkpt lat="48.68779" lon="1.73575">
        <ele>170</ele>
        <time>2011-11-18T10:22:16.000Z</time>
      </trkpt>
      <trkpt lat="48.68787" lon="1.73577">
        <ele>170</ele>
        <time>2011-11-18T10:22:20.000Z</time>
      </trkpt>
      <trkpt lat="48.68788" lon="1.73577">
        <ele>170</ele>
        <time>2011-11-18T10:22:21.000Z</time>
      </trkpt>
      <trkpt lat="48.68795" lon="1.73576">
        <ele>170</ele>
        <time>2011-11-18T10:22:27.000Z</time>
      </trkpt>
      <trkpt lat="48.68797" lon="1.73574">
        <ele>170</ele>
        <time>2011-11-18T10:22:30.000Z</time>
      </trkpt>
      <trkpt lat="48.68803" lon="1.73576">
        <ele>170</ele>
        <time>2011-11-18T10:22:34.000Z</time>
      </trkpt>
      <trkpt lat="48.68813" lon="1.73577">
        <ele>170</ele>
        <time>2011-11-18T10:22:39.000Z</time>
      </trkpt>
      <trkpt lat="48.68824" lon="1.73578">
        <ele>170</ele>
        <time>2011-11-18T10:22:45.000Z</time>
      </trkpt>
      <trkpt lat="48.68828" lon="1.73579">
        <ele>170</ele>
        <time>2011-11-18T10:22:48.000Z</time>
      </trkpt>
      <trkpt lat="48.68833" lon="1.73578">
        <ele>170</ele>
        <time>2011-11-18T10:22:53.000Z</time>
      </trkpt>
      <trkpt lat="48.68839" lon="1.73579">
        <ele>170</ele>
        <time>2011-11-18T10:22:57.000Z</time>
      </trkpt>
      <trkpt lat="48.68841" lon="1.73579">
        <ele>170</ele>
        <time>2011-11-18T10:22:59.000Z</time>
      </trkpt>
      <trkpt lat="48.6885" lon="1.73582">
        <ele>169.80000305176</ele>
        <time>2011-11-18T10:23:05.000Z</time>
      </trkpt>
      <trkpt lat="48.68857" lon="1.73582">
        <ele>169.60000610352</ele>
        <time>2011-11-18T10:23:10.000Z</time>
      </trkpt>
      <trkpt lat="48.68864" lon="1.73583">
        <ele>169.60000610352</ele>
        <time>2011-11-18T10:23:14.000Z</time>
      </trkpt>
      <trkpt lat="48.68874" lon="1.73583">
        <ele>169.39999389648</ele>
        <time>2011-11-18T10:23:20.000Z</time>
      </trkpt>
      <trkpt lat="48.68883" lon="1.73585">
        <ele>169.39999389648</ele>
        <time>2011-11-18T10:23:26.000Z</time>
      </trkpt>
      <trkpt lat="48.68894" lon="1.73587">
        <ele>169.19999694824</ele>
        <time>2011-11-18T10:23:33.000Z</time>
      </trkpt>
      <trkpt lat="48.68905" lon="1.73589">
        <ele>169.19999694824</ele>
        <time>2011-11-18T10:23:41.000Z</time>
      </trkpt>
      <trkpt lat="48.68915" lon="1.7359">
        <ele>169</ele>
        <time>2011-11-18T10:23:48.000Z</time>
      </trkpt>
      <trkpt lat="48.68923" lon="1.73588">
        <ele>169.19999694824</ele>
        <time>2011-11-18T10:23:54.000Z</time>
      </trkpt>
      <trkpt lat="48.68934" lon="1.73589">
        <ele>169.39999389648</ele>
        <time>2011-11-18T10:24:01.000Z</time>
      </trkpt>
      <trkpt lat="48.68945" lon="1.7359">
        <ele>169.80000305176</ele>
        <time>2011-11-18T10:24:08.000Z</time>
      </trkpt>
      <trkpt lat="48.68958" lon="1.73591">
        <ele>170</ele>
        <time>2011-11-18T10:24:17.000Z</time>
      </trkpt>
      <trkpt lat="48.68971" lon="1.73595">
        <ele>170.39999389648</ele>
        <time>2011-11-18T10:24:27.000Z</time>
      </trkpt>
      <trkpt lat="48.68979" lon="1.73598">
        <ele>170.80000305176</ele>
        <time>2011-11-18T10:24:33.000Z</time>
      </trkpt>
      <trkpt lat="48.68987" lon="1.73599">
        <ele>171</ele>
        <time>2011-11-18T10:24:39.000Z</time>
      </trkpt>
      <trkpt lat="48.68999" lon="1.73601">
        <ele>171.39999389648</ele>
        <time>2011-11-18T10:24:44.000Z</time>
      </trkpt>
      <trkpt lat="48.69008" lon="1.73603">
        <ele>171.80000305176</ele>
        <time>2011-11-18T10:24:49.000Z</time>
      </trkpt>
      <trkpt lat="48.69015" lon="1.73603">
        <ele>172.19999694824</ele>
        <time>2011-11-18T10:24:54.000Z</time>
      </trkpt>
      <trkpt lat="48.69017" lon="1.73603">
        <ele>172.19999694824</ele>
        <time>2011-11-18T10:24:55.000Z</time>
      </trkpt>
      <trkpt lat="48.69025" lon="1.73601">
        <ele>172.60000610352</ele>
        <time>2011-11-18T10:25:01.000Z</time>
      </trkpt>
      <trkpt lat="48.69026" lon="1.73602">
        <ele>172.80000305176</ele>
        <time>2011-11-18T10:25:02.000Z</time>
      </trkpt>
      <trkpt lat="48.69036" lon="1.73602">
        <ele>173.19999694824</ele>
        <time>2011-11-18T10:25:09.000Z</time>
      </trkpt>
      <trkpt lat="48.69048" lon="1.73602">
        <ele>173.80000305176</ele>
        <time>2011-11-18T10:25:17.000Z</time>
      </trkpt>
      <trkpt lat="48.69055" lon="1.73601">
        <ele>174.19999694824</ele>
        <time>2011-11-18T10:25:23.000Z</time>
      </trkpt>
      <trkpt lat="48.69059" lon="1.73608">
        <ele>174.39999389648</ele>
        <time>2011-11-18T10:25:29.000Z</time>
      </trkpt>
      <trkpt lat="48.69061" lon="1.73613">
        <ele>174.60000610352</ele>
        <time>2011-11-18T10:25:32.000Z</time>
      </trkpt>
      <trkpt lat="48.6907" lon="1.73631">
        <ele>174.80000305176</ele>
        <time>2011-11-18T10:25:39.000Z</time>
      </trkpt>
      <trkpt lat="48.69074" lon="1.73646">
        <ele>174.80000305176</ele>
        <time>2011-11-18T10:25:44.000Z</time>
      </trkpt>
      <trkpt lat="48.69079" lon="1.73661">
        <ele>174.80000305176</ele>
        <time>2011-11-18T10:25:51.000Z</time>
      </trkpt>
      <trkpt lat="48.69084" lon="1.73674">
        <ele>175</ele>
        <time>2011-11-18T10:25:57.000Z</time>
      </trkpt>
      <trkpt lat="48.69087" lon="1.73689">
        <ele>175.19999694824</ele>
        <time>2011-11-18T10:26:04.000Z</time>
      </trkpt>
      <trkpt lat="48.69089" lon="1.73699">
        <ele>175.39999389648</ele>
        <time>2011-11-18T10:26:09.000Z</time>
      </trkpt>
      <trkpt lat="48.69094" lon="1.73715">
        <ele>175.60000610352</ele>
        <time>2011-11-18T10:26:16.000Z</time>
      </trkpt>
      <trkpt lat="48.691" lon="1.73734">
        <ele>175.80000305176</ele>
        <time>2011-11-18T10:26:25.000Z</time>
      </trkpt>
      <trkpt lat="48.691" lon="1.73736">
        <ele>175.80000305176</ele>
        <time>2011-11-18T10:26:26.000Z</time>
      </trkpt>
      <trkpt lat="48.69104" lon="1.73748">
        <ele>175.80000305176</ele>
        <time>2011-11-18T10:26:32.000Z</time>
      </trkpt>
      <trkpt lat="48.69109" lon="1.73765">
        <ele>175.19999694824</ele>
        <time>2011-11-18T10:26:39.000Z</time>
      </trkpt>
      <trkpt lat="48.6911" lon="1.7377">
        <ele>174.80000305176</ele>
        <time>2011-11-18T10:26:41.000Z</time>
      </trkpt>
      <trkpt lat="48.69112" lon="1.73784">
        <ele>174.19999694824</ele>
        <time>2011-11-18T10:26:47.000Z</time>
      </trkpt>
      <trkpt lat="48.69113" lon="1.73789">
        <ele>173.80000305176</ele>
        <time>2011-11-18T10:26:49.000Z</time>
      </trkpt>
      <trkpt lat="48.69117" lon="1.73805">
        <ele>173</ele>
        <time>2011-11-18T10:26:56.000Z</time>
      </trkpt>
      <trkpt lat="48.69122" lon="1.7382">
        <ele>172.19999694824</ele>
        <time>2011-11-18T10:27:03.000Z</time>
      </trkpt>
      <trkpt lat="48.69126" lon="1.73837">
        <ele>171.19999694824</ele>
        <time>2011-11-18T10:27:11.000Z</time>
      </trkpt>
      <trkpt lat="48.69128" lon="1.73847">
        <ele>170.39999389648</ele>
        <time>2011-11-18T10:27:16.000Z</time>
      </trkpt>
      <trkpt lat="48.6913" lon="1.73853">
        <ele>170</ele>
        <time>2011-11-18T10:27:19.000Z</time>
      </trkpt>
      <trkpt lat="48.69135" lon="1.73863">
        <ele>169.39999389648</ele>
        <time>2011-11-18T10:27:24.000Z</time>
      </trkpt>
      <trkpt lat="48.6914" lon="1.73883">
        <ele>168</ele>
        <time>2011-11-18T10:27:33.000Z</time>
      </trkpt>
      <trkpt lat="48.69144" lon="1.73901">
        <ele>166.80000305176</ele>
        <time>2011-11-18T10:27:41.000Z</time>
      </trkpt>
      <trkpt lat="48.69149" lon="1.73917">
        <ele>165.80000305176</ele>
        <time>2011-11-18T10:27:48.000Z</time>
      </trkpt>
      <trkpt lat="48.69152" lon="1.73929">
        <ele>165.60000610352</ele>
        <time>2011-11-18T10:27:53.000Z</time>
      </trkpt>
      <trkpt lat="48.69158" lon="1.73944">
        <ele>165</ele>
        <time>2011-11-18T10:28:01.000Z</time>
      </trkpt>
      <trkpt lat="48.69164" lon="1.7396">
        <ele>164.39999389648</ele>
        <time>2011-11-18T10:28:09.000Z</time>
      </trkpt>
      <trkpt lat="48.69166" lon="1.73971">
        <ele>164</ele>
        <time>2011-11-18T10:28:16.000Z</time>
      </trkpt>
      <trkpt lat="48.69166" lon="1.73971">
        <ele>164</ele>
        <time>2011-11-18T10:28:17.000Z</time>
      </trkpt>
      <trkpt lat="48.69167" lon="1.73981">
        <ele>163.60000610352</ele>
        <time>2011-11-18T10:28:35.000Z</time>
      </trkpt>
      <trkpt lat="48.6917" lon="1.73995">
        <ele>163</ele>
        <time>2011-11-18T10:28:39.000Z</time>
      </trkpt>
      <trkpt lat="48.69172" lon="1.74007">
        <ele>162.60000610352</ele>
        <time>2011-11-18T10:28:44.000Z</time>
      </trkpt>
      <trkpt lat="48.69177" lon="1.74023">
        <ele>162.39999389648</ele>
        <time>2011-11-18T10:28:51.000Z</time>
      </trkpt>
      <trkpt lat="48.69182" lon="1.74041">
        <ele>162</ele>
        <time>2011-11-18T10:29:00.000Z</time>
      </trkpt>
      <trkpt lat="48.69183" lon="1.74046">
        <ele>161.80000305176</ele>
        <time>2011-11-18T10:29:02.000Z</time>
      </trkpt>
      <trkpt lat="48.69185" lon="1.74058">
        <ele>161.60000610352</ele>
        <time>2011-11-18T10:29:07.000Z</time>
      </trkpt>
      <trkpt lat="48.69186" lon="1.74062">
        <ele>161.60000610352</ele>
        <time>2011-11-18T10:29:09.000Z</time>
      </trkpt>
      <trkpt lat="48.6919" lon="1.74081">
        <ele>161.19999694824</ele>
        <time>2011-11-18T10:29:17.000Z</time>
      </trkpt>
      <trkpt lat="48.69195" lon="1.74099">
        <ele>161</ele>
        <time>2011-11-18T10:29:26.000Z</time>
      </trkpt>
      <trkpt lat="48.69198" lon="1.7411">
        <ele>160.80000305176</ele>
        <time>2011-11-18T10:29:31.000Z</time>
      </trkpt>
      <trkpt lat="48.69204" lon="1.74125">
        <ele>160.60000610352</ele>
        <time>2011-11-18T10:29:38.000Z</time>
      </trkpt>
      <trkpt lat="48.69207" lon="1.7414">
        <ele>160.39999389648</ele>
        <time>2011-11-18T10:29:45.000Z</time>
      </trkpt>
      <trkpt lat="48.6921" lon="1.74157">
        <ele>160</ele>
        <time>2011-11-18T10:29:52.000Z</time>
      </trkpt>
      <trkpt lat="48.69213" lon="1.74173">
        <ele>159.60000610352</ele>
        <time>2011-11-18T10:30:00.000Z</time>
      </trkpt>
      <trkpt lat="48.69215" lon="1.74185">
        <ele>159.19999694824</ele>
        <time>2011-11-18T10:30:06.000Z</time>
      </trkpt>
      <trkpt lat="48.6922" lon="1.74198">
        <ele>158.60000610352</ele>
        <time>2011-11-18T10:30:13.000Z</time>
      </trkpt>
      <trkpt lat="48.69222" lon="1.74213">
        <ele>158</ele>
        <time>2011-11-18T10:30:20.000Z</time>
      </trkpt>
      <trkpt lat="48.69226" lon="1.74229">
        <ele>157.19999694824</ele>
        <time>2011-11-18T10:30:27.000Z</time>
      </trkpt>
      <trkpt lat="48.69227" lon="1.74234">
        <ele>157</ele>
        <time>2011-11-18T10:30:29.000Z</time>
      </trkpt>
      <trkpt lat="48.69232" lon="1.74244">
        <ele>156.19999694824</ele>
        <time>2011-11-18T10:30:34.000Z</time>
      </trkpt>
      <trkpt lat="48.69238" lon="1.74259">
        <ele>156</ele>
        <time>2011-11-18T10:30:41.000Z</time>
      </trkpt>
      <trkpt lat="48.69241" lon="1.74274">
        <ele>156.19999694824</ele>
        <time>2011-11-18T10:30:47.000Z</time>
      </trkpt>
      <trkpt lat="48.69248" lon="1.74289">
        <ele>156.39999389648</ele>
        <time>2011-11-18T10:30:53.000Z</time>
      </trkpt>
      <trkpt lat="48.69249" lon="1.74295">
        <ele>156.60000610352</ele>
        <time>2011-11-18T10:30:55.000Z</time>
      </trkpt>
      <trkpt lat="48.69255" lon="1.74312">
        <ele>157.19999694824</ele>
        <time>2011-11-18T10:31:02.000Z</time>
      </trkpt>
      <trkpt lat="48.69254" lon="1.74321">
        <ele>157.60000610352</ele>
        <time>2011-11-18T10:31:06.000Z</time>
      </trkpt>
      <trkpt lat="48.69258" lon="1.74337">
        <ele>158.60000610352</ele>
        <time>2011-11-18T10:31:13.000Z</time>
      </trkpt>
      <trkpt lat="48.69265" lon="1.7435">
        <ele>159.80000305176</ele>
        <time>2011-11-18T10:31:19.000Z</time>
      </trkpt>
      <trkpt lat="48.69265" lon="1.74352">
        <ele>160</ele>
        <time>2011-11-18T10:31:20.000Z</time>
      </trkpt>
      <trkpt lat="48.69267" lon="1.74365">
        <ele>161.39999389648</ele>
        <time>2011-11-18T10:31:27.000Z</time>
      </trkpt>
      <trkpt lat="48.69268" lon="1.74367">
        <ele>161.39999389648</ele>
        <time>2011-11-18T10:31:28.000Z</time>
      </trkpt>
      <trkpt lat="48.69271" lon="1.74388">
        <ele>163.39999389648</ele>
        <time>2011-11-18T10:31:40.000Z</time>
      </trkpt>
      <trkpt lat="48.69272" lon="1.74394">
        <ele>164</ele>
        <time>2011-11-18T10:31:43.000Z</time>
      </trkpt>
      <trkpt lat="48.69276" lon="1.74402">
        <ele>164.60000610352</ele>
        <time>2011-11-18T10:31:48.000Z</time>
      </trkpt>
      <trkpt lat="48.69277" lon="1.74404">
        <ele>164.80000305176</ele>
        <time>2011-11-18T10:31:49.000Z</time>
      </trkpt>
      <trkpt lat="48.69279" lon="1.74415">
        <ele>165.80000305176</ele>
        <time>2011-11-18T10:31:54.000Z</time>
      </trkpt>
      <trkpt lat="48.6928" lon="1.74425">
        <ele>166.19999694824</ele>
        <time>2011-11-18T10:31:59.000Z</time>
      </trkpt>
      <trkpt lat="48.69284" lon="1.74432">
        <ele>166.19999694824</ele>
        <time>2011-11-18T10:32:04.000Z</time>
      </trkpt>
      <trkpt lat="48.69285" lon="1.74436">
        <ele>166.39999389648</ele>
        <time>2011-11-18T10:32:06.000Z</time>
      </trkpt>
      <trkpt lat="48.69287" lon="1.74446">
        <ele>166.60000610352</ele>
        <time>2011-11-18T10:32:11.000Z</time>
      </trkpt>
      <trkpt lat="48.69288" lon="1.74458">
        <ele>167</ele>
        <time>2011-11-18T10:32:17.000Z</time>
      </trkpt>
      <trkpt lat="48.69288" lon="1.74462">
        <ele>167</ele>
        <time>2011-11-18T10:32:19.000Z</time>
      </trkpt>
      <trkpt lat="48.69292" lon="1.7448">
        <ele>167.39999389648</ele>
        <time>2011-11-18T10:32:28.000Z</time>
      </trkpt>
      <trkpt lat="48.69295" lon="1.74496">
        <ele>167.80000305176</ele>
        <time>2011-11-18T10:32:36.000Z</time>
      </trkpt>
      <trkpt lat="48.69299" lon="1.74518">
        <ele>167.80000305176</ele>
        <time>2011-11-18T10:32:47.000Z</time>
      </trkpt>
      <trkpt lat="48.69303" lon="1.74534">
        <ele>167.80000305176</ele>
        <time>2011-11-18T10:32:55.000Z</time>
      </trkpt>
      <trkpt lat="48.69307" lon="1.74547">
        <ele>168</ele>
        <time>2011-11-18T10:33:01.000Z</time>
      </trkpt>
      <trkpt lat="48.69309" lon="1.74558">
        <ele>168</ele>
        <time>2011-11-18T10:33:06.000Z</time>
      </trkpt>
      <trkpt lat="48.69315" lon="1.74573">
        <ele>168</ele>
        <time>2011-11-18T10:33:14.000Z</time>
      </trkpt>
      <trkpt lat="48.69315" lon="1.74573">
        <ele>168</ele>
        <time>2011-11-18T10:33:15.000Z</time>
      </trkpt>
      <trkpt lat="48.69321" lon="1.74572">
        <ele>168</ele>
        <time>2011-11-18T10:33:19.000Z</time>
      </trkpt>
      <trkpt lat="48.69328" lon="1.74562">
        <ele>167.80000305176</ele>
        <time>2011-11-18T10:33:26.000Z</time>
      </trkpt>
      <trkpt lat="48.69334" lon="1.74548">
        <ele>167.60000610352</ele>
        <time>2011-11-18T10:33:33.000Z</time>
      </trkpt>
      <trkpt lat="48.69336" lon="1.74545">
        <ele>167.60000610352</ele>
        <time>2011-11-18T10:33:35.000Z</time>
      </trkpt>
      <trkpt lat="48.69338" lon="1.74539">
        <ele>167.60000610352</ele>
        <time>2011-11-18T10:33:38.000Z</time>
      </trkpt>
      <trkpt lat="48.69346" lon="1.74521">
        <ele>167.80000305176</ele>
        <time>2011-11-18T10:33:45.000Z</time>
      </trkpt>
      <trkpt lat="48.69361" lon="1.7449">
        <ele>168.39999389648</ele>
        <time>2011-11-18T10:33:53.000Z</time>
      </trkpt>
      <trkpt lat="48.69374" lon="1.7447">
        <ele>168.80000305176</ele>
        <time>2011-11-18T10:33:59.000Z</time>
      </trkpt>
      <trkpt lat="48.69385" lon="1.7445">
        <ele>169</ele>
        <time>2011-11-18T10:34:05.000Z</time>
      </trkpt>
      <trkpt lat="48.69397" lon="1.7443">
        <ele>169.19999694824</ele>
        <time>2011-11-18T10:34:11.000Z</time>
      </trkpt>
      <trkpt lat="48.69404" lon="1.74407">
        <ele>168.80000305176</ele>
        <time>2011-11-18T10:34:17.000Z</time>
      </trkpt>
      <trkpt lat="48.69416" lon="1.74382">
        <ele>168.19999694824</ele>
        <time>2011-11-18T10:34:24.000Z</time>
      </trkpt>
      <trkpt lat="48.69423" lon="1.74367">
        <ele>168</ele>
        <time>2011-11-18T10:34:29.000Z</time>
      </trkpt>
      <trkpt lat="48.69431" lon="1.7437">
        <ele>168.60000610352</ele>
        <time>2011-11-18T10:34:34.000Z</time>
      </trkpt>
      <trkpt lat="48.69431" lon="1.74371">
        <ele>168.60000610352</ele>
        <time>2011-11-18T10:34:35.000Z</time>
      </trkpt>
      <trkpt lat="48.69432" lon="1.74372">
        <ele>168.60000610352</ele>
        <time>2011-11-18T10:34:38.000Z</time>
      </trkpt>
      <trkpt lat="48.69433" lon="1.74367">
        <ele>168.60000610352</ele>
        <time>2011-11-18T10:34:57.000Z</time>
      </trkpt>
      <trkpt lat="48.6943" lon="1.74365">
        <ele>168.19999694824</ele>
        <time>2011-11-18T10:35:01.000Z</time>
      </trkpt>
      <trkpt lat="48.69431" lon="1.74366">
        <ele>168.39999389648</ele>
        <time>2011-11-18T10:35:03.000Z</time>
      </trkpt>
      <trkpt lat="48.69435" lon="1.74369">
        <ele>168.60000610352</ele>
        <time>2011-11-18T10:35:08.000Z</time>
      </trkpt>
      <trkpt lat="48.69435" lon="1.7437">
        <ele>168.80000305176</ele>
        <time>2011-11-18T10:35:12.000Z</time>
      </trkpt>
      <trkpt lat="48.69441" lon="1.74382">
        <ele>169.39999389648</ele>
        <time>2011-11-18T10:35:39.000Z</time>
      </trkpt>
      <trkpt lat="48.69442" lon="1.74386">
        <ele>169.60000610352</ele>
        <time>2011-11-18T10:35:41.000Z</time>
      </trkpt>
      <trkpt lat="48.69443" lon="1.74397">
        <ele>169.80000305176</ele>
        <time>2011-11-18T10:35:47.000Z</time>
      </trkpt>
      <trkpt lat="48.69445" lon="1.74414">
        <ele>170.19999694824</ele>
        <time>2011-11-18T10:35:55.000Z</time>
      </trkpt>
      <trkpt lat="48.69447" lon="1.74421">
        <ele>170.19999694824</ele>
        <time>2011-11-18T10:35:59.000Z</time>
      </trkpt>
      <trkpt lat="48.6945" lon="1.74429">
        <ele>170.39999389648</ele>
        <time>2011-11-18T10:36:04.000Z</time>
      </trkpt>
      <trkpt lat="48.69453" lon="1.74441">
        <ele>170.39999389648</ele>
        <time>2011-11-18T10:36:10.000Z</time>
      </trkpt>
      <trkpt lat="48.69457" lon="1.74456">
        <ele>170.39999389648</ele>
        <time>2011-11-18T10:36:17.000Z</time>
      </trkpt>
      <trkpt lat="48.69461" lon="1.74467">
        <ele>170.39999389648</ele>
        <time>2011-11-18T10:36:22.000Z</time>
      </trkpt>
      <trkpt lat="48.69463" lon="1.74478">
        <ele>170.19999694824</ele>
        <time>2011-11-18T10:36:28.000Z</time>
      </trkpt>
      <trkpt lat="48.69467" lon="1.74497">
        <ele>170.19999694824</ele>
        <time>2011-11-18T10:36:37.000Z</time>
      </trkpt>
      <trkpt lat="48.6947" lon="1.74516">
        <ele>169.39999389648</ele>
        <time>2011-11-18T10:36:46.000Z</time>
      </trkpt>
      <trkpt lat="48.69472" lon="1.74529">
        <ele>169</ele>
        <time>2011-11-18T10:36:52.000Z</time>
      </trkpt>
      <trkpt lat="48.69476" lon="1.74549">
        <ele>168.19999694824</ele>
        <time>2011-11-18T10:37:01.000Z</time>
      </trkpt>
      <trkpt lat="48.69479" lon="1.74564">
        <ele>167.60000610352</ele>
        <time>2011-11-18T10:37:08.000Z</time>
      </trkpt>
      <trkpt lat="48.69484" lon="1.74582">
        <ele>166.80000305176</ele>
        <time>2011-11-18T10:37:17.000Z</time>
      </trkpt>
      <trkpt lat="48.69488" lon="1.74597">
        <ele>166</ele>
        <time>2011-11-18T10:37:24.000Z</time>
      </trkpt>
      <trkpt lat="48.69493" lon="1.74608">
        <ele>165.39999389648</ele>
        <time>2011-11-18T10:37:30.000Z</time>
      </trkpt>
      <trkpt lat="48.69495" lon="1.74616">
        <ele>165</ele>
        <time>2011-11-18T10:37:34.000Z</time>
      </trkpt>
      <trkpt lat="48.69497" lon="1.74631">
        <ele>164.39999389648</ele>
        <time>2011-11-18T10:37:41.000Z</time>
      </trkpt>
      <trkpt lat="48.69502" lon="1.74651">
        <ele>163.39999389648</ele>
        <time>2011-11-18T10:37:49.000Z</time>
      </trkpt>
      <trkpt lat="48.69506" lon="1.74674">
        <ele>162.19999694824</ele>
        <time>2011-11-18T10:37:59.000Z</time>
      </trkpt>
      <trkpt lat="48.69509" lon="1.7469">
        <ele>161.60000610352</ele>
        <time>2011-11-18T10:38:06.000Z</time>
      </trkpt>
      <trkpt lat="48.69513" lon="1.74707">
        <ele>160.80000305176</ele>
        <time>2011-11-18T10:38:14.000Z</time>
      </trkpt>
      <trkpt lat="48.69519" lon="1.74729">
        <ele>159.80000305176</ele>
        <time>2011-11-18T10:38:24.000Z</time>
      </trkpt>
      <trkpt lat="48.69519" lon="1.74731">
        <ele>159.60000610352</ele>
        <time>2011-11-18T10:38:25.000Z</time>
      </trkpt>
      <trkpt lat="48.69524" lon="1.74744">
        <ele>159</ele>
        <time>2011-11-18T10:38:31.000Z</time>
      </trkpt>
      <trkpt lat="48.69527" lon="1.74752">
        <ele>158.60000610352</ele>
        <time>2011-11-18T10:38:35.000Z</time>
      </trkpt>
      <trkpt lat="48.6953" lon="1.74769">
        <ele>158.60000610352</ele>
        <time>2011-11-18T10:38:43.000Z</time>
      </trkpt>
      <trkpt lat="48.69533" lon="1.7478">
        <ele>158.60000610352</ele>
        <time>2011-11-18T10:38:48.000Z</time>
      </trkpt>
      <trkpt lat="48.69535" lon="1.74789">
        <ele>158.80000305176</ele>
        <time>2011-11-18T10:38:53.000Z</time>
      </trkpt>
      <trkpt lat="48.69539" lon="1.74805">
        <ele>158.60000610352</ele>
        <time>2011-11-18T10:39:01.000Z</time>
      </trkpt>
      <trkpt lat="48.69542" lon="1.74816">
        <ele>158.60000610352</ele>
        <time>2011-11-18T10:39:07.000Z</time>
      </trkpt>
      <trkpt lat="48.69546" lon="1.74829">
        <ele>158.60000610352</ele>
        <time>2011-11-18T10:39:14.000Z</time>
      </trkpt>
      <trkpt lat="48.69547" lon="1.74838">
        <ele>158.80000305176</ele>
        <time>2011-11-18T10:39:19.000Z</time>
      </trkpt>
      <trkpt lat="48.69549" lon="1.74852">
        <ele>159.19999694824</ele>
        <time>2011-11-18T10:39:26.000Z</time>
      </trkpt>
      <trkpt lat="48.69552" lon="1.74859">
        <ele>159.19999694824</ele>
        <time>2011-11-18T10:39:30.000Z</time>
      </trkpt>
      <trkpt lat="48.69555" lon="1.7487">
        <ele>159.39999389648</ele>
        <time>2011-11-18T10:39:36.000Z</time>
      </trkpt>
      <trkpt lat="48.69555" lon="1.74872">
        <ele>159.39999389648</ele>
        <time>2011-11-18T10:39:37.000Z</time>
      </trkpt>
      <trkpt lat="48.69557" lon="1.74893">
        <ele>159.80000305176</ele>
        <time>2011-11-18T10:39:47.000Z</time>
      </trkpt>
      <trkpt lat="48.69562" lon="1.74904">
        <ele>159.60000610352</ele>
        <time>2011-11-18T10:39:53.000Z</time>
      </trkpt>
      <trkpt lat="48.69566" lon="1.74916">
        <ele>159.60000610352</ele>
        <time>2011-11-18T10:39:59.000Z</time>
      </trkpt>
      <trkpt lat="48.69569" lon="1.74927">
        <ele>159.39999389648</ele>
        <time>2011-11-18T10:40:04.000Z</time>
      </trkpt>
      <trkpt lat="48.69572" lon="1.74941">
        <ele>159.39999389648</ele>
        <time>2011-11-18T10:40:11.000Z</time>
      </trkpt>
      <trkpt lat="48.69573" lon="1.74947">
        <ele>159.39999389648</ele>
        <time>2011-11-18T10:40:14.000Z</time>
      </trkpt>
      <trkpt lat="48.69574" lon="1.74959">
        <ele>159.39999389648</ele>
        <time>2011-11-18T10:40:20.000Z</time>
      </trkpt>
      <trkpt lat="48.69577" lon="1.74968">
        <ele>159.19999694824</ele>
        <time>2011-11-18T10:40:24.000Z</time>
      </trkpt>
      <trkpt lat="48.69581" lon="1.74982">
        <ele>159</ele>
        <time>2011-11-18T10:40:31.000Z</time>
      </trkpt>
      <trkpt lat="48.69583" lon="1.74994">
        <ele>158.80000305176</ele>
        <time>2011-11-18T10:40:37.000Z</time>
      </trkpt>
      <trkpt lat="48.69588" lon="1.74992">
        <ele>159</ele>
        <time>2011-11-18T10:40:42.000Z</time>
      </trkpt>
      <trkpt lat="48.696" lon="1.74986">
        <ele>159.60000610352</ele>
        <time>2011-11-18T10:40:51.000Z</time>
      </trkpt>
      <trkpt lat="48.69608" lon="1.74985">
        <ele>159.80000305176</ele>
        <time>2011-11-18T10:40:57.000Z</time>
      </trkpt>
      <trkpt lat="48.69609" lon="1.74984">
        <ele>160</ele>
        <time>2011-11-18T10:40:58.000Z</time>
      </trkpt>
      <trkpt lat="48.69614" lon="1.7498">
        <ele>160.19999694824</ele>
        <time>2011-11-18T10:41:02.000Z</time>
      </trkpt>
      <trkpt lat="48.69626" lon="1.74976">
        <ele>160.60000610352</ele>
        <time>2011-11-18T10:41:09.000Z</time>
      </trkpt>
      <trkpt lat="48.69638" lon="1.74972">
        <ele>161.19999694824</ele>
        <time>2011-11-18T10:41:16.000Z</time>
      </trkpt>
      <trkpt lat="48.69648" lon="1.74969">
        <ele>161.60000610352</ele>
        <time>2011-11-18T10:41:22.000Z</time>
      </trkpt>
      <trkpt lat="48.69655" lon="1.74967">
        <ele>162</ele>
        <time>2011-11-18T10:41:27.000Z</time>
      </trkpt>
      <trkpt lat="48.69666" lon="1.74962">
        <ele>162.39999389648</ele>
        <time>2011-11-18T10:41:35.000Z</time>
      </trkpt>
      <trkpt lat="48.69678" lon="1.74959">
        <ele>162.80000305176</ele>
        <time>2011-11-18T10:41:42.000Z</time>
      </trkpt>
      <trkpt lat="48.69689" lon="1.74957">
        <ele>163.39999389648</ele>
        <time>2011-11-18T10:41:49.000Z</time>
      </trkpt>
      <trkpt lat="48.69696" lon="1.74951">
        <ele>163.60000610352</ele>
        <time>2011-11-18T10:41:55.000Z</time>
      </trkpt>
      <trkpt lat="48.69698" lon="1.74939">
        <ele>163.60000610352</ele>
        <time>2011-11-18T10:42:01.000Z</time>
      </trkpt>
      <trkpt lat="48.69701" lon="1.74935">
        <ele>163.60000610352</ele>
        <time>2011-11-18T10:42:04.000Z</time>
      </trkpt>
      <trkpt lat="48.69706" lon="1.7493">
        <ele>163.80000305176</ele>
        <time>2011-11-18T10:42:08.000Z</time>
      </trkpt>
      <trkpt lat="48.69717" lon="1.74924">
        <ele>164.39999389648</ele>
        <time>2011-11-18T10:42:16.000Z</time>
      </trkpt>
      <trkpt lat="48.69725" lon="1.7492">
        <ele>164.80000305176</ele>
        <time>2011-11-18T10:42:24.000Z</time>
      </trkpt>
      <trkpt lat="48.69738" lon="1.74917">
        <ele>165.39999389648</ele>
        <time>2011-11-18T10:42:32.000Z</time>
      </trkpt>
      <trkpt lat="48.6975" lon="1.74914">
        <ele>165.80000305176</ele>
        <time>2011-11-18T10:42:41.000Z</time>
      </trkpt>
      <trkpt lat="48.6976" lon="1.74909">
        <ele>166</ele>
        <time>2011-11-18T10:42:48.000Z</time>
      </trkpt>
      <trkpt lat="48.6977" lon="1.74902">
        <ele>166.19999694824</ele>
        <time>2011-11-18T10:42:56.000Z</time>
      </trkpt>
      <trkpt lat="48.69782" lon="1.74897">
        <ele>166.60000610352</ele>
        <time>2011-11-18T10:43:05.000Z</time>
      </trkpt>
      <trkpt lat="48.69793" lon="1.74891">
        <ele>167</ele>
        <time>2011-11-18T10:43:13.000Z</time>
      </trkpt>
      <trkpt lat="48.69803" lon="1.74886">
        <ele>167.39999389648</ele>
        <time>2011-11-18T10:43:20.000Z</time>
      </trkpt>
      <trkpt lat="48.69808" lon="1.74892">
        <ele>167.39999389648</ele>
        <time>2011-11-18T10:43:25.000Z</time>
      </trkpt>
      <trkpt lat="48.69813" lon="1.7491">
        <ele>166.80000305176</ele>
        <time>2011-11-18T10:43:32.000Z</time>
      </trkpt>
      <trkpt lat="48.69816" lon="1.74925">
        <ele>166.80000305176</ele>
        <time>2011-11-18T10:43:38.000Z</time>
      </trkpt>
      <trkpt lat="48.69819" lon="1.74943">
        <ele>167.19999694824</ele>
        <time>2011-11-18T10:43:47.000Z</time>
      </trkpt>
      <trkpt lat="48.69821" lon="1.7496">
        <ele>167.60000610352</ele>
        <time>2011-11-18T10:43:55.000Z</time>
      </trkpt>
      <trkpt lat="48.69825" lon="1.74977">
        <ele>168</ele>
        <time>2011-11-18T10:44:03.000Z</time>
      </trkpt>
      <trkpt lat="48.69826" lon="1.74992">
        <ele>168.39999389648</ele>
        <time>2011-11-18T10:44:10.000Z</time>
      </trkpt>
      <trkpt lat="48.69829" lon="1.7501">
        <ele>168.80000305176</ele>
        <time>2011-11-18T10:44:18.000Z</time>
      </trkpt>
      <trkpt lat="48.69833" lon="1.75032">
        <ele>169.19999694824</ele>
        <time>2011-11-18T10:44:28.000Z</time>
      </trkpt>
      <trkpt lat="48.69835" lon="1.7505">
        <ele>169.60000610352</ele>
        <time>2011-11-18T10:44:36.000Z</time>
      </trkpt>
      <trkpt lat="48.69838" lon="1.75068">
        <ele>170</ele>
        <time>2011-11-18T10:44:44.000Z</time>
      </trkpt>
      <trkpt lat="48.69841" lon="1.75089">
        <ele>170.39999389648</ele>
        <time>2011-11-18T10:44:54.000Z</time>
      </trkpt>
      <trkpt lat="48.69846" lon="1.75108">
        <ele>170.60000610352</ele>
        <time>2011-11-18T10:45:03.000Z</time>
      </trkpt>
      <trkpt lat="48.69849" lon="1.75125">
        <ele>171</ele>
        <time>2011-11-18T10:45:11.000Z</time>
      </trkpt>
      <trkpt lat="48.69852" lon="1.75151">
        <ele>171.39999389648</ele>
        <time>2011-11-18T10:45:23.000Z</time>
      </trkpt>
      <trkpt lat="48.69856" lon="1.75174">
        <ele>172</ele>
        <time>2011-11-18T10:45:34.000Z</time>
      </trkpt>
      <trkpt lat="48.69858" lon="1.75189">
        <ele>172.39999389648</ele>
        <time>2011-11-18T10:45:41.000Z</time>
      </trkpt>
      <trkpt lat="48.6986" lon="1.75207">
        <ele>172.80000305176</ele>
        <time>2011-11-18T10:45:49.000Z</time>
      </trkpt>
      <trkpt lat="48.69863" lon="1.75227">
        <ele>173.19999694824</ele>
        <time>2011-11-18T10:45:58.000Z</time>
      </trkpt>
      <trkpt lat="48.69868" lon="1.7525">
        <ele>173.80000305176</ele>
        <time>2011-11-18T10:46:09.000Z</time>
      </trkpt>
      <trkpt lat="48.69872" lon="1.75268">
        <ele>173.39999389648</ele>
        <time>2011-11-18T10:46:17.000Z</time>
      </trkpt>
      <trkpt lat="48.69875" lon="1.75289">
        <ele>173.19999694824</ele>
        <time>2011-11-18T10:46:26.000Z</time>
      </trkpt>
      <trkpt lat="48.69878" lon="1.75307">
        <ele>173</ele>
        <time>2011-11-18T10:46:34.000Z</time>
      </trkpt>
      <trkpt lat="48.69882" lon="1.75326">
        <ele>172.60000610352</ele>
        <time>2011-11-18T10:46:43.000Z</time>
      </trkpt>
      <trkpt lat="48.69885" lon="1.75347">
        <ele>172.19999694824</ele>
        <time>2011-11-18T10:46:53.000Z</time>
      </trkpt>
      <trkpt lat="48.69887" lon="1.7536">
        <ele>172.19999694824</ele>
        <time>2011-11-18T10:46:59.000Z</time>
      </trkpt>
      <trkpt lat="48.69889" lon="1.75371">
        <ele>172</ele>
        <time>2011-11-18T10:47:04.000Z</time>
      </trkpt>
      <trkpt lat="48.69896" lon="1.75381">
        <ele>172</ele>
        <time>2011-11-18T10:47:11.000Z</time>
      </trkpt>
      <trkpt lat="48.69903" lon="1.75383">
        <ele>172</ele>
        <time>2011-11-18T10:47:17.000Z</time>
      </trkpt>
      <trkpt lat="48.69908" lon="1.75382">
        <ele>172.19999694824</ele>
        <time>2011-11-18T10:47:20.000Z</time>
      </trkpt>
      <trkpt lat="48.69919" lon="1.75379">
        <ele>172.19999694824</ele>
        <time>2011-11-18T10:47:27.000Z</time>
      </trkpt>
      <trkpt lat="48.69925" lon="1.75375">
        <ele>172.19999694824</ele>
        <time>2011-11-18T10:47:32.000Z</time>
      </trkpt>
      <trkpt lat="48.69935" lon="1.7537">
        <ele>172</ele>
        <time>2011-11-18T10:47:39.000Z</time>
      </trkpt>
      <trkpt lat="48.69946" lon="1.75365">
        <ele>171.80000305176</ele>
        <time>2011-11-18T10:47:47.000Z</time>
      </trkpt>
      <trkpt lat="48.69958" lon="1.75361">
        <ele>171.80000305176</ele>
        <time>2011-11-18T10:47:54.000Z</time>
      </trkpt>
      <trkpt lat="48.69967" lon="1.75356">
        <ele>171.60000610352</ele>
        <time>2011-11-18T10:48:01.000Z</time>
      </trkpt>
      <trkpt lat="48.69979" lon="1.75351">
        <ele>171.60000610352</ele>
        <time>2011-11-18T10:48:08.000Z</time>
      </trkpt>
      <trkpt lat="48.69985" lon="1.75349">
        <ele>171.60000610352</ele>
        <time>2011-11-18T10:48:13.000Z</time>
      </trkpt>
      <trkpt lat="48.69996" lon="1.75346">
        <ele>171.60000610352</ele>
        <time>2011-11-18T10:48:21.000Z</time>
      </trkpt>
      <trkpt lat="48.70005" lon="1.7534">
        <ele>171.80000305176</ele>
        <time>2011-11-18T10:48:27.000Z</time>
      </trkpt>
      <trkpt lat="48.70018" lon="1.75334">
        <ele>172</ele>
        <time>2011-11-18T10:48:35.000Z</time>
      </trkpt>
      <trkpt lat="48.70027" lon="1.75331">
        <ele>172.19999694824</ele>
        <time>2011-11-18T10:48:42.000Z</time>
      </trkpt>
      <trkpt lat="48.70038" lon="1.75325">
        <ele>172.60000610352</ele>
        <time>2011-11-18T10:48:50.000Z</time>
      </trkpt>
      <trkpt lat="48.70048" lon="1.75321">
        <ele>172.80000305176</ele>
        <time>2011-11-18T10:48:55.000Z</time>
      </trkpt>
      <trkpt lat="48.70053" lon="1.75317">
        <ele>173</ele>
        <time>2011-11-18T10:49:00.000Z</time>
      </trkpt>
      <trkpt lat="48.70061" lon="1.75313">
        <ele>173.39999389648</ele>
        <time>2011-11-18T10:49:06.000Z</time>
      </trkpt>
      <trkpt lat="48.7007" lon="1.75307">
        <ele>173.60000610352</ele>
        <time>2011-11-18T10:49:14.000Z</time>
      </trkpt>
      <trkpt lat="48.70079" lon="1.75302">
        <ele>174</ele>
        <time>2011-11-18T10:49:21.000Z</time>
      </trkpt>
      <trkpt lat="48.70088" lon="1.75298">
        <ele>174.19999694824</ele>
        <time>2011-11-18T10:49:27.000Z</time>
      </trkpt>
      <trkpt lat="48.70098" lon="1.75293">
        <ele>174.60000610352</ele>
        <time>2011-11-18T10:49:34.000Z</time>
      </trkpt>
      <trkpt lat="48.70105" lon="1.75289">
        <ele>174.80000305176</ele>
        <time>2011-11-18T10:49:40.000Z</time>
      </trkpt>
      <trkpt lat="48.70116" lon="1.75285">
        <ele>175.19999694824</ele>
        <time>2011-11-18T10:49:46.000Z</time>
      </trkpt>
      <trkpt lat="48.70123" lon="1.75281">
        <ele>175.39999389648</ele>
        <time>2011-11-18T10:49:52.000Z</time>
      </trkpt>
      <trkpt lat="48.70133" lon="1.75276">
        <ele>175.60000610352</ele>
        <time>2011-11-18T10:49:59.000Z</time>
      </trkpt>
      <trkpt lat="48.70146" lon="1.75272">
        <ele>175.60000610352</ele>
        <time>2011-11-18T10:50:07.000Z</time>
      </trkpt>
      <trkpt lat="48.70147" lon="1.75272">
        <ele>175.80000305176</ele>
        <time>2011-11-18T10:50:08.000Z</time>
      </trkpt>
      <trkpt lat="48.70152" lon="1.75269">
        <ele>175.80000305176</ele>
        <time>2011-11-18T10:50:14.000Z</time>
      </trkpt>
      <trkpt lat="48.70152" lon="1.75268">
        <ele>175.80000305176</ele>
        <time>2011-11-18T10:50:15.000Z</time>
      </trkpt>
      <trkpt lat="48.70153" lon="1.75262">
        <ele>175.80000305176</ele>
        <time>2011-11-18T10:50:21.000Z</time>
      </trkpt>
      <trkpt lat="48.70156" lon="1.75258">
        <ele>175.80000305176</ele>
        <time>2011-11-18T10:50:25.000Z</time>
      </trkpt>
      <trkpt lat="48.70161" lon="1.75257">
        <ele>175.80000305176</ele>
        <time>2011-11-18T10:50:28.000Z</time>
      </trkpt>
      <trkpt lat="48.70171" lon="1.75257">
        <ele>176</ele>
        <time>2011-11-18T10:50:35.000Z</time>
      </trkpt>
      <trkpt lat="48.70172" lon="1.75257">
        <ele>176.19999694824</ele>
        <time>2011-11-18T10:50:36.000Z</time>
      </trkpt>
      <trkpt lat="48.70182" lon="1.75254">
        <ele>176.60000610352</ele>
        <time>2011-11-18T10:50:44.000Z</time>
      </trkpt>
      <trkpt lat="48.7019" lon="1.75251">
        <ele>177</ele>
        <time>2011-11-18T10:50:51.000Z</time>
      </trkpt>
      <trkpt lat="48.70196" lon="1.75246">
        <ele>177.39999389648</ele>
        <time>2011-11-18T10:50:57.000Z</time>
      </trkpt>
      <trkpt lat="48.70205" lon="1.75241">
        <ele>177.60000610352</ele>
        <time>2011-11-18T10:51:04.000Z</time>
      </trkpt>
      <trkpt lat="48.70213" lon="1.75239">
        <ele>178</ele>
        <time>2011-11-18T10:51:12.000Z</time>
      </trkpt>
      <trkpt lat="48.70222" lon="1.75242">
        <ele>178.39999389648</ele>
        <time>2011-11-18T10:51:19.000Z</time>
      </trkpt>
      <trkpt lat="48.70225" lon="1.75243">
        <ele>178.60000610352</ele>
        <time>2011-11-18T10:51:21.000Z</time>
      </trkpt>
      <trkpt lat="48.70234" lon="1.75248">
        <ele>179.19999694824</ele>
        <time>2011-11-18T10:51:27.000Z</time>
      </trkpt>
      <trkpt lat="48.70246" lon="1.75257">
        <ele>179.60000610352</ele>
        <time>2011-11-18T10:51:35.000Z</time>
      </trkpt>
      <trkpt lat="48.70255" lon="1.75265">
        <ele>179.80000305176</ele>
        <time>2011-11-18T10:51:42.000Z</time>
      </trkpt>
      <trkpt lat="48.70268" lon="1.75275">
        <ele>180</ele>
        <time>2011-11-18T10:51:50.000Z</time>
      </trkpt>
      <trkpt lat="48.70279" lon="1.75283">
        <ele>180.19999694824</ele>
        <time>2011-11-18T10:51:58.000Z</time>
      </trkpt>
      <trkpt lat="48.70286" lon="1.75288">
        <ele>180.39999389648</ele>
        <time>2011-11-18T10:52:04.000Z</time>
      </trkpt>
      <trkpt lat="48.70295" lon="1.75296">
        <ele>180.39999389648</ele>
        <time>2011-11-18T10:52:12.000Z</time>
      </trkpt>
      <trkpt lat="48.70304" lon="1.75307">
        <ele>180.60000610352</ele>
        <time>2011-11-18T10:52:19.000Z</time>
      </trkpt>
      <trkpt lat="48.70311" lon="1.75323">
        <ele>180.39999389648</ele>
        <time>2011-11-18T10:52:28.000Z</time>
      </trkpt>
      <trkpt lat="48.7031" lon="1.75324">
        <ele>180.39999389648</ele>
        <time>2011-11-18T10:52:29.000Z</time>
      </trkpt>
      <trkpt lat="48.70312" lon="1.75329">
        <ele>180.39999389648</ele>
        <time>2011-11-18T10:52:33.000Z</time>
      </trkpt>
      <trkpt lat="48.70315" lon="1.75339">
        <ele>180.39999389648</ele>
        <time>2011-11-18T10:52:39.000Z</time>
      </trkpt>
      <trkpt lat="48.70323" lon="1.7535">
        <ele>180.60000610352</ele>
        <time>2011-11-18T10:52:48.000Z</time>
      </trkpt>
      <trkpt lat="48.70328" lon="1.75355">
        <ele>180.80000305176</ele>
        <time>2011-11-18T10:52:54.000Z</time>
      </trkpt>
      <trkpt lat="48.70332" lon="1.75359">
        <ele>180.80000305176</ele>
        <time>2011-11-18T10:52:58.000Z</time>
      </trkpt>
      <trkpt lat="48.70339" lon="1.75361">
        <ele>180.80000305176</ele>
        <time>2011-11-18T10:53:04.000Z</time>
      </trkpt>
      <trkpt lat="48.70351" lon="1.75372">
        <ele>180.60000610352</ele>
        <time>2011-11-18T10:53:13.000Z</time>
      </trkpt>
      <trkpt lat="48.70364" lon="1.75384">
        <ele>180.60000610352</ele>
        <time>2011-11-18T10:53:22.000Z</time>
      </trkpt>
      <trkpt lat="48.70371" lon="1.75391">
        <ele>180.80000305176</ele>
        <time>2011-11-18T10:53:28.000Z</time>
      </trkpt>
      <trkpt lat="48.70379" lon="1.75398">
        <ele>181</ele>
        <time>2011-11-18T10:53:36.000Z</time>
      </trkpt>
      <trkpt lat="48.70385" lon="1.75405">
        <ele>181.19999694824</ele>
        <time>2011-11-18T10:53:42.000Z</time>
      </trkpt>
      <trkpt lat="48.70385" lon="1.75405">
        <ele>181.19999694824</ele>
        <time>2011-11-18T10:53:43.000Z</time>
      </trkpt>
      <trkpt lat="48.70391" lon="1.75404">
        <ele>181.19999694824</ele>
        <time>2011-11-18T10:53:51.000Z</time>
      </trkpt>
      <trkpt lat="48.70397" lon="1.75405">
        <ele>181.19999694824</ele>
        <time>2011-11-18T10:53:57.000Z</time>
      </trkpt>
      <trkpt lat="48.70399" lon="1.75409">
        <ele>181.39999389648</ele>
        <time>2011-11-18T10:54:00.000Z</time>
      </trkpt>
      <trkpt lat="48.70405" lon="1.75414">
        <ele>181.60000610352</ele>
        <time>2011-11-18T10:54:07.000Z</time>
      </trkpt>
      <trkpt lat="48.70415" lon="1.75422">
        <ele>182</ele>
        <time>2011-11-18T10:54:16.000Z</time>
      </trkpt>
      <trkpt lat="48.70421" lon="1.75426">
        <ele>181.80000305176</ele>
        <time>2011-11-18T10:54:22.000Z</time>
      </trkpt>
      <trkpt lat="48.70432" lon="1.75433">
        <ele>181.19999694824</ele>
        <time>2011-11-18T10:54:30.000Z</time>
      </trkpt>
      <trkpt lat="48.70438" lon="1.75438">
        <ele>181</ele>
        <time>2011-11-18T10:54:36.000Z</time>
      </trkpt>
      <trkpt lat="48.70447" lon="1.75445">
        <ele>180.80000305176</ele>
        <time>2011-11-18T10:54:43.000Z</time>
      </trkpt>
      <trkpt lat="48.70455" lon="1.75449">
        <ele>180.39999389648</ele>
        <time>2011-11-18T10:54:48.000Z</time>
      </trkpt>
      <trkpt lat="48.70459" lon="1.75454">
        <ele>180.39999389648</ele>
        <time>2011-11-18T10:54:53.000Z</time>
      </trkpt>
      <trkpt lat="48.70467" lon="1.75462">
        <ele>180.39999389648</ele>
        <time>2011-11-18T10:55:01.000Z</time>
      </trkpt>
      <trkpt lat="48.70469" lon="1.75466">
        <ele>180.39999389648</ele>
        <time>2011-11-18T10:55:04.000Z</time>
      </trkpt>
      <trkpt lat="48.7048" lon="1.75477">
        <ele>180.39999389648</ele>
        <time>2011-11-18T10:55:13.000Z</time>
      </trkpt>
      <trkpt lat="48.70485" lon="1.75483">
        <ele>180.60000610352</ele>
        <time>2011-11-18T10:55:18.000Z</time>
      </trkpt>
      <trkpt lat="48.7049" lon="1.75488">
        <ele>180.60000610352</ele>
        <time>2011-11-18T10:55:22.000Z</time>
      </trkpt>
      <trkpt lat="48.70497" lon="1.75497">
        <ele>180.80000305176</ele>
        <time>2011-11-18T10:55:30.000Z</time>
      </trkpt>
      <trkpt lat="48.70506" lon="1.75506">
        <ele>180.60000610352</ele>
        <time>2011-11-18T10:55:39.000Z</time>
      </trkpt>
      <trkpt lat="48.70515" lon="1.75513">
        <ele>180.39999389648</ele>
        <time>2011-11-18T10:55:46.000Z</time>
      </trkpt>
      <trkpt lat="48.70524" lon="1.75524">
        <ele>180.39999389648</ele>
        <time>2011-11-18T10:55:55.000Z</time>
      </trkpt>
      <trkpt lat="48.70527" lon="1.75526">
        <ele>180.39999389648</ele>
        <time>2011-11-18T10:55:57.000Z</time>
      </trkpt>
      <trkpt lat="48.70536" lon="1.75536">
        <ele>180.60000610352</ele>
        <time>2011-11-18T10:56:04.000Z</time>
      </trkpt>
      <trkpt lat="48.70538" lon="1.7554">
        <ele>180.60000610352</ele>
        <time>2011-11-18T10:56:07.000Z</time>
      </trkpt>
      <trkpt lat="48.70547" lon="1.7555">
        <ele>181</ele>
        <time>2011-11-18T10:56:15.000Z</time>
      </trkpt>
      <trkpt lat="48.70555" lon="1.75558">
        <ele>181.39999389648</ele>
        <time>2011-11-18T10:56:22.000Z</time>
      </trkpt>
      <trkpt lat="48.70565" lon="1.75568">
        <ele>181.80000305176</ele>
        <time>2011-11-18T10:56:31.000Z</time>
      </trkpt>
      <trkpt lat="48.70575" lon="1.75576">
        <ele>182.39999389648</ele>
        <time>2011-11-18T10:56:38.000Z</time>
      </trkpt>
      <trkpt lat="48.70583" lon="1.75585">
        <ele>183</ele>
        <time>2011-11-18T10:56:45.000Z</time>
      </trkpt>
      <trkpt lat="48.70592" lon="1.75596">
        <ele>182.39999389648</ele>
        <time>2011-11-18T10:56:53.000Z</time>
      </trkpt>
      <trkpt lat="48.70595" lon="1.75601">
        <ele>182.19999694824</ele>
        <time>2011-11-18T10:56:56.000Z</time>
      </trkpt>
      <trkpt lat="48.70602" lon="1.75607">
        <ele>181.60000610352</ele>
        <time>2011-11-18T10:57:00.000Z</time>
      </trkpt>
      <trkpt lat="48.7061" lon="1.7562">
        <ele>181</ele>
        <time>2011-11-18T10:57:09.000Z</time>
      </trkpt>
      <trkpt lat="48.70618" lon="1.7563">
        <ele>180.19999694824</ele>
        <time>2011-11-18T10:57:16.000Z</time>
      </trkpt>
      <trkpt lat="48.70627" lon="1.75641">
        <ele>179.39999389648</ele>
        <time>2011-11-18T10:57:24.000Z</time>
      </trkpt>
      <trkpt lat="48.70631" lon="1.75647">
        <ele>179</ele>
        <time>2011-11-18T10:57:29.000Z</time>
      </trkpt>
      <trkpt lat="48.70635" lon="1.75648">
        <ele>178.60000610352</ele>
        <time>2011-11-18T10:57:35.000Z</time>
      </trkpt>
      <trkpt lat="48.70643" lon="1.75623">
        <ele>177.39999389648</ele>
        <time>2011-11-18T10:59:31.000Z</time>
      </trkpt>
      <trkpt lat="48.70646" lon="1.75613">
        <ele>177</ele>
        <time>2011-11-18T10:59:36.000Z</time>
      </trkpt>
      <trkpt lat="48.70649" lon="1.7561">
        <ele>176.80000305176</ele>
        <time>2011-11-18T10:59:40.000Z</time>
      </trkpt>
      <trkpt lat="48.70649" lon="1.75608">
        <ele>176.60000610352</ele>
        <time>2011-11-18T10:59:41.000Z</time>
      </trkpt>
      <trkpt lat="48.7065" lon="1.75602">
        <ele>176.60000610352</ele>
        <time>2011-11-18T10:59:44.000Z</time>
      </trkpt>
      <trkpt lat="48.70652" lon="1.75597">
        <ele>176.39999389648</ele>
        <time>2011-11-18T10:59:50.000Z</time>
      </trkpt>
    </trkseg>
  </trk>
</gpx>